Wetterdaten: Sonntag, 28.07.2019
Datum Zeit Temp. A. Pool Temp. Temp. 5cm Feuchte A. Luftdruck Regen Wind Richtung Richtung Sonnenschein ET UV Solar Taupunkt Windchill Windben Empfang
28.07.2019 00:00 17,9 C 26,7 C 17,2 C 92 % 998,3 hPa 0,0 l/m 5,8 km/h (2 Bft) O-NO 76 0 min 0,000 mm 0,0 UV-I 0 W/m 16,6 C 17,9 C 8,0 km/h (2 Bft) 96,00 %
28.07.2019 00:02 17,9 C 26,7 C 17,2 C 92 % 998,3 hPa 0,0 l/m 4,8 km/h (1 Bft) O-NO 76 0 min 0,000 mm 0,0 UV-I 0 W/m 16,6 C 17,9 C 4,8 km/h (1 Bft) 13,33 %
28.07.2019 00:04 17,8 C 26,7 C 17,2 C 92 % 998,2 hPa 0,0 l/m 5,7 km/h (1 Bft) O 84 0 min 0,000 mm 0,0 UV-I 0 W/m 16,5 C 17,8 C 9,7 km/h (2 Bft) 80,00 %
28.07.2019 00:06 17,8 C 26,7 C 16,7 C 92 % 998,3 hPa 0,0 l/m 5,9 km/h (2 Bft) O-NO 63 0 min 0,000 mm 0,0 UV-I 0 W/m 16,5 C 17,8 C 8,0 km/h (2 Bft) 96,23 %
28.07.2019 00:08 17,8 C 26,7 C 16,7 C 92 % 998,2 hPa 0,0 l/m 5,6 km/h (1 Bft) O 80 0 min 0,000 mm 0,0 UV-I 0 W/m 16,5 C 17,8 C 8,0 km/h (2 Bft) 97,37 %
28.07.2019 00:10 17,8 C 26,7 C 16,7 C 92 % 998,2 hPa 0,0 l/m 6,1 km/h (2 Bft) O 79 0 min 0,000 mm 0,0 UV-I 0 W/m 16,5 C 17,8 C 9,7 km/h (2 Bft) 98,11 %
28.07.2019 00:12 17,7 C 26,7 C 16,7 C 92 % 998,2 hPa 0,0 l/m 6,5 km/h (2 Bft) O-NO 71 0 min 0,000 mm 0,0 UV-I 0 W/m 16,4 C 17,7 C 9,7 km/h (2 Bft) 97,62 %
28.07.2019 00:14 17,7 C 26,7 C 16,7 C 92 % 998,2 hPa 0,0 l/m 6,4 km/h (2 Bft) O-NO 73 0 min 0,000 mm 0,0 UV-I 0 W/m 16,4 C 17,7 C 9,7 km/h (2 Bft) 98,08 %
28.07.2019 00:16 17,7 C 26,7 C 16,7 C 92 % 998,3 hPa 0,0 l/m 6,4 km/h (2 Bft) O-NO 78 0 min 0,000 mm 0,0 UV-I 0 W/m 16,4 C 17,7 C 9,7 km/h (2 Bft) 97,44 %
28.07.2019 00:18 17,7 C 26,7 C 16,7 C 92 % 998,3 hPa 0,0 l/m 6,9 km/h (2 Bft) O 84 0 min 0,000 mm 0,0 UV-I 0 W/m 16,4 C 17,5 C 12,9 km/h (3 Bft) 98,21 %
28.07.2019 00:20 17,7 C 26,7 C 16,7 C 92 % 998,3 hPa 0,0 l/m 4,6 km/h (1 Bft) O 80 0 min 0,000 mm 0,0 UV-I 0 W/m 16,4 C 17,7 C 8,0 km/h (2 Bft) 97,87 %
28.07.2019 00:22 17,7 C 26,7 C 16,7 C 93 % 998,3 hPa 0,0 l/m 5,0 km/h (1 Bft) O 90 0 min 0,000 mm 0,0 UV-I 0 W/m 16,6 C 17,7 C 6,4 km/h (2 Bft) 96,00 %
28.07.2019 00:24 17,7 C 26,7 C 16,7 C 93 % 998,3 hPa 0,0 l/m 9,3 km/h (2 Bft) O-SO 104 0 min 0,000 mm 0,0 UV-I 0 W/m 16,6 C 16,4 C 12,9 km/h (3 Bft) 100,00 %
28.07.2019 00:26 17,7 C 26,7 C 16,7 C 93 % 998,3 hPa 0,0 l/m 5,4 km/h (1 Bft) O-SO 123 0 min 0,000 mm 0,0 UV-I 0 W/m 16,6 C 17,7 C 11,3 km/h (2 Bft) 100,00 %
28.07.2019 00:28 17,7 C 26,7 C 16,7 C 93 % 998,3 hPa 0,0 l/m 6,4 km/h (2 Bft) O-SO 107 0 min 0,000 mm 0,0 UV-I 0 W/m 16,6 C 17,7 C 11,3 km/h (2 Bft) 97,37 %
28.07.2019 00:30 17,7 C 26,7 C 16,7 C 92 % 998,3 hPa 0,0 l/m 5,8 km/h (2 Bft) O-SO 107 0 min 0,000 mm 0,0 UV-I 0 W/m 16,4 C 17,7 C 11,3 km/h (2 Bft) 98,21 %
28.07.2019 00:32 17,7 C 26,7 C 16,7 C 92 % 998,3 hPa 0,0 l/m 6,2 km/h (2 Bft) O-SO 117 0 min 0,000 mm 0,0 UV-I 0 W/m 16,4 C 17,7 C 11,3 km/h (2 Bft) 97,14 %
28.07.2019 00:34 17,7 C 26,7 C 16,7 C 92 % 998,3 hPa 0,0 l/m 4,6 km/h (1 Bft) S-SO 155 0 min 0,000 mm 0,0 UV-I 0 W/m 16,4 C 17,7 C 8,0 km/h (2 Bft) 96,43 %
28.07.2019 00:36 17,7 C 26,7 C 16,7 C 92 % 998,4 hPa 0,0 l/m 8,4 km/h (2 Bft) SO 128 0 min 0,000 mm 0,0 UV-I 0 W/m 16,4 C 16,8 C 11,3 km/h (2 Bft) 97,87 %
28.07.2019 00:38 17,7 C 26,7 C 16,7 C 92 % 998,3 hPa 0,0 l/m 5,9 km/h (2 Bft) O-SO 122 0 min 0,000 mm 0,0 UV-I 0 W/m 16,4 C 17,7 C 8,0 km/h (2 Bft) 95,74 %
28.07.2019 00:40 17,7 C 26,7 C 16,7 C 92 % 998,3 hPa 0,0 l/m 6,2 km/h (2 Bft) O 100 0 min 0,000 mm 0,0 UV-I 0 W/m 16,4 C 17,7 C 12,9 km/h (3 Bft) 97,56 %
28.07.2019 00:42 17,7 C 26,7 C 16,7 C 92 % 998,2 hPa 0,0 l/m 7,2 km/h (2 Bft) O 79 0 min 0,000 mm 0,0 UV-I 0 W/m 16,4 C 17,3 C 12,9 km/h (3 Bft) 98,11 %
28.07.2019 00:44 17,6 C 26,7 C 16,7 C 92 % 998,1 hPa 0,0 l/m 8,8 km/h (2 Bft) O-NO 74 0 min 0,000 mm 0,0 UV-I 0 W/m 16,3 C 16,5 C 12,9 km/h (3 Bft) 97,73 %
28.07.2019 00:46 17,6 C 26,7 C 16,7 C 92 % 998,1 hPa 0,0 l/m 7,7 km/h (2 Bft) O-NO 71 0 min 0,000 mm 0,0 UV-I 0 W/m 16,3 C 17,0 C 11,3 km/h (2 Bft) 98,00 %
28.07.2019 00:48 17,5 C 26,7 C 16,7 C 92 % 998,2 hPa 0,0 l/m 8,7 km/h (2 Bft) O 84 0 min 0,000 mm 0,0 UV-I 0 W/m 16,2 C 16,4 C 12,9 km/h (3 Bft) 97,56 %
28.07.2019 00:50 17,4 C 26,7 C 16,7 C 93 % 998,2 hPa 0,0 l/m 8,4 km/h (2 Bft) O 88 0 min 0,000 mm 0,0 UV-I 0 W/m 16,3 C 16,4 C 11,3 km/h (2 Bft) 97,92 %
28.07.2019 00:52 17,4 C 26,7 C 16,7 C 93 % 998,2 hPa 0,0 l/m 6,3 km/h (2 Bft) O 96 0 min 0,000 mm 0,0 UV-I 0 W/m 16,3 C 17,4 C 11,3 km/h (2 Bft) 98,00 %
28.07.2019 00:54 17,4 C 26,7 C 16,7 C 93 % 998,2 hPa 0,0 l/m 6,6 km/h (2 Bft) O 92 0 min 0,000 mm 0,0 UV-I 0 W/m 16,3 C 17,3 C 11,3 km/h (2 Bft) 95,74 %
28.07.2019 00:56 17,4 C 26,7 C 16,7 C 93 % 998,3 hPa 0,0 l/m 3,8 km/h (1 Bft) O 96 0 min 0,000 mm 0,0 UV-I 0 W/m 16,3 C 17,4 C 8,0 km/h (2 Bft) 95,74 %
28.07.2019 00:58 17,3 C 26,7 C 16,7 C 93 % 998,3 hPa 0,0 l/m 4,5 km/h (1 Bft) O 99 0 min 0,000 mm 0,0 UV-I 0 W/m 16,2 C 17,3 C 9,7 km/h (2 Bft) 98,00 %
28.07.2019 01:00 17,3 C 26,7 C 16,1 C 93 % 998,3 hPa 0,0 l/m 5,9 km/h (2 Bft) O 89 0 min 0,000 mm 0,0 UV-I 0 W/m 16,2 C 17,3 C 9,7 km/h (2 Bft) 97,37 %
28.07.2019 01:02 17,4 C 26,7 C 16,1 C 93 % 998,3 hPa 0,0 l/m 6,4 km/h (2 Bft) O-SO 105 0 min 0,000 mm 0,0 UV-I 0 W/m 16,3 C 17,4 C 11,3 km/h (2 Bft) 98,00 %
28.07.2019 01:04 17,3 C 26,7 C 16,7 C 93 % 998,2 hPa 0,0 l/m 6,0 km/h (2 Bft) O 97 0 min 0,000 mm 0,0 UV-I 0 W/m 16,2 C 17,3 C 9,7 km/h (2 Bft) 100,00 %
28.07.2019 01:06 17,3 C 26,7 C 16,1 C 93 % 998,2 hPa 0,0 l/m 5,9 km/h (2 Bft) O-NO 77 0 min 0,000 mm 0,0 UV-I 0 W/m 16,2 C 17,3 C 9,7 km/h (2 Bft) 97,87 %
28.07.2019 01:08 17,3 C 26,7 C 16,7 C 93 % 998,2 hPa 0,0 l/m 6,0 km/h (2 Bft) O 88 0 min 0,000 mm 0,0 UV-I 0 W/m 16,2 C 17,3 C 9,7 km/h (2 Bft) 97,87 %
28.07.2019 01:10 17,3 C 26,7 C 16,7 C 93 % 998,1 hPa 0,0 l/m 4,6 km/h (1 Bft) O-NO 76 0 min 0,000 mm 0,0 UV-I 0 W/m 16,2 C 17,3 C 6,4 km/h (2 Bft) 100,00 %
28.07.2019 01:12 17,2 C 26,7 C 16,1 C 93 % 998,0 hPa 0,0 l/m 4,3 km/h (1 Bft) NO 48 0 min 0,000 mm 0,0 UV-I 0 W/m 16,1 C 17,2 C 4,8 km/h (1 Bft) 100,00 %
28.07.2019 01:14 17,0 C 26,7 C 16,1 C 93 % 998,0 hPa 0,0 l/m 4,7 km/h (1 Bft) NO 50 0 min 0,000 mm 0,0 UV-I 0 W/m 15,9 C 17,0 C 6,4 km/h (2 Bft) 100,00 %
28.07.2019 01:16 16,9 C 26,7 C 16,1 C 93 % 998,0 hPa 0,0 l/m 4,7 km/h (1 Bft) NO 53 0 min 0,000 mm 0,0 UV-I 0 W/m 15,8 C 16,9 C 6,4 km/h (2 Bft) 97,56 %
28.07.2019 01:18 16,9 C 26,7 C 16,1 C 93 % 998,0 hPa 0,0 l/m 3,4 km/h (1 Bft) NO 53 0 min 0,000 mm 0,0 UV-I 0 W/m 15,8 C 16,9 C 4,8 km/h (1 Bft) 100,00 %
28.07.2019 01:20 16,9 C 26,7 C 15,6 C 94 % 997,9 hPa 0,0 l/m 0,8 km/h (0 Bft) NO 53 0 min 0,000 mm 0,0 UV-I 0 W/m 15,9 C 16,9 C 1,6 km/h (1 Bft) 100,00 %
28.07.2019 01:22 17,0 C 26,7 C 15,6 C 94 % 997,8 hPa 0,0 l/m 2,5 km/h (1 Bft) O-NO 62 0 min 0,000 mm 0,0 UV-I 0 W/m 16,0 C 17,0 C 4,8 km/h (1 Bft) 97,37 %
28.07.2019 01:24 16,9 C 26,7 C 15,6 C 94 % 997,8 hPa 0,0 l/m 2,6 km/h (1 Bft) O-NO 62 0 min 0,000 mm 0,0 UV-I 0 W/m 15,9 C 16,9 C 4,8 km/h (1 Bft) 100,00 %
28.07.2019 01:26 16,8 C 26,7 C 15,6 C 93 % 997,8 hPa 0,0 l/m 3,4 km/h (1 Bft) O-NO 62 0 min 0,000 mm 0,0 UV-I 0 W/m 15,7 C 16,8 C 4,8 km/h (1 Bft) 98,21 %
28.07.2019 01:28 16,8 C 26,7 C 15,6 C 94 % 997,8 hPa 0,0 l/m 3,5 km/h (1 Bft) O-NO 62 0 min 0,000 mm 0,0 UV-I 0 W/m 15,8 C 16,8 C 4,8 km/h (1 Bft) 97,56 %
28.07.2019 01:30 16,7 C 26,7 C 15,6 C 94 % 997,8 hPa 0,0 l/m 3,2 km/h (1 Bft) O-NO 62 0 min 0,000 mm 0,0 UV-I 0 W/m 15,7 C 16,7 C 4,8 km/h (1 Bft) 98,00 %
28.07.2019 01:32 16,7 C 26,7 C 15,6 C 94 % 997,6 hPa 0,0 l/m 3,2 km/h (1 Bft) O-NO 62 0 min 0,000 mm 0,0 UV-I 0 W/m 15,7 C 16,7 C 4,8 km/h (1 Bft) 97,87 %
28.07.2019 01:34 16,6 C 26,7 C 15,6 C 94 % 997,6 hPa 0,0 l/m 4,9 km/h (1 Bft) NO 41 0 min 0,000 mm 0,0 UV-I 0 W/m 15,6 C 16,6 C 6,4 km/h (2 Bft) 94,44 %
28.07.2019 01:36 16,6 C 26,7 C 15,6 C 94 % 997,7 hPa 0,0 l/m 6,3 km/h (2 Bft) NO 44 0 min 0,000 mm 0,0 UV-I 0 W/m 15,6 C 16,6 C 9,7 km/h (2 Bft) 96,23 %
28.07.2019 01:38 16,6 C 26,7 C 16,1 C 94 % 997,7 hPa 0,0 l/m 8,5 km/h (2 Bft) NO 42 0 min 0,000 mm 0,0 UV-I 0 W/m 15,6 C 15,5 C 11,3 km/h (2 Bft) 92,00 %
28.07.2019 01:40 16,6 C 26,7 C 16,1 C 94 % 997,6 hPa 0,0 l/m 7,4 km/h (2 Bft) NO 46 0 min 0,000 mm 0,0 UV-I 0 W/m 15,6 C 16,1 C 9,7 km/h (2 Bft) 95,12 %
28.07.2019 01:42 16,6 C 26,7 C 16,1 C 94 % 997,6 hPa 0,0 l/m 7,9 km/h (2 Bft) NO 44 0 min 0,000 mm 0,0 UV-I 0 W/m 15,6 C 15,8 C 9,7 km/h (2 Bft) 96,00 %
28.07.2019 01:44 16,6 C 26,7 C 16,1 C 94 % 997,6 hPa 0,0 l/m 8,1 km/h (2 Bft) NO 46 0 min 0,000 mm 0,0 UV-I 0 W/m 15,6 C 15,7 C 9,7 km/h (2 Bft) 92,68 %
28.07.2019 01:46 16,7 C 26,7 C 16,7 C 95 % 997,7 hPa 0,0 l/m 7,6 km/h (2 Bft) NO 44 0 min 0,000 mm 0,0 UV-I 0 W/m 15,9 C 16,1 C 9,7 km/h (2 Bft) 96,00 %
28.07.2019 01:48 16,7 C 26,7 C 16,7 C 95 % 997,6 hPa 0,0 l/m 6,8 km/h (2 Bft) NO 56 0 min 0,000 mm 0,0 UV-I 0 W/m 15,9 C 16,5 C 11,3 km/h (2 Bft) 97,87 %
28.07.2019 01:50 16,8 C 26,7 C 16,7 C 95 % 997,6 hPa 0,0 l/m 8,2 km/h (2 Bft) NO 41 0 min 0,000 mm 0,0 UV-I 0 W/m 16,0 C 15,9 C 11,3 km/h (2 Bft) 91,49 %
28.07.2019 01:52 16,9 C 26,7 C 17,2 C 95 % 997,6 hPa 0,0 l/m 6,8 km/h (2 Bft) O-NO 78 0 min 0,000 mm 0,0 UV-I 0 W/m 16,1 C 16,7 C 11,3 km/h (2 Bft) 96,23 %
28.07.2019 01:54 17,0 C 26,7 C 17,2 C 95 % 997,6 hPa 0,0 l/m 6,0 km/h (2 Bft) O-NO 71 0 min 0,000 mm 0,0 UV-I 0 W/m 16,2 C 17,0 C 11,3 km/h (2 Bft) 95,12 %
28.07.2019 01:56 17,1 C 26,7 C 17,2 C 95 % 997,7 hPa 0,0 l/m 6,0 km/h (2 Bft) O 83 0 min 0,000 mm 0,0 UV-I 0 W/m 16,3 C 17,1 C 8,0 km/h (2 Bft) 97,56 %
28.07.2019 01:58 17,1 C 26,7 C 17,2 C 95 % 997,7 hPa 0,0 l/m 5,1 km/h (1 Bft) O 89 0 min 0,000 mm 0,0 UV-I 0 W/m 16,3 C 17,1 C 9,7 km/h (2 Bft) 98,18 %
28.07.2019 02:00 17,2 C 26,7 C 17,2 C 95 % 997,7 hPa 0,0 l/m 4,2 km/h (1 Bft) O-NO 78 0 min 0,000 mm 0,0 UV-I 0 W/m 16,4 C 17,2 C 4,8 km/h (1 Bft) 97,56 %
28.07.2019 02:02 17,2 C 26,7 C 17,2 C 95 % 997,7 hPa 0,0 l/m 3,7 km/h (1 Bft) O-SO 105 0 min 0,000 mm 0,0 UV-I 0 W/m 16,4 C 17,2 C 6,4 km/h (2 Bft) 98,31 %
28.07.2019 02:04 17,2 C 26,7 C 17,2 C 95 % 997,6 hPa 0,0 l/m 3,9 km/h (1 Bft) O 99 0 min 0,000 mm 0,0 UV-I 0 W/m 16,4 C 17,2 C 6,4 km/h (2 Bft) 97,22 %
28.07.2019 02:06 17,2 C 26,7 C 17,2 C 95 % 997,6 hPa 0,0 l/m 3,8 km/h (1 Bft) O 96 0 min 0,000 mm 0,0 UV-I 0 W/m 16,4 C 17,2 C 6,4 km/h (2 Bft) 98,08 %
28.07.2019 02:08 17,3 C 26,7 C 17,2 C 95 % 997,5 hPa 0,0 l/m 4,8 km/h (1 Bft) O-NO 74 0 min 0,000 mm 0,0 UV-I 0 W/m 16,5 C 17,3 C 8,0 km/h (2 Bft) 97,44 %
28.07.2019 02:10 17,3 C 26,7 C 17,2 C 94 % 997,5 hPa 0,0 l/m 4,2 km/h (1 Bft) O 83 0 min 0,000 mm 0,0 UV-I 0 W/m 16,3 C 17,3 C 6,4 km/h (2 Bft) 98,00 %
28.07.2019 02:12 17,3 C 26,7 C 17,2 C 94 % 997,5 hPa 0,0 l/m 5,5 km/h (1 Bft) O 81 0 min 0,000 mm 0,0 UV-I 0 W/m 16,3 C 17,3 C 6,4 km/h (2 Bft) 96,23 %
28.07.2019 02:14 17,2 C 26,7 C 17,2 C 94 % 997,5 hPa 0,0 l/m 3,8 km/h (1 Bft) O-NO 74 0 min 0,000 mm 0,0 UV-I 0 W/m 16,2 C 17,2 C 6,4 km/h (2 Bft) 97,73 %
28.07.2019 02:16 17,3 C 26,7 C 17,2 C 94 % 997,5 hPa 0,0 l/m 5,2 km/h (1 Bft) O-NO 71 0 min 0,000 mm 0,0 UV-I 0 W/m 16,3 C 17,3 C 9,7 km/h (2 Bft) 98,11 %
28.07.2019 02:18 17,3 C 26,7 C 17,2 C 94 % 997,5 hPa 0,0 l/m 6,2 km/h (2 Bft) O-SO 102 0 min 0,000 mm 0,0 UV-I 0 W/m 16,3 C 17,3 C 11,3 km/h (2 Bft) 97,87 %
28.07.2019 02:20 17,3 C 26,7 C 17,2 C 94 % 997,5 hPa 0,0 l/m 7,0 km/h (2 Bft) O-NO 68 0 min 0,000 mm 0,0 UV-I 0 W/m 16,3 C 17,0 C 11,3 km/h (2 Bft) 97,37 %
28.07.2019 02:22 17,3 C 26,7 C 17,2 C 94 % 997,5 hPa 0,0 l/m 4,9 km/h (1 Bft) NO 52 0 min 0,000 mm 0,0 UV-I 0 W/m 16,3 C 17,3 C 8,0 km/h (2 Bft) 98,11 %
28.07.2019 02:24 17,3 C 26,7 C 17,8 C 94 % 997,4 hPa 0,0 l/m 8,5 km/h (2 Bft) O-NO 69 0 min 0,000 mm 0,0 UV-I 0 W/m 16,3 C 16,3 C 14,5 km/h (3 Bft) 97,87 %
28.07.2019 02:26 17,3 C 26,7 C 17,8 C 94 % 997,4 hPa 0,0 l/m 6,2 km/h (2 Bft) O-NO 78 0 min 0,000 mm 0,0 UV-I 0 W/m 16,3 C 17,3 C 9,7 km/h (2 Bft) 95,74 %
28.07.2019 02:28 17,3 C 26,7 C 17,8 C 94 % 997,3 hPa 0,0 l/m 8,5 km/h (2 Bft) O-NO 72 0 min 0,000 mm 0,0 UV-I 0 W/m 16,3 C 16,3 C 14,5 km/h (3 Bft) 94,74 %
28.07.2019 02:30 17,3 C 26,7 C 17,8 C 94 % 997,3 hPa 0,0 l/m 7,9 km/h (2 Bft) N-NO 33 0 min 0,000 mm 0,0 UV-I 0 W/m 16,3 C 16,6 C 14,5 km/h (3 Bft) 92,00 %
28.07.2019 02:32 17,4 C 26,1 C 17,8 C 94 % 997,3 hPa 0,0 l/m 10,5 km/h (2 Bft) NO 46 0 min 0,000 mm 0,0 UV-I 0 W/m 16,4 C 15,6 C 16,1 km/h (3 Bft) 95,74 %
28.07.2019 02:34 17,4 C 26,7 C 17,8 C 94 % 997,3 hPa 0,0 l/m 6,0 km/h (2 Bft) NO 55 0 min 0,000 mm 0,0 UV-I 0 W/m 16,4 C 17,4 C 9,7 km/h (2 Bft) 96,00 %
28.07.2019 02:36 17,4 C 26,7 C 17,8 C 94 % 997,3 hPa 0,0 l/m 5,9 km/h (2 Bft) NO 47 0 min 0,000 mm 0,0 UV-I 0 W/m 16,4 C 17,4 C 9,7 km/h (2 Bft) 96,00 %
28.07.2019 02:38 17,4 C 26,1 C 17,8 C 94 % 997,3 hPa 0,0 l/m 10,1 km/h (2 Bft) O 96 0 min 0,000 mm 0,0 UV-I 0 W/m 16,4 C 15,7 C 19,3 km/h (3 Bft) 97,14 %
28.07.2019 02:40 17,4 C 26,1 C 17,8 C 94 % 997,3 hPa 0,0 l/m 7,6 km/h (2 Bft) O-NO 59 0 min 0,000 mm 0,0 UV-I 0 W/m 16,4 C 16,8 C 11,3 km/h (2 Bft) 97,62 %
28.07.2019 02:42 17,5 C 26,1 C 17,8 C 94 % 997,4 hPa 0,0 l/m 11,4 km/h (2 Bft) O 90 0 min 0,000 mm 0,0 UV-I 0 W/m 16,5 C 15,4 C 16,1 km/h (3 Bft) 96,55 %
28.07.2019 02:44 17,5 C 26,1 C 17,8 C 94 % 997,4 hPa 0,0 l/m 10,0 km/h (2 Bft) O-NO 59 0 min 0,000 mm 0,0 UV-I 0 W/m 16,5 C 15,9 C 14,5 km/h (3 Bft) 98,11 %
28.07.2019 02:46 17,5 C 26,1 C 17,8 C 94 % 997,4 hPa 0,0 l/m 9,0 km/h (2 Bft) O 88 0 min 0,000 mm 0,0 UV-I 0 W/m 16,5 C 16,3 C 16,1 km/h (3 Bft) 97,44 %
28.07.2019 02:48 17,5 C 26,1 C 17,8 C 94 % 997,4 hPa 0,0 l/m 7,1 km/h (2 Bft) O-SO 104 0 min 0,000 mm 0,0 UV-I 0 W/m 16,5 C 17,2 C 12,9 km/h (3 Bft) 98,00 %
28.07.2019 02:50 17,5 C 26,1 C 17,8 C 94 % 997,4 hPa 0,0 l/m 5,9 km/h (2 Bft) O 99 0 min 0,000 mm 0,0 UV-I 0 W/m 16,5 C 17,5 C 9,7 km/h (2 Bft) 98,00 %
28.07.2019 02:52 17,6 C 26,1 C 17,8 C 94 % 997,4 hPa 0,0 l/m 6,5 km/h (2 Bft) O-NO 65 0 min 0,000 mm 0,0 UV-I 0 W/m 16,6 C 17,6 C 11,3 km/h (2 Bft) 97,56 %
28.07.2019 02:54 17,6 C 26,1 C 17,8 C 93 % 997,4 hPa 0,0 l/m 6,5 km/h (2 Bft) O 94 0 min 0,000 mm 0,0 UV-I 0 W/m 16,5 C 17,6 C 11,3 km/h (2 Bft) 96,00 %
28.07.2019 02:56 17,6 C 26,1 C 17,8 C 93 % 997,4 hPa 0,0 l/m 7,9 km/h (2 Bft) O-SO 108 0 min 0,000 mm 0,0 UV-I 0 W/m 16,5 C 16,9 C 11,3 km/h (2 Bft) 95,12 %
28.07.2019 02:58 17,6 C 26,1 C 17,8 C 93 % 997,5 hPa 0,0 l/m 8,5 km/h (2 Bft) O 92 0 min 0,000 mm 0,0 UV-I 0 W/m 16,5 C 16,6 C 12,9 km/h (3 Bft) 96,23 %
28.07.2019 03:00 17,6 C 26,1 C 17,8 C 93 % 997,6 hPa 0,0 l/m 7,0 km/h (2 Bft) O 92 0 min 0,000 mm 0,0 UV-I 0 W/m 16,5 C 17,3 C 12,9 km/h (3 Bft) 98,00 %
28.07.2019 03:02 17,6 C 26,1 C 17,8 C 93 % 997,5 hPa 0,0 l/m 8,7 km/h (2 Bft) O-NO 60 0 min 0,000 mm 0,0 UV-I 0 W/m 16,5 C 16,5 C 12,9 km/h (3 Bft) 97,56 %
28.07.2019 03:04 17,6 C 26,1 C 17,8 C 93 % 997,5 hPa 0,0 l/m 8,3 km/h (2 Bft) O 94 0 min 0,000 mm 0,0 UV-I 0 W/m 16,5 C 16,7 C 12,9 km/h (3 Bft) 97,87 %
28.07.2019 03:06 17,6 C 26,1 C 18,3 C 93 % 997,5 hPa 0,0 l/m 6,3 km/h (2 Bft) O 101 0 min 0,000 mm 0,0 UV-I 0 W/m 16,5 C 17,6 C 12,9 km/h (3 Bft) 97,87 %
28.07.2019 03:08 17,6 C 26,1 C 18,3 C 93 % 997,6 hPa 0,0 l/m 7,9 km/h (2 Bft) O 92 0 min 0,000 mm 0,0 UV-I 0 W/m 16,5 C 16,9 C 11,3 km/h (2 Bft) 95,74 %
28.07.2019 03:10 17,6 C 26,1 C 18,3 C 93 % 997,6 hPa 0,0 l/m 7,8 km/h (2 Bft) O 91 0 min 0,000 mm 0,0 UV-I 0 W/m 16,5 C 16,9 C 12,9 km/h (3 Bft) 95,74 %
28.07.2019 03:12 17,6 C 26,1 C 18,3 C 93 % 997,6 hPa 0,0 l/m 7,6 km/h (2 Bft) O 92 0 min 0,000 mm 0,0 UV-I 0 W/m 16,5 C 17,0 C 12,9 km/h (3 Bft) 96,23 %
28.07.2019 03:14 17,6 C 26,1 C 18,3 C 93 % 997,6 hPa 0,0 l/m 5,7 km/h (1 Bft) O-NO 78 0 min 0,000 mm 0,0 UV-I 0 W/m 16,5 C 17,6 C 9,7 km/h (2 Bft) 97,87 %
28.07.2019 03:16 17,6 C 26,1 C 18,3 C 93 % 997,6 hPa 0,0 l/m 6,3 km/h (2 Bft) N-NO 33 0 min 0,000 mm 0,0 UV-I 0 W/m 16,5 C 17,6 C 11,3 km/h (2 Bft) 97,37 %
28.07.2019 03:18 17,6 C 26,1 C 18,3 C 93 % 997,6 hPa 0,0 l/m 8,3 km/h (2 Bft) O 96 0 min 0,000 mm 0,0 UV-I 0 W/m 16,5 C 16,7 C 14,5 km/h (3 Bft) 97,87 %
28.07.2019 03:20 17,6 C 26,1 C 18,3 C 93 % 997,6 hPa 0,0 l/m 6,4 km/h (2 Bft) O-NO 76 0 min 0,000 mm 0,0 UV-I 0 W/m 16,5 C 17,6 C 9,7 km/h (2 Bft) 100,00 %
28.07.2019 03:22 17,6 C 26,1 C 18,3 C 93 % 997,6 hPa 0,0 l/m 6,7 km/h (2 Bft) O-SO 111 0 min 0,000 mm 0,0 UV-I 0 W/m 16,5 C 17,5 C 11,3 km/h (2 Bft) 100,00 %
28.07.2019 03:24 17,7 C 26,1 C 18,3 C 93 % 997,7 hPa 0,0 l/m 6,2 km/h (2 Bft) O-NO 73 0 min 0,000 mm 0,0 UV-I 0 W/m 16,6 C 17,7 C 11,3 km/h (2 Bft) 100,00 %
28.07.2019 03:26 17,7 C 26,1 C 18,3 C 93 % 997,7 hPa 0,0 l/m 5,6 km/h (1 Bft) O 88 0 min 0,000 mm 0,0 UV-I 0 W/m 16,6 C 17,7 C 9,7 km/h (2 Bft) 100,00 %
28.07.2019 03:28 17,7 C 26,1 C 18,3 C 93 % 997,6 hPa 0,0 l/m 7,2 km/h (2 Bft) O 88 0 min 0,000 mm 0,0 UV-I 0 W/m 16,6 C 17,3 C 12,9 km/h (3 Bft) 100,00 %
28.07.2019 03:30 17,6 C 26,1 C 18,3 C 93 % 997,6 hPa 0,0 l/m 8,8 km/h (2 Bft) O 95 0 min 0,000 mm 0,0 UV-I 0 W/m 16,5 C 16,5 C 14,5 km/h (3 Bft) 98,39 %
28.07.2019 03:32 17,6 C 26,1 C 18,3 C 92 % 997,6 hPa 0,0 l/m 7,0 km/h (2 Bft) O 88 0 min 0,000 mm 0,0 UV-I 0 W/m 16,3 C 17,3 C 12,9 km/h (3 Bft) 100,00 %
28.07.2019 03:34 17,7 C 26,1 C 18,3 C 92 % 997,6 hPa 0,0 l/m 4,1 km/h (1 Bft) O-SO 112 0 min 0,000 mm 0,0 UV-I 0 W/m 16,4 C 17,7 C 9,7 km/h (2 Bft) 100,00 %
28.07.2019 03:36 17,7 C 26,1 C 18,3 C 92 % 997,7 hPa 0,0 l/m 9,1 km/h (2 Bft) O-SO 103 0 min 0,000 mm 0,0 UV-I 0 W/m 16,4 C 16,5 C 14,5 km/h (3 Bft) 95,74 %
28.07.2019 03:38 17,7 C 26,1 C 18,3 C 92 % 997,6 hPa 0,0 l/m 8,2 km/h (2 Bft) O 93 0 min 0,000 mm 0,0 UV-I 0 W/m 16,4 C 16,8 C 11,3 km/h (2 Bft) 98,11 %
28.07.2019 03:40 17,7 C 26,1 C 18,3 C 92 % 997,6 hPa 0,0 l/m 11,6 km/h (2 Bft) O 100 0 min 0,000 mm 0,0 UV-I 0 W/m 16,4 C 15,5 C 14,5 km/h (3 Bft) 96,55 %
28.07.2019 03:42 17,7 C 26,1 C 18,3 C 92 % 997,6 hPa 0,0 l/m 11,1 km/h (2 Bft) O-NO 78 0 min 0,000 mm 0,0 UV-I 0 W/m 16,4 C 15,7 C 14,5 km/h (3 Bft) 100,00 %
28.07.2019 03:44 17,7 C 26,1 C 18,3 C 92 % 997,6 hPa 0,0 l/m 9,9 km/h (2 Bft) O 88 0 min 0,000 mm 0,0 UV-I 0 W/m 16,4 C 16,1 C 14,5 km/h (3 Bft) 97,14 %
28.07.2019 03:46 17,7 C 26,1 C 18,3 C 92 % 997,6 hPa 0,0 l/m 6,0 km/h (2 Bft) O-SO 104 0 min 0,000 mm 0,0 UV-I 0 W/m 16,4 C 17,7 C 9,7 km/h (2 Bft) 100,00 %
28.07.2019 03:48 17,7 C 26,1 C 18,3 C 92 % 997,6 hPa 0,0 l/m 7,5 km/h (2 Bft) O 88 0 min 0,000 mm 0,0 UV-I 0 W/m 16,4 C 17,2 C 14,5 km/h (3 Bft) 100,00 %
28.07.2019 03:50 17,7 C 26,1 C 18,3 C 92 % 997,5 hPa 0,0 l/m 3,8 km/h (1 Bft) O 98 0 min 0,000 mm 0,0 UV-I 0 W/m 16,4 C 17,7 C 6,4 km/h (2 Bft) 97,87 %
28.07.2019 03:52 17,7 C 26,1 C 18,3 C 92 % 997,5 hPa 0,0 l/m 7,2 km/h (2 Bft) O 84 0 min 0,000 mm 0,0 UV-I 0 W/m 16,4 C 17,3 C 12,9 km/h (3 Bft) 100,00 %
28.07.2019 03:54 17,7 C 26,1 C 18,3 C 92 % 997,3 hPa 0,0 l/m 10,4 km/h (2 Bft) O-NO 69 0 min 0,000 mm 0,0 UV-I 0 W/m 16,4 C 15,9 C 16,1 km/h (3 Bft) 100,00 %
28.07.2019 03:56 17,7 C 26,1 C 18,3 C 92 % 997,3 hPa 0,0 l/m 8,7 km/h (2 Bft) O 88 0 min 0,000 mm 0,0 UV-I 0 W/m 16,4 C 16,6 C 12,9 km/h (3 Bft) 100,00 %
28.07.2019 03:58 17,7 C 26,1 C 17,8 C 92 % 997,3 hPa 0,0 l/m 8,0 km/h (2 Bft) O-NO 57 0 min 0,000 mm 0,0 UV-I 0 W/m 16,4 C 16,9 C 14,5 km/h (3 Bft) 100,00 %
28.07.2019 04:00 17,7 C 26,1 C 18,3 C 92 % 997,3 hPa 0,0 l/m 5,8 km/h (2 Bft) O-NO 71 0 min 0,000 mm 0,0 UV-I 0 W/m 16,4 C 17,7 C 9,7 km/h (2 Bft) 100,00 %
28.07.2019 04:02 17,7 C 26,1 C 18,3 C 92 % 997,2 hPa 0,0 l/m 5,6 km/h (1 Bft) O 92 0 min 0,000 mm 0,0 UV-I 0 W/m 16,4 C 17,7 C 6,4 km/h (2 Bft) 100,00 %
28.07.2019 04:04 17,7 C 26,1 C 18,3 C 92 % 997,3 hPa 0,0 l/m 7,8 km/h (2 Bft) NO 48 0 min 0,000 mm 0,0 UV-I 0 W/m 16,4 C 17,0 C 12,9 km/h (3 Bft) 100,00 %
28.07.2019 04:06 17,7 C 26,1 C 18,3 C 92 % 997,2 hPa 0,0 l/m 8,9 km/h (2 Bft) O-NO 69 0 min 0,000 mm 0,0 UV-I 0 W/m 16,4 C 16,5 C 14,5 km/h (3 Bft) 100,00 %
28.07.2019 04:08 17,7 C 26,1 C 17,8 C 92 % 997,2 hPa 0,0 l/m 9,8 km/h (2 Bft) O 80 0 min 0,000 mm 0,0 UV-I 0 W/m 16,4 C 16,2 C 16,1 km/h (3 Bft) 97,56 %
28.07.2019 04:10 17,7 C 26,1 C 17,8 C 92 % 997,2 hPa 0,0 l/m 11,3 km/h (2 Bft) O-SO 106 0 min 0,000 mm 0,0 UV-I 0 W/m 16,4 C 15,6 C 16,1 km/h (3 Bft) 100,00 %
28.07.2019 04:12 17,7 C 26,1 C 17,8 C 91 % 997,1 hPa 0,0 l/m 8,3 km/h (2 Bft) O-SO 103 0 min 0,000 mm 0,0 UV-I 0 W/m 16,2 C 16,8 C 17,7 km/h (3 Bft) 98,21 %
28.07.2019 04:14 17,7 C 26,1 C 17,8 C 91 % 997,1 hPa 0,0 l/m 9,5 km/h (2 Bft) O-NO 77 0 min 0,000 mm 0,0 UV-I 0 W/m 16,2 C 16,3 C 14,5 km/h (3 Bft) 100,00 %
28.07.2019 04:16 17,7 C 26,1 C 17,8 C 91 % 997,1 hPa 0,0 l/m 7,9 km/h (2 Bft) O 81 0 min 0,000 mm 0,0 UV-I 0 W/m 16,2 C 17,0 C 12,9 km/h (3 Bft) 100,00 %
28.07.2019 04:18 17,7 C 26,1 C 17,8 C 91 % 997,1 hPa 0,0 l/m 10,3 km/h (2 Bft) O 90 0 min 0,000 mm 0,0 UV-I 0 W/m 16,2 C 16,0 C 16,1 km/h (3 Bft) 100,00 %
28.07.2019 04:20 17,7 C 26,1 C 17,8 C 92 % 997,2 hPa 0,0 l/m 10,1 km/h (2 Bft) O-SO 103 0 min 0,000 mm 0,0 UV-I 0 W/m 16,4 C 16,1 C 14,5 km/h (3 Bft) 100,00 %
28.07.2019 04:22 17,7 C 26,1 C 18,3 C 92 % 997,2 hPa 0,0 l/m 10,9 km/h (2 Bft) O-NO 75 0 min 0,000 mm 0,0 UV-I 0 W/m 16,4 C 15,8 C 14,5 km/h (3 Bft) 100,00 %
28.07.2019 04:24 17,7 C 26,1 C 18,3 C 92 % 997,2 hPa 0,0 l/m 7,9 km/h (2 Bft) O-SO 111 0 min 0,000 mm 0,0 UV-I 0 W/m 16,4 C 17,0 C 12,9 km/h (3 Bft) 94,34 %
28.07.2019 04:26 17,7 C 26,1 C 18,3 C 92 % 997,2 hPa 0,0 l/m 5,4 km/h (1 Bft) O 92 0 min 0,000 mm 0,0 UV-I 0 W/m 16,4 C 17,7 C 9,7 km/h (2 Bft) 96,00 %
28.07.2019 04:28 17,7 C 26,1 C 18,3 C 91 % 997,2 hPa 0,0 l/m 8,4 km/h (2 Bft) O 100 0 min 0,000 mm 0,0 UV-I 0 W/m 16,2 C 16,8 C 11,3 km/h (2 Bft) 95,12 %
28.07.2019 04:30 17,7 C 26,1 C 18,3 C 91 % 997,2 hPa 0,0 l/m 4,8 km/h (1 Bft) O-NO 71 0 min 0,000 mm 0,0 UV-I 0 W/m 16,2 C 17,7 C 6,4 km/h (2 Bft) 93,62 %
28.07.2019 04:32 17,7 C 26,1 C 18,3 C 91 % 997,3 hPa 0,0 l/m 4,4 km/h (1 Bft) O-NO 57 0 min 0,000 mm 0,0 UV-I 0 W/m 16,2 C 17,7 C 8,0 km/h (2 Bft) 94,23 %
28.07.2019 04:34 17,7 C 26,1 C 18,3 C 91 % 997,3 hPa 0,0 l/m 8,8 km/h (2 Bft) O 89 0 min 0,000 mm 0,0 UV-I 0 W/m 16,2 C 16,6 C 12,9 km/h (3 Bft) 94,74 %
28.07.2019 04:36 17,7 C 26,1 C 18,3 C 91 % 997,3 hPa 0,0 l/m 6,6 km/h (2 Bft) O 101 0 min 0,000 mm 0,0 UV-I 0 W/m 16,2 C 17,6 C 11,3 km/h (2 Bft) 94,34 %
28.07.2019 04:38 17,7 C 26,1 C 18,3 C 91 % 997,2 hPa 0,0 l/m 5,5 km/h (1 Bft) O 92 0 min 0,000 mm 0,0 UV-I 0 W/m 16,2 C 17,7 C 9,7 km/h (2 Bft) 95,74 %
28.07.2019 04:40 17,7 C 26,1 C 18,3 C 91 % 997,3 hPa 0,0 l/m 5,3 km/h (1 Bft) SO 124 0 min 0,000 mm 0,0 UV-I 0 W/m 16,2 C 17,7 C 9,7 km/h (2 Bft) 95,83 %
28.07.2019 04:42 17,7 C 26,1 C 18,3 C 91 % 997,2 hPa 0,0 l/m 7,7 km/h (2 Bft) O 101 0 min 0,000 mm 0,0 UV-I 0 W/m 16,2 C 17,1 C 11,3 km/h (2 Bft) 93,85 %
28.07.2019 04:44 17,7 C 26,1 C 18,3 C 91 % 997,2 hPa 0,0 l/m 8,8 km/h (2 Bft) O 86 0 min 0,000 mm 0,0 UV-I 0 W/m 16,2 C 16,6 C 14,5 km/h (3 Bft) 96,00 %
28.07.2019 04:46 17,7 C 26,1 C 18,3 C 91 % 997,2 hPa 0,0 l/m 7,6 km/h (2 Bft) O-NO 78 0 min 0,000 mm 0,0 UV-I 0 W/m 16,2 C 17,1 C 12,9 km/h (3 Bft) 94,00 %
28.07.2019 04:48 17,7 C 26,1 C 18,3 C 91 % 997,2 hPa 0,0 l/m 9,9 km/h (2 Bft) O 98 0 min 0,000 mm 0,0 UV-I 0 W/m 16,2 C 16,1 C 14,5 km/h (3 Bft) 97,56 %
28.07.2019 04:50 17,7 C 26,1 C 18,3 C 91 % 997,2 hPa 0,0 l/m 9,0 km/h (2 Bft) O 86 0 min 0,000 mm 0,0 UV-I 0 W/m 16,2 C 16,5 C 14,5 km/h (3 Bft) 96,55 %
28.07.2019 04:52 17,7 C 26,1 C 18,3 C 91 % 997,3 hPa 0,0 l/m 7,5 km/h (2 Bft) O 83 0 min 0,000 mm 0,0 UV-I 0 W/m 16,2 C 17,2 C 11,3 km/h (2 Bft) 98,39 %
28.07.2019 04:54 17,7 C 26,1 C 18,3 C 91 % 997,2 hPa 0,0 l/m 8,6 km/h (2 Bft) O-NO 73 0 min 0,000 mm 0,0 UV-I 0 W/m 16,2 C 16,7 C 14,5 km/h (3 Bft) 97,87 %
28.07.2019 04:56 17,7 C 26,1 C 18,3 C 91 % 997,3 hPa 0,0 l/m 7,0 km/h (2 Bft) O-NO 73 0 min 0,000 mm 0,0 UV-I 0 W/m 16,2 C 17,4 C 11,3 km/h (2 Bft) 100,00 %
28.07.2019 04:58 17,7 C 26,1 C 18,3 C 91 % 997,2 hPa 0,0 l/m 5,2 km/h (1 Bft) O 93 0 min 0,000 mm 0,0 UV-I 0 W/m 16,2 C 17,7 C 8,0 km/h (2 Bft) 97,50 %
28.07.2019 05:00 17,7 C 26,1 C 18,3 C 91 % 997,3 hPa 0,0 l/m 5,4 km/h (1 Bft) O-SO 118 0 min 0,000 mm 0,0 UV-I 0 W/m 16,2 C 17,7 C 6,4 km/h (2 Bft) 98,21 %
28.07.2019 05:02 17,7 C 26,1 C 18,3 C 91 % 997,3 hPa 0,0 l/m 3,6 km/h (1 Bft) O 91 0 min 0,000 mm 0,0 UV-I 0 W/m 16,2 C 17,7 C 4,8 km/h (1 Bft) 100,00 %
28.07.2019 05:04 17,7 C 26,1 C 18,3 C 91 % 997,2 hPa 0,0 l/m 6,0 km/h (2 Bft) O-SO 108 0 min 0,000 mm 0,0 UV-I 0 W/m 16,2 C 17,7 C 9,7 km/h (2 Bft) 100,00 %
28.07.2019 05:06 17,7 C 26,1 C 18,3 C 91 % 997,2 hPa 0,0 l/m 5,6 km/h (1 Bft) O-SO 107 0 min 0,000 mm 0,0 UV-I 0 W/m 16,2 C 17,7 C 11,3 km/h (2 Bft) 100,00 %
28.07.2019 05:08 17,7 C 26,1 C 18,3 C 91 % 997,2 hPa 0,0 l/m 4,3 km/h (1 Bft) O 84 0 min 0,000 mm 0,0 UV-I 0 W/m 16,2 C 17,7 C 9,7 km/h (2 Bft) 100,00 %
28.07.2019 05:10 17,8 C 26,1 C 18,3 C 91 % 997,2 hPa 0,0 l/m 4,9 km/h (1 Bft) SO 141 0 min 0,000 mm 0,0 UV-I 0 W/m 16,3 C 17,8 C 6,4 km/h (2 Bft) 98,00 %
28.07.2019 05:12 17,8 C 26,1 C 18,3 C 91 % 997,2 hPa 0,0 l/m 3,4 km/h (1 Bft) O-NO 71 0 min 0,000 mm 0,0 UV-I 0 W/m 16,3 C 17,8 C 6,4 km/h (2 Bft) 100,00 %
28.07.2019 05:14 17,8 C 26,1 C 18,3 C 91 % 997,2 hPa 0,0 l/m 1,8 km/h (1 Bft) O-NO 72 0 min 0,000 mm 0,0 UV-I 0 W/m 16,3 C 17,8 C 3,2 km/h (1 Bft) 97,87 %
28.07.2019 05:16 17,8 C 26,1 C 18,3 C 91 % 997,2 hPa 0,0 l/m 2,2 km/h (1 Bft) O-NO 73 0 min 0,000 mm 0,0 UV-I 0 W/m 16,3 C 17,8 C 3,2 km/h (1 Bft) 100,00 %
28.07.2019 05:18 17,8 C 26,1 C 18,3 C 91 % 997,2 hPa 0,0 l/m 2,2 km/h (1 Bft) O-SO 113 0 min 0,000 mm 0,0 UV-I 0 W/m 16,3 C 17,8 C 4,8 km/h (1 Bft) 100,00 %
28.07.2019 05:20 17,8 C 26,1 C 18,3 C 91 % 997,1 hPa 0,0 l/m 2,6 km/h (1 Bft) O-SO 113 0 min 0,000 mm 0,0 UV-I 0 W/m 16,3 C 17,8 C 4,8 km/h (1 Bft) 95,74 %
28.07.2019 05:22 17,8 C 26,1 C 18,3 C 91 % 997,1 hPa 0,0 l/m 2,8 km/h (1 Bft) O-SO 109 0 min 0,000 mm 0,0 UV-I 0 W/m 16,3 C 17,8 C 4,8 km/h (1 Bft) 97,37 %
28.07.2019 05:24 17,8 C 26,1 C 18,3 C 91 % 997,1 hPa 0,0 l/m 2,6 km/h (1 Bft) O-SO 109 0 min 0,000 mm 0,0 UV-I 0 W/m 16,3 C 17,8 C 4,8 km/h (1 Bft) 96,23 %
28.07.2019 05:26 17,8 C 26,1 C 18,3 C 91 % 997,1 hPa 0,0 l/m 2,7 km/h (1 Bft) O-SO 109 0 min 0,000 mm 0,0 UV-I 0 W/m 16,3 C 17,8 C 4,8 km/h (1 Bft) 98,00 %
28.07.2019 05:28 17,7 C 26,1 C 18,3 C 91 % 997,1 hPa 0,0 l/m 2,7 km/h (1 Bft) O-SO 109 0 min 0,000 mm 0,0 UV-I 0 W/m 16,2 C 17,7 C 4,8 km/h (1 Bft) 97,87 %
28.07.2019 05:30 17,7 C 26,1 C 18,3 C 91 % 997,1 hPa 0,0 l/m 4,9 km/h (1 Bft) O 81 0 min 0,000 mm 0,0 UV-I 2 W/m 16,2 C 17,7 C 6,4 km/h (2 Bft) 98,11 %
28.07.2019 05:32 17,7 C 26,1 C 18,3 C 91 % 997,1 hPa 0,0 l/m 5,1 km/h (1 Bft) O 79 0 min 0,000 mm 0,0 UV-I 5 W/m 16,2 C 17,7 C 6,4 km/h (2 Bft) 97,56 %
28.07.2019 05:34 17,7 C 26,1 C 18,3 C 91 % 997,0 hPa 0,0 l/m 6,7 km/h (2 Bft) O-SO 113 0 min 0,000 mm 0,0 UV-I 5 W/m 16,2 C 17,6 C 11,3 km/h (2 Bft) 97,87 %
28.07.2019 05:36 17,7 C 26,1 C 18,3 C 91 % 997,0 hPa 0,0 l/m 4,0 km/h (1 Bft) O-SO 105 0 min 0,000 mm 0,0 UV-I 5 W/m 16,2 C 17,7 C 6,4 km/h (2 Bft) 98,11 %
28.07.2019 05:38 17,7 C 26,1 C 18,3 C 91 % 997,0 hPa 0,0 l/m 3,1 km/h (1 Bft) O-SO 104 0 min 0,000 mm 0,0 UV-I 5 W/m 16,2 C 17,7 C 4,8 km/h (1 Bft) 97,37 %
28.07.2019 05:40 17,7 C 26,1 C 18,3 C 91 % 996,9 hPa 0,0 l/m 1,3 km/h (1 Bft) O-SO 105 0 min 0,000 mm 0,0 UV-I 7 W/m 16,2 C 17,7 C 3,2 km/h (1 Bft) 92,68 %
28.07.2019 05:42 17,7 C 26,1 C 18,3 C 91 % 997,0 hPa 0,0 l/m 0,4 km/h (0 Bft) O-SO 105 0 min 0,000 mm 0,0 UV-I 7 W/m 16,2 C 17,7 C 1,6 km/h (1 Bft) 98,00 %
28.07.2019 05:44 17,8 C 26,1 C 18,3 C 91 % 996,9 hPa 0,0 l/m 0,2 km/h (0 Bft) O-SO 105 0 min 0,000 mm 0,0 UV-I 7 W/m 16,3 C 17,8 C 1,6 km/h (1 Bft) 94,00 %
28.07.2019 05:46 17,8 C 26,1 C 18,3 C 91 % 996,9 hPa 0,0 l/m 0,9 km/h (0 Bft) O-SO 105 0 min 0,000 mm 0,0 UV-I 9 W/m 16,3 C 17,8 C 3,2 km/h (1 Bft) 100,00 %
28.07.2019 05:48 17,8 C 26,1 C 18,3 C 91 % 997,0 hPa 0,0 l/m 3,3 km/h (1 Bft) O 97 0 min 0,000 mm 0,0 UV-I 9 W/m 16,3 C 17,8 C 4,8 km/h (1 Bft) 96,23 %
28.07.2019 05:50 17,8 C 26,1 C 18,3 C 91 % 997,0 hPa 0,0 l/m 4,7 km/h (1 Bft) O 98 0 min 0,000 mm 0,0 UV-I 10 W/m 16,3 C 17,8 C 6,4 km/h (2 Bft) 98,11 %
28.07.2019 05:52 17,8 C 26,1 C 18,3 C 91 % 997,1 hPa 0,0 l/m 5,0 km/h (1 Bft) O-SO 105 0 min 0,000 mm 0,0 UV-I 10 W/m 16,3 C 17,8 C 6,4 km/h (2 Bft) 94,44 %
28.07.2019 05:54 17,8 C 26,1 C 18,3 C 91 % 997,1 hPa 0,0 l/m 3,8 km/h (1 Bft) O-SO 119 0 min 0,000 mm 0,0 UV-I 9 W/m 16,3 C 17,8 C 6,4 km/h (2 Bft) 96,00 %
28.07.2019 05:56 17,9 C 26,1 C 18,3 C 91 % 997,1 hPa 0,0 l/m 3,1 km/h (1 Bft) SO 136 0 min 0,000 mm 0,0 UV-I 9 W/m 16,4 C 17,9 C 4,8 km/h (1 Bft) 94,00 %
28.07.2019 05:58 17,9 C 26,1 C 18,9 C 91 % 997,2 hPa 0,0 l/m 3,3 km/h (1 Bft) SO 139 0 min 0,000 mm 0,0 UV-I 9 W/m 16,4 C 17,9 C 4,8 km/h (1 Bft) 95,74 %
28.07.2019 06:00 17,9 C 26,1 C 18,9 C 90 % 997,2 hPa 0,0 l/m 2,6 km/h (1 Bft) S-SO 148 0 min 0,000 mm 0,0 UV-I 9 W/m 16,2 C 17,9 C 4,8 km/h (1 Bft) 96,00 %
28.07.2019 06:02 17,8 C 26,1 C 18,9 C 90 % 997,3 hPa 0,0 l/m 2,2 km/h (1 Bft) S-SO 149 0 min 0,000 mm 0,0 UV-I 9 W/m 16,1 C 17,8 C 3,2 km/h (1 Bft) 95,12 %
28.07.2019 06:04 17,9 C 26,1 C 18,9 C 90 % 997,3 hPa 0,0 l/m 2,9 km/h (1 Bft) S-SO 149 0 min 0,000 mm 0,0 UV-I 10 W/m 16,2 C 17,9 C 4,8 km/h (1 Bft) 94,00 %
28.07.2019 06:06 17,9 C 26,1 C 18,9 C 90 % 997,3 hPa 0,0 l/m 3,4 km/h (1 Bft) S-SO 150 0 min 0,000 mm 0,0 UV-I 11 W/m 16,2 C 17,9 C 4,8 km/h (1 Bft) 91,49 %
28.07.2019 06:08 17,9 C 26,1 C 18,9 C 90 % 997,3 hPa 0,0 l/m 2,4 km/h (1 Bft) S-SO 150 0 min 0,000 mm 0,0 UV-I 12 W/m 16,2 C 17,9 C 3,2 km/h (1 Bft) 92,68 %
28.07.2019 06:10 17,8 C 26,1 C 18,9 C 90 % 997,4 hPa 0,0 l/m 3,1 km/h (1 Bft) S-SO 150 0 min 0,000 mm 0,0 UV-I 14 W/m 16,1 C 17,8 C 4,8 km/h (1 Bft) 95,74 %
28.07.2019 06:12 17,8 C 26,1 C 18,9 C 90 % 997,4 hPa 0,0 l/m 4,4 km/h (1 Bft) S-SO 159 0 min 0,000 mm 0,0 UV-I 15 W/m 16,1 C 17,8 C 6,4 km/h (2 Bft) 98,00 %
28.07.2019 06:14 17,8 C 26,1 C 18,9 C 90 % 997,4 hPa 0,0 l/m 3,5 km/h (1 Bft) S-SO 160 0 min 0,000 mm 0,0 UV-I 16 W/m 16,1 C 17,8 C 6,4 km/h (2 Bft) 95,74 %
28.07.2019 06:16 17,8 C 26,1 C 18,9 C 90 % 997,3 hPa 0,0 l/m 1,9 km/h (1 Bft) SW 235 0 min 0,000 mm 0,0 UV-I 18 W/m 16,1 C 17,8 C 3,2 km/h (1 Bft) 96,23 %
28.07.2019 06:18 17,8 C 26,1 C 18,9 C 91 % 997,2 hPa 0,0 l/m 1,4 km/h (1 Bft) W-SW 243 0 min 0,000 mm 0,0 UV-I 19 W/m 16,3 C 17,8 C 3,2 km/h (1 Bft) 94,74 %
28.07.2019 06:20 17,8 C 26,1 C 18,9 C 90 % 997,2 hPa 0,0 l/m 2,6 km/h (1 Bft) SW 232 0 min 0,000 mm 0,0 UV-I 20 W/m 16,1 C 17,8 C 3,2 km/h (1 Bft) 93,62 %
28.07.2019 06:22 17,8 C 26,1 C 18,9 C 90 % 997,2 hPa 0,0 l/m 2,7 km/h (1 Bft) SW 232 0 min 0,000 mm 0,0 UV-I 22 W/m 16,1 C 17,8 C 4,8 km/h (1 Bft) 96,23 %
28.07.2019 06:24 17,8 C 26,1 C 18,9 C 90 % 997,2 hPa 0,0 l/m 2,7 km/h (1 Bft) SW 232 0 min 0,000 mm 0,0 UV-I 25 W/m 16,1 C 17,8 C 4,8 km/h (1 Bft) 95,74 %
28.07.2019 06:26 17,8 C 26,1 C 18,9 C 91 % 997,2 hPa 0,0 l/m 1,5 km/h (1 Bft) SW 232 0 min 0,000 mm 0,0 UV-I 25 W/m 16,3 C 17,8 C 3,2 km/h (1 Bft) 97,87 %
28.07.2019 06:28 17,9 C 26,1 C 18,9 C 91 % 997,2 hPa 0,0 l/m 1,8 km/h (1 Bft) SW 232 0 min 0,000 mm 0,0 UV-I 24 W/m 16,4 C 17,9 C 3,2 km/h (1 Bft) 96,00 %
28.07.2019 06:30 17,9 C 26,1 C 18,9 C 91 % 997,3 hPa 0,0 l/m 1,5 km/h (1 Bft) SW 232 0 min 0,000 mm 0,0 UV-I 22 W/m 16,4 C 17,9 C 3,2 km/h (1 Bft) 97,44 %
28.07.2019 06:32 17,9 C 26,1 C 18,9 C 91 % 997,3 hPa 0,0 l/m 1,9 km/h (1 Bft) SW 232 0 min 0,000 mm 0,0 UV-I 22 W/m 16,4 C 17,9 C 3,2 km/h (1 Bft) 95,92 %
28.07.2019 06:34 17,9 C 26,1 C 18,9 C 91 % 997,3 hPa 0,0 l/m 1,7 km/h (1 Bft) SW 232 0 min 0,000 mm 0,0 UV-I 23 W/m 16,4 C 17,9 C 3,2 km/h (1 Bft) 97,92 %
28.07.2019 06:36 17,9 C 26,1 C 18,9 C 91 % 997,3 hPa 0,0 l/m 1,8 km/h (1 Bft) SW 232 0 min 0,000 mm 0,0 UV-I 23 W/m 16,4 C 17,9 C 3,2 km/h (1 Bft) 97,37 %
28.07.2019 06:38 17,9 C 26,1 C 18,9 C 91 % 997,3 hPa 0,0 l/m 1,7 km/h (1 Bft) SW 232 0 min 0,000 mm 0,0 UV-I 23 W/m 16,4 C 17,9 C 3,2 km/h (1 Bft) 98,00 %
28.07.2019 06:40 17,9 C 26,1 C 18,9 C 91 % 997,3 hPa 0,0 l/m 0,6 km/h (0 Bft) SW 232 0 min 0,000 mm 0,0 UV-I 21 W/m 16,4 C 17,9 C 1,6 km/h (1 Bft) 97,87 %
28.07.2019 06:42 17,9 C 26,1 C 18,9 C 91 % 997,3 hPa 0,0 l/m 1,0 km/h (0 Bft) SW 232 0 min 0,000 mm 0,0 UV-I 21 W/m 16,4 C 17,9 C 1,6 km/h (1 Bft) 96,23 %
28.07.2019 06:44 18,0 C 26,1 C 18,9 C 90 % 997,3 hPa 0,0 l/m 2,2 km/h (1 Bft) SW 232 0 min 0,000 mm 0,0 UV-I 21 W/m 16,3 C 18,0 C 3,2 km/h (1 Bft) 97,87 %
28.07.2019 06:46 18,0 C 26,1 C 18,9 C 91 % 997,3 hPa 0,0 l/m 1,5 km/h (1 Bft) SW 232 0 min 0,000 mm 0,0 UV-I 23 W/m 16,5 C 18,0 C 3,2 km/h (1 Bft) 98,00 %
28.07.2019 06:48 17,9 C 26,1 C 18,9 C 90 % 997,3 hPa 0,0 l/m 0,9 km/h (0 Bft) SW 232 0 min 0,000 mm 0,0 UV-I 23 W/m 16,2 C 17,9 C 1,6 km/h (1 Bft) 97,56 %
28.07.2019 06:50 17,9 C 26,1 C 18,9 C 90 % 997,3 hPa 0,0 l/m 0,2 km/h (0 Bft) SW 232 0 min 0,000 mm 0,0 UV-I 25 W/m 16,2 C 17,9 C 1,6 km/h (1 Bft) 100,00 %
28.07.2019 06:52 17,9 C 26,1 C 18,9 C 90 % 997,3 hPa 0,0 l/m 1,2 km/h (1 Bft) SW 232 0 min 0,000 mm 0,0 UV-I 25 W/m 16,2 C 17,9 C 1,6 km/h (1 Bft) 100,00 %
28.07.2019 06:54 18,0 C 26,1 C 18,9 C 90 % 997,3 hPa 0,0 l/m 2,6 km/h (1 Bft) W-SW 240 0 min 0,000 mm 0,0 UV-I 27 W/m 16,3 C 18,0 C 4,8 km/h (1 Bft) 100,00 %
28.07.2019 06:56 18,0 C 26,1 C 18,9 C 90 % 997,3 hPa 0,0 l/m 1,7 km/h (1 Bft) W-SW 240 0 min 0,000 mm 0,0 UV-I 32 W/m 16,3 C 18,0 C 3,2 km/h (1 Bft) 100,00 %
28.07.2019 06:58 18,0 C 26,1 C 18,9 C 90 % 997,4 hPa 0,0 l/m 1,9 km/h (1 Bft) W-SW 240 0 min 0,000 mm 0,0 UV-I 38 W/m 16,3 C 18,0 C 3,2 km/h (1 Bft) 100,00 %
28.07.2019 07:00 17,9 C 26,1 C 19,4 C 90 % 997,4 hPa 0,0 l/m 2,5 km/h (1 Bft) S-SO 155 0 min 0,025 mm 0,0 UV-I 42 W/m 16,2 C 17,9 C 3,2 km/h (1 Bft) 100,00 %
28.07.2019 07:02 17,9 C 26,1 C 19,4 C 90 % 997,4 hPa 0,0 l/m 3,7 km/h (1 Bft) O-SO 115 0 min 0,000 mm 0,0 UV-I 50 W/m 16,2 C 17,9 C 4,8 km/h (1 Bft) 100,00 %
28.07.2019 07:04 17,9 C 26,1 C 19,4 C 90 % 997,4 hPa 0,0 l/m 4,0 km/h (1 Bft) O-SO 114 0 min 0,000 mm 0,0 UV-I 49 W/m 16,2 C 17,9 C 6,4 km/h (2 Bft) 100,00 %
28.07.2019 07:06 18,0 C 26,1 C 19,4 C 90 % 997,4 hPa 0,0 l/m 5,1 km/h (1 Bft) NO 53 0 min 0,000 mm 0,0 UV-I 67 W/m 16,3 C 18,0 C 6,4 km/h (2 Bft) 100,00 %
28.07.2019 07:08 18,0 C 26,1 C 19,4 C 90 % 997,4 hPa 0,0 l/m 4,9 km/h (1 Bft) O-NO 75 0 min 0,000 mm 0,0 UV-I 75 W/m 16,3 C 18,0 C 6,4 km/h (2 Bft) 100,00 %
28.07.2019 07:10 18,0 C 26,1 C 19,4 C 90 % 997,4 hPa 0,0 l/m 3,9 km/h (1 Bft) O-NO 78 0 min 0,000 mm 0,0 UV-I 73 W/m 16,3 C 18,0 C 6,4 km/h (2 Bft) 100,00 %
28.07.2019 07:12 18,1 C 26,1 C 20,0 C 90 % 997,4 hPa 0,0 l/m 3,5 km/h (1 Bft) SO 136 0 min 0,000 mm 0,0 UV-I 78 W/m 16,4 C 18,1 C 6,4 km/h (2 Bft) 98,11 %
28.07.2019 07:14 18,2 C 26,1 C 20,0 C 90 % 997,4 hPa 0,0 l/m 4,4 km/h (1 Bft) SO 140 0 min 0,000 mm 0,0 UV-I 83 W/m 16,5 C 18,2 C 6,4 km/h (2 Bft) 100,00 %
28.07.2019 07:16 18,3 C 26,1 C 20,6 C 90 % 997,4 hPa 0,0 l/m 4,5 km/h (1 Bft) SO 128 0 min 0,000 mm 0,0 UV-I 95 W/m 16,6 C 18,3 C 6,4 km/h (2 Bft) 100,00 %
28.07.2019 07:18 18,3 C 26,1 C 20,6 C 89 % 997,4 hPa 0,0 l/m 3,7 km/h (1 Bft) O-SO 114 0 min 0,000 mm 0,0 UV-I 105 W/m 16,5 C 18,3 C 6,4 km/h (2 Bft) 100,00 %
28.07.2019 07:20 18,3 C 26,1 C 20,6 C 89 % 997,3 hPa 0,0 l/m 4,2 km/h (1 Bft) SO 144 0 min 0,000 mm 0,0 UV-I 109 W/m 16,5 C 18,3 C 6,4 km/h (2 Bft) 97,87 %
28.07.2019 07:22 18,3 C 26,1 C 21,1 C 89 % 997,2 hPa 0,0 l/m 3,8 km/h (1 Bft) SO 144 0 min 0,000 mm 0,0 UV-I 125 W/m 16,5 C 18,3 C 4,8 km/h (1 Bft) 98,11 %
28.07.2019 07:24 18,3 C 26,1 C 21,1 C 89 % 997,2 hPa 0,0 l/m 1,8 km/h (1 Bft) SO 144 0 min 0,000 mm 0,0 UV-I 140 W/m 16,5 C 18,3 C 4,8 km/h (1 Bft) 97,37 %
28.07.2019 07:26 18,4 C 26,1 C 21,7 C 89 % 997,1 hPa 0,0 l/m 2,7 km/h (1 Bft) SO 144 0 min 0,000 mm 0,0 UV-I 143 W/m 16,6 C 18,4 C 4,8 km/h (1 Bft) 96,23 %
28.07.2019 07:28 18,4 C 26,1 C 21,7 C 89 % 997,1 hPa 0,0 l/m 3,8 km/h (1 Bft) O 100 0 min 0,000 mm 0,0 UV-I 124 W/m 16,6 C 18,4 C 6,4 km/h (2 Bft) 97,37 %
28.07.2019 07:30 18,4 C 26,1 C 21,7 C 89 % 997,1 hPa 0,0 l/m 2,9 km/h (1 Bft) O 100 0 min 0,000 mm 0,0 UV-I 93 W/m 16,6 C 18,4 C 4,8 km/h (1 Bft) 94,00 %
28.07.2019 07:32 18,4 C 26,1 C 21,1 C 88 % 997,1 hPa 0,0 l/m 3,1 km/h (1 Bft) O 100 0 min 0,000 mm 0,0 UV-I 76 W/m 16,4 C 18,4 C 4,8 km/h (1 Bft) 98,00 %
28.07.2019 07:34 18,4 C 26,1 C 21,1 C 88 % 997,1 hPa 0,0 l/m 2,7 km/h (1 Bft) O 100 0 min 0,000 mm 0,0 UV-I 74 W/m 16,4 C 18,4 C 3,2 km/h (1 Bft) 97,56 %
28.07.2019 07:36 18,3 C 26,1 C 21,1 C 88 % 997,1 hPa 0,0 l/m 2,9 km/h (1 Bft) O 100 0 min 0,000 mm 0,0 UV-I 81 W/m 16,3 C 18,3 C 4,8 km/h (1 Bft) 97,87 %
28.07.2019 07:38 18,3 C 26,1 C 20,6 C 89 % 997,1 hPa 0,0 l/m 4,2 km/h (1 Bft) N-NO 26 0 min 0,000 mm 0,0 UV-I 87 W/m 16,5 C 18,3 C 6,4 km/h (2 Bft) 97,87 %
28.07.2019 07:40 18,3 C 26,1 C 20,6 C 89 % 997,1 hPa 0,0 l/m 5,2 km/h (1 Bft) NO 49 0 min 0,000 mm 0,0 UV-I 73 W/m 16,5 C 18,3 C 11,3 km/h (2 Bft) 98,21 %
28.07.2019 07:42 18,4 C 26,1 C 20,6 C 89 % 997,2 hPa 0,0 l/m 4,7 km/h (1 Bft) O-NO 64 0 min 0,000 mm 0,0 UV-I 76 W/m 16,6 C 18,4 C 8,0 km/h (2 Bft) 97,56 %
28.07.2019 07:44 18,3 C 26,1 C 20,6 C 88 % 997,2 hPa 0,0 l/m 3,4 km/h (1 Bft) O 92 0 min 0,000 mm 0,0 UV-I 76 W/m 16,3 C 18,3 C 4,8 km/h (1 Bft) 98,00 %
28.07.2019 07:46 18,3 C 26,1 C 20,6 C 88 % 997,3 hPa 0,0 l/m 4,5 km/h (1 Bft) O 89 0 min 0,000 mm 0,0 UV-I 78 W/m 16,3 C 18,3 C 9,7 km/h (2 Bft) 97,22 %
28.07.2019 07:48 18,3 C 26,1 C 20,6 C 88 % 997,2 hPa 0,0 l/m 4,5 km/h (1 Bft) NO 49 0 min 0,000 mm 0,0 UV-I 104 W/m 16,3 C 18,3 C 8,0 km/h (2 Bft) 100,00 %
28.07.2019 07:50 18,3 C 26,1 C 20,6 C 88 % 997,2 hPa 0,0 l/m 9,1 km/h (2 Bft) O-NO 69 0 min 0,000 mm 0,0 UV-I 108 W/m 16,3 C 17,1 C 14,5 km/h (3 Bft) 98,18 %
28.07.2019 07:52 18,3 C 25,6 C 20,6 C 88 % 997,2 hPa 0,0 l/m 7,4 km/h (2 Bft) O-NO 65 0 min 0,000 mm 0,0 UV-I 114 W/m 16,3 C 17,8 C 11,3 km/h (2 Bft) 100,00 %
28.07.2019 07:54 18,3 C 26,1 C 20,6 C 88 % 997,2 hPa 0,0 l/m 7,0 km/h (2 Bft) NO 53 0 min 0,000 mm 0,0 UV-I 118 W/m 16,3 C 18,0 C 9,7 km/h (2 Bft) 98,21 %
28.07.2019 07:56 18,3 C 26,1 C 20,6 C 89 % 997,3 hPa 0,0 l/m 7,8 km/h (2 Bft) O-NO 62 0 min 0,000 mm 0,0 UV-I 110 W/m 16,5 C 17,7 C 12,9 km/h (3 Bft) 97,37 %
28.07.2019 07:58 18,3 C 26,1 C 20,6 C 89 % 997,3 hPa 0,0 l/m 11,2 km/h (2 Bft) NO 52 0 min 0,000 mm 0,0 UV-I 93 W/m 16,5 C 16,3 C 14,5 km/h (3 Bft) 100,00 %
28.07.2019 08:00 18,3 C 26,1 C 20,6 C 89 % 997,4 hPa 0,0 l/m 8,3 km/h (2 Bft) O-NO 66 0 min 0,051 mm 0,0 UV-I 88 W/m 16,5 C 17,4 C 11,3 km/h (2 Bft) 100,00 %
28.07.2019 08:02 18,2 C 26,1 C 20,0 C 88 % 997,4 hPa 0,0 l/m 12,7 km/h (3 Bft) O-NO 78 0 min 0,000 mm 0,0 UV-I 85 W/m 16,2 C 15,7 C 16,1 km/h (3 Bft) 100,00 %
28.07.2019 08:04 18,1 C 25,6 C 20,0 C 88 % 997,4 hPa 0,0 l/m 10,5 km/h (2 Bft) O-NO 71 0 min 0,000 mm 0,0 UV-I 85 W/m 16,1 C 16,4 C 16,1 km/h (3 Bft) 100,00 %
28.07.2019 08:06 17,9 C 25,6 C 20,0 C 88 % 997,4 hPa 0,0 l/m 13,1 km/h (3 Bft) O 79 0 min 0,000 mm 0,0 UV-I 78 W/m 15,9 C 15,3 C 17,7 km/h (3 Bft) 100,00 %
28.07.2019 08:08 17,8 C 25,6 C 19,4 C 88 % 997,3 hPa 0,0 l/m 12,5 km/h (3 Bft) O 93 0 min 0,000 mm 0,0 UV-I 76 W/m 15,8 C 15,3 C 16,1 km/h (3 Bft) 100,00 %
28.07.2019 08:10 17,8 C 25,6 C 19,4 C 89 % 997,3 hPa 0,0 l/m 9,9 km/h (2 Bft) O 88 0 min 0,000 mm 0,0 UV-I 76 W/m 16,0 C 16,2 C 12,9 km/h (3 Bft) 97,87 %
28.07.2019 08:12 17,8 C 25,6 C 19,4 C 89 % 997,3 hPa 0,0 l/m 10,5 km/h (2 Bft) O 100 0 min 0,000 mm 0,0 UV-I 76 W/m 16,0 C 16,0 C 16,1 km/h (3 Bft) 96,00 %
28.07.2019 08:14 17,7 C 25,6 C 19,4 C 89 % 997,2 hPa 0,0 l/m 9,7 km/h (2 Bft) O-NO 66 0 min 0,000 mm 0,0 UV-I 80 W/m 15,9 C 16,2 C 14,5 km/h (3 Bft) 97,56 %
28.07.2019 08:16 17,7 C 25,6 C 19,4 C 89 % 997,3 hPa 0,0 l/m 12,5 km/h (3 Bft) O 93 0 min 0,000 mm 0,0 UV-I 83 W/m 15,9 C 15,2 C 16,1 km/h (3 Bft) 97,73 %
28.07.2019 08:18 17,7 C 25,6 C 19,4 C 89 % 997,3 hPa 0,0 l/m 8,8 km/h (2 Bft) O 80 0 min 0,000 mm 0,0 UV-I 86 W/m 15,9 C 16,6 C 12,9 km/h (3 Bft) 96,23 %
28.07.2019 08:20 17,7 C 25,6 C 19,4 C 89 % 997,3 hPa 0,0 l/m 9,1 km/h (2 Bft) O-NO 74 0 min 0,000 mm 0,2 UV-I 104 W/m 15,9 C 16,5 C 14,5 km/h (3 Bft) 97,87 %
28.07.2019 08:22 17,7 C 25,6 C 20,0 C 89 % 997,3 hPa 0,0 l/m 8,2 km/h (2 Bft) O-NO 78 0 min 0,000 mm 0,5 UV-I 113 W/m 15,9 C 16,8 C 12,9 km/h (3 Bft) 97,87 %
28.07.2019 08:24 17,7 C 25,6 C 20,0 C 89 % 997,4 hPa 0,0 l/m 7,1 km/h (2 Bft) O-NO 74 0 min 0,000 mm 0,2 UV-I 114 W/m 15,9 C 17,4 C 11,3 km/h (2 Bft) 97,87 %
28.07.2019 08:26 17,7 C 25,6 C 20,0 C 89 % 997,3 hPa 0,0 l/m 6,7 km/h (2 Bft) O 99 0 min 0,000 mm 0,2 UV-I 118 W/m 15,9 C 17,6 C 9,7 km/h (2 Bft) 97,44 %
28.07.2019 08:28 17,8 C 25,6 C 20,6 C 89 % 997,4 hPa 0,0 l/m 5,9 km/h (2 Bft) O 85 0 min 0,000 mm 0,3 UV-I 116 W/m 16,0 C 17,8 C 12,9 km/h (3 Bft) 96,00 %
28.07.2019 08:30 17,8 C 25,6 C 20,6 C 90 % 997,3 hPa 0,0 l/m 5,1 km/h (1 Bft) NO 52 0 min 0,000 mm 0,1 UV-I 114 W/m 16,1 C 17,8 C 8,0 km/h (2 Bft) 98,11 %
28.07.2019 08:32 17,9 C 25,6 C 20,6 C 90 % 997,3 hPa 0,0 l/m 6,8 km/h (2 Bft) O-NO 65 0 min 0,000 mm 0,5 UV-I 139 W/m 16,2 C 17,7 C 12,9 km/h (3 Bft) 96,00 %
28.07.2019 08:34 18,0 C 25,6 C 21,1 C 90 % 997,3 hPa 0,0 l/m 6,6 km/h (2 Bft) O 82 0 min 0,000 mm 0,7 UV-I 174 W/m 16,3 C 17,9 C 12,9 km/h (3 Bft) 97,87 %
28.07.2019 08:36 18,1 C 25,6 C 21,1 C 89 % 997,2 hPa 0,0 l/m 5,6 km/h (1 Bft) O-NO 58 0 min 0,000 mm 0,8 UV-I 201 W/m 16,3 C 18,1 C 9,7 km/h (2 Bft) 95,74 %
28.07.2019 08:38 18,2 C 25,6 C 21,1 C 89 % 997,3 hPa 0,0 l/m 8,9 km/h (2 Bft) O 94 0 min 0,000 mm 0,7 UV-I 160 W/m 16,4 C 17,1 C 14,5 km/h (3 Bft) 97,56 %
28.07.2019 08:40 18,2 C 25,6 C 21,1 C 88 % 997,2 hPa 0,0 l/m 8,6 km/h (2 Bft) NO 45 0 min 0,000 mm 0,7 UV-I 155 W/m 16,2 C 17,2 C 12,9 km/h (3 Bft) 98,11 %
28.07.2019 08:42 18,2 C 25,6 C 21,7 C 88 % 997,3 hPa 0,0 l/m 6,7 km/h (2 Bft) O 87 0 min 0,000 mm 0,7 UV-I 173 W/m 16,2 C 18,1 C 12,9 km/h (3 Bft) 94,29 %
28.07.2019 08:44 18,3 C 25,6 C 22,2 C 88 % 997,2 hPa 0,0 l/m 5,8 km/h (2 Bft) O 98 0 min 0,000 mm 0,8 UV-I 191 W/m 16,3 C 18,3 C 8,0 km/h (2 Bft) 100,00 %
28.07.2019 08:46 18,3 C 25,6 C 22,2 C 88 % 997,3 hPa 0,0 l/m 4,9 km/h (1 Bft) O-SO 117 0 min 0,000 mm 0,7 UV-I 175 W/m 16,3 C 18,3 C 11,3 km/h (2 Bft) 100,00 %
28.07.2019 08:48 18,3 C 25,6 C 22,2 C 87 % 997,2 hPa 0,0 l/m 5,5 km/h (1 Bft) O 100 0 min 0,000 mm 0,7 UV-I 177 W/m 16,1 C 18,3 C 9,7 km/h (2 Bft) 100,00 %
28.07.2019 08:50 18,3 C 25,6 C 22,2 C 88 % 997,3 hPa 0,0 l/m 6,2 km/h (2 Bft) O 101 0 min 0,000 mm 0,9 UV-I 194 W/m 16,3 C 18,3 C 11,3 km/h (2 Bft) 100,00 %
28.07.2019 08:52 18,3 C 25,6 C 22,2 C 87 % 997,2 hPa 0,0 l/m 4,6 km/h (1 Bft) O-SO 118 0 min 0,000 mm 1,0 UV-I 203 W/m 16,1 C 18,3 C 11,3 km/h (2 Bft) 97,56 %
28.07.2019 08:54 18,4 C 25,6 C 22,8 C 87 % 997,2 hPa 0,0 l/m 6,3 km/h (2 Bft) SO 126 0 min 0,000 mm 1,0 UV-I 197 W/m 16,2 C 18,4 C 11,3 km/h (2 Bft) 97,73 %
28.07.2019 08:56 18,6 C 25,6 C 22,8 C 87 % 997,2 hPa 0,0 l/m 7,6 km/h (2 Bft) O-SO 106 0 min 0,000 mm 1,0 UV-I 179 W/m 16,4 C 18,1 C 11,3 km/h (2 Bft) 98,11 %
28.07.2019 08:58 18,5 C 25,6 C 22,2 C 86 % 997,3 hPa 0,0 l/m 6,3 km/h (2 Bft) O-NO 65 0 min 0,000 mm 1,0 UV-I 165 W/m 16,1 C 18,5 C 11,3 km/h (2 Bft) 97,87 %
28.07.2019 09:00 18,5 C 25,6 C 22,2 C 87 % 997,3 hPa 0,0 l/m 8,2 km/h (2 Bft) O-NO 78 0 min 0,076 mm 0,9 UV-I 163 W/m 16,3 C 17,7 C 14,5 km/h (3 Bft) 98,00 %
28.07.2019 09:02 18,4 C 25,6 C 22,2 C 86 % 997,3 hPa 0,0 l/m 8,7 km/h (2 Bft) O-SO 120 0 min 0,000 mm 1,0 UV-I 174 W/m 16,0 C 17,4 C 14,5 km/h (3 Bft) 97,92 %
28.07.2019 09:04 18,4 C 25,6 C 22,2 C 87 % 997,3 hPa 0,0 l/m 6,8 km/h (2 Bft) O 86 0 min 0,000 mm 1,0 UV-I 179 W/m 16,2 C 18,2 C 9,7 km/h (2 Bft) 97,37 %
28.07.2019 09:06 18,5 C 25,6 C 22,8 C 87 % 997,2 hPa 0,0 l/m 4,3 km/h (1 Bft) SO 130 0 min 0,000 mm 1,0 UV-I 181 W/m 16,3 C 18,5 C 6,4 km/h (2 Bft) 97,73 %
28.07.2019 09:08 18,5 C 25,6 C 22,2 C 86 % 997,3 hPa 0,0 l/m 6,6 km/h (2 Bft) O 86 0 min 0,000 mm 1,0 UV-I 185 W/m 16,1 C 18,4 C 12,9 km/h (3 Bft) 98,31 %
28.07.2019 09:10 18,4 C 25,6 C 22,2 C 86 % 997,2 hPa 0,0 l/m 7,8 km/h (2 Bft) O-SO 113 0 min 0,000 mm 1,0 UV-I 199 W/m 16,0 C 17,8 C 12,9 km/h (3 Bft) 95,45 %
28.07.2019 09:12 18,4 C 25,6 C 22,8 C 87 % 997,3 hPa 0,0 l/m 6,7 km/h (2 Bft) O 94 0 min 0,000 mm 1,1 UV-I 224 W/m 16,2 C 18,3 C 12,9 km/h (3 Bft) 96,00 %
28.07.2019 09:14 18,5 C 25,6 C 22,8 C 86 % 997,3 hPa 0,0 l/m 3,3 km/h (1 Bft) O-SO 108 0 min 0,000 mm 1,3 UV-I 264 W/m 16,1 C 18,5 C 6,4 km/h (2 Bft) 97,87 %
28.07.2019 09:16 18,6 C 25,6 C 23,3 C 87 % 997,3 hPa 0,0 l/m 4,6 km/h (1 Bft) O-SO 117 0 min 0,000 mm 1,4 UV-I 295 W/m 16,4 C 18,6 C 6,4 km/h (2 Bft) 97,37 %
28.07.2019 09:18 18,8 C 25,6 C 23,9 C 85 % 997,4 hPa 0,0 l/m 8,0 km/h (2 Bft) SO 135 2 min 0,000 mm 1,5 UV-I 319 W/m 16,2 C 18,1 C 14,5 km/h (3 Bft) 96,00 %
28.07.2019 09:20 18,8 C 25,6 C 24,4 C 85 % 997,4 hPa 0,0 l/m 4,0 km/h (1 Bft) SO 138 2 min 0,000 mm 1,5 UV-I 332 W/m 16,2 C 18,8 C 11,3 km/h (2 Bft) 98,00 %
28.07.2019 09:22 18,9 C 25,6 C 25,0 C 85 % 997,5 hPa 0,0 l/m 6,2 km/h (2 Bft) SO 134 2 min 0,000 mm 1,6 UV-I 327 W/m 16,3 C 18,9 C 11,3 km/h (2 Bft) 97,87 %
28.07.2019 09:24 19,1 C 25,6 C 25,0 C 85 % 997,4 hPa 0,0 l/m 10,4 km/h (2 Bft) SO 138 0 min 0,000 mm 1,5 UV-I 311 W/m 16,5 C 17,5 C 16,1 km/h (3 Bft) 98,00 %
28.07.2019 09:26 19,2 C 25,6 C 25,0 C 84 % 997,4 hPa 0,0 l/m 7,0 km/h (2 Bft) S 169 0 min 0,000 mm 1,6 UV-I 323 W/m 16,4 C 18,9 C 12,9 km/h (3 Bft) 97,37 %
28.07.2019 09:28 19,2 C 25,6 C 25,6 C 84 % 997,2 hPa 0,0 l/m 4,0 km/h (1 Bft) S-SO 161 2 min 0,000 mm 1,6 UV-I 335 W/m 16,4 C 19,2 C 6,4 km/h (2 Bft) 97,87 %
28.07.2019 09:30 19,2 C 25,6 C 25,6 C 84 % 997,3 hPa 0,0 l/m 4,3 km/h (1 Bft) O-SO 112 0 min 0,000 mm 1,6 UV-I 325 W/m 16,4 C 19,2 C 9,7 km/h (2 Bft) 98,11 %
28.07.2019 09:32 19,2 C 25,6 C 25,6 C 84 % 997,3 hPa 0,0 l/m 4,2 km/h (1 Bft) S 185 0 min 0,000 mm 1,5 UV-I 315 W/m 16,4 C 19,2 C 9,7 km/h (2 Bft) 98,00 %
28.07.2019 09:34 19,2 C 25,6 C 25,6 C 84 % 997,3 hPa 0,0 l/m 4,8 km/h (1 Bft) S-SW 207 0 min 0,000 mm 1,5 UV-I 304 W/m 16,4 C 19,2 C 8,0 km/h (2 Bft) 97,87 %
28.07.2019 09:36 19,2 C 25,6 C 25,6 C 84 % 997,3 hPa 0,0 l/m 2,3 km/h (1 Bft) S-SO 149 0 min 0,000 mm 1,5 UV-I 308 W/m 16,4 C 19,2 C 8,0 km/h (2 Bft) 97,56 %
28.07.2019 09:38 19,3 C 25,6 C 25,6 C 84 % 997,3 hPa 0,0 l/m 6,0 km/h (2 Bft) SO 136 0 min 0,000 mm 1,5 UV-I 298 W/m 16,5 C 19,3 C 14,5 km/h (3 Bft) 90,00 %
28.07.2019 09:40 19,4 C 25,6 C 25,6 C 84 % 997,4 hPa 0,0 l/m 11,4 km/h (2 Bft) O-SO 123 0 min 0,000 mm 1,4 UV-I 274 W/m 16,6 C 17,5 C 16,1 km/h (3 Bft) 97,62 %
28.07.2019 09:42 19,4 C 25,6 C 25,6 C 83 % 997,3 hPa 0,0 l/m 6,8 km/h (2 Bft) S 180 0 min 0,000 mm 1,4 UV-I 256 W/m 16,4 C 19,2 C 9,7 km/h (2 Bft) 97,37 %
28.07.2019 09:44 19,3 C 25,6 C 25,6 C 83 % 997,4 hPa 0,0 l/m 4,2 km/h (1 Bft) S-SW 192 0 min 0,000 mm 1,4 UV-I 250 W/m 16,3 C 19,3 C 6,4 km/h (2 Bft) 96,23 %
28.07.2019 09:46 19,2 C 25,6 C 25,0 C 84 % 997,4 hPa 0,0 l/m 4,1 km/h (1 Bft) S-SW 194 0 min 0,000 mm 1,3 UV-I 235 W/m 16,4 C 19,2 C 8,0 km/h (2 Bft) 97,87 %
28.07.2019 09:48 19,2 C 25,6 C 24,4 C 83 % 997,4 hPa 0,0 l/m 8,8 km/h (2 Bft) S-SO 162 0 min 0,000 mm 1,2 UV-I 192 W/m 16,2 C 18,2 C 14,5 km/h (3 Bft) 98,21 %
28.07.2019 09:50 19,2 C 25,6 C 23,9 C 83 % 997,5 hPa 0,0 l/m 8,7 km/h (2 Bft) S 175 0 min 0,000 mm 1,1 UV-I 187 W/m 16,2 C 18,2 C 12,9 km/h (3 Bft) 97,56 %
28.07.2019 09:52 19,2 C 25,6 C 23,9 C 83 % 997,5 hPa 0,0 l/m 9,3 km/h (2 Bft) S 188 0 min 0,000 mm 1,3 UV-I 232 W/m 16,2 C 18,0 C 12,9 km/h (3 Bft) 97,87 %
28.07.2019 09:54 19,3 C 25,6 C 24,4 C 84 % 997,5 hPa 0,0 l/m 6,0 km/h (2 Bft) S-SO 162 0 min 0,000 mm 1,4 UV-I 269 W/m 16,5 C 19,3 C 9,7 km/h (2 Bft) 97,87 %
28.07.2019 09:56 19,5 C 25,6 C 25,0 C 83 % 997,5 hPa 0,0 l/m 7,7 km/h (2 Bft) S-SO 152 0 min 0,000 mm 1,5 UV-I 282 W/m 16,5 C 18,9 C 12,9 km/h (3 Bft) 95,45 %
28.07.2019 09:58 19,6 C 25,6 C 25,0 C 83 % 997,5 hPa 0,0 l/m 5,0 km/h (1 Bft) S-SO 158 0 min 0,000 mm 1,5 UV-I 283 W/m 16,6 C 19,6 C 8,0 km/h (2 Bft) 97,87 %
28.07.2019 10:00 19,7 C 25,6 C 25,6 C 83 % 997,4 hPa 0,0 l/m 3,3 km/h (1 Bft) S 188 0 min 0,000 mm 1,5 UV-I 281 W/m 16,7 C 19,7 C 6,4 km/h (2 Bft) 96,00 %
28.07.2019 10:02 19,7 C 25,6 C 25,6 C 82 % 997,5 hPa 0,0 l/m 4,0 km/h (1 Bft) S 176 0 min 0,153 mm 1,6 UV-I 312 W/m 16,5 C 19,7 C 8,0 km/h (2 Bft) 94,34 %
28.07.2019 10:04 19,6 C 25,6 C 26,1 C 82 % 997,4 hPa 0,0 l/m 7,0 km/h (2 Bft) S 180 0 min 0,000 mm 1,7 UV-I 329 W/m 16,4 C 19,3 C 9,7 km/h (2 Bft) 97,37 %
28.07.2019 10:06 19,6 C 25,6 C 26,1 C 82 % 997,5 hPa 0,0 l/m 5,4 km/h (1 Bft) S-SO 163 0 min 0,000 mm 1,6 UV-I 298 W/m 16,4 C 19,6 C 8,0 km/h (2 Bft) 95,74 %
28.07.2019 10:08 19,5 C 25,6 C 25,6 C 82 % 997,5 hPa 0,0 l/m 8,2 km/h (2 Bft) S-SO 167 0 min 0,000 mm 1,4 UV-I 248 W/m 16,3 C 18,7 C 11,3 km/h (2 Bft) 95,12 %
28.07.2019 10:10 19,5 C 25,6 C 25,0 C 82 % 997,5 hPa 0,0 l/m 7,7 km/h (2 Bft) S 177 0 min 0,000 mm 1,3 UV-I 223 W/m 16,3 C 18,9 C 9,7 km/h (2 Bft) 94,34 %
28.07.2019 10:12 19,6 C 25,6 C 25,0 C 82 % 997,6 hPa 0,0 l/m 5,8 km/h (2 Bft) S 170 0 min 0,000 mm 1,2 UV-I 194 W/m 16,4 C 19,6 C 11,3 km/h (2 Bft) 92,45 %
28.07.2019 10:14 19,6 C 25,6 C 23,9 C 82 % 997,6 hPa 0,0 l/m 8,0 km/h (2 Bft) S 188 0 min 0,000 mm 1,1 UV-I 173 W/m 16,4 C 18,9 C 11,3 km/h (2 Bft) 95,45 %
28.07.2019 10:16 19,4 C 25,6 C 23,9 C 82 % 997,6 hPa 0,0 l/m 5,2 km/h (1 Bft) S 173 0 min 0,000 mm 1,1 UV-I 170 W/m 16,2 C 19,4 C 9,7 km/h (2 Bft) 95,24 %
28.07.2019 10:18 19,3 C 25,6 C 23,9 C 83 % 997,6 hPa 0,0 l/m 5,0 km/h (1 Bft) S 187 0 min 0,000 mm 1,1 UV-I 175 W/m 16,3 C 19,3 C 8,0 km/h (2 Bft) 96,36 %
28.07.2019 10:20 19,3 C 25,6 C 23,9 C 83 % 997,5 hPa 0,0 l/m 3,2 km/h (1 Bft) S 187 0 min 0,000 mm 1,2 UV-I 186 W/m 16,3 C 19,3 C 4,8 km/h (1 Bft) 94,87 %
28.07.2019 10:22 19,3 C 25,6 C 23,9 C 84 % 997,5 hPa 0,0 l/m 5,8 km/h (2 Bft) S 172 0 min 0,000 mm 1,3 UV-I 198 W/m 16,5 C 19,3 C 9,7 km/h (2 Bft) 94,34 %
28.07.2019 10:24 19,4 C 25,6 C 23,9 C 83 % 997,4 hPa 0,0 l/m 4,3 km/h (1 Bft) S-SO 165 0 min 0,000 mm 1,4 UV-I 215 W/m 16,4 C 19,4 C 6,4 km/h (2 Bft) 92,68 %
28.07.2019 10:26 19,4 C 25,6 C 24,4 C 82 % 997,4 hPa 0,0 l/m 5,2 km/h (1 Bft) S-SO 164 0 min 0,000 mm 1,5 UV-I 242 W/m 16,2 C 19,4 C 8,0 km/h (2 Bft) 91,49 %
28.07.2019 10:28 19,6 C 25,6 C 25,0 C 82 % 997,4 hPa 0,0 l/m 3,8 km/h (1 Bft) S 176 0 min 0,000 mm 1,8 UV-I 280 W/m 16,4 C 19,6 C 8,0 km/h (2 Bft) 94,34 %
28.07.2019 10:30 19,6 C 25,6 C 25,0 C 82 % 997,4 hPa 0,0 l/m 6,8 km/h (2 Bft) S-SW 196 0 min 0,000 mm 1,9 UV-I 289 W/m 16,4 C 19,4 C 9,7 km/h (2 Bft) 95,12 %
28.07.2019 10:32 19,7 C 25,6 C 25,0 C 82 % 997,4 hPa 0,0 l/m 3,3 km/h (1 Bft) S-SO 158 0 min 0,000 mm 1,7 UV-I 277 W/m 16,5 C 19,7 C 6,4 km/h (2 Bft) 93,62 %
28.07.2019 10:34 19,8 C 25,6 C 25,6 C 82 % 997,4 hPa 0,0 l/m 2,5 km/h (1 Bft) S 173 0 min 0,000 mm 1,8 UV-I 296 W/m 16,6 C 19,8 C 6,4 km/h (2 Bft) 94,00 %
28.07.2019 10:36 19,8 C 25,6 C 26,1 C 81 % 997,4 hPa 0,0 l/m 4,5 km/h (1 Bft) S 178 0 min 0,000 mm 2,1 UV-I 338 W/m 16,4 C 19,8 C 9,7 km/h (2 Bft) 97,87 %
28.07.2019 10:38 19,7 C 25,6 C 26,1 C 81 % 997,3 hPa 0,0 l/m 0,9 km/h (0 Bft) S 178 0 min 0,000 mm 2,4 UV-I 379 W/m 16,3 C 19,7 C 3,2 km/h (1 Bft) 97,56 %
28.07.2019 10:40 19,8 C 25,6 C 26,7 C 82 % 997,4 hPa 0,0 l/m 3,1 km/h (1 Bft) S 182 0 min 0,000 mm 2,5 UV-I 397 W/m 16,6 C 19,8 C 4,8 km/h (1 Bft) 98,21 %
28.07.2019 10:42 19,9 C 25,6 C 27,8 C 81 % 997,3 hPa 0,0 l/m 3,6 km/h (1 Bft) S-SW 209 2 min 0,000 mm 2,9 UV-I 475 W/m 16,5 C 19,9 C 4,8 km/h (1 Bft) 97,56 %
28.07.2019 10:44 20,1 C 25,6 C 28,3 C 82 % 997,3 hPa 0,0 l/m 6,4 km/h (2 Bft) S-SW 192 2 min 0,000 mm 3,0 UV-I 511 W/m 16,9 C 20,1 C 8,0 km/h (2 Bft) 98,00 %
28.07.2019 10:46 20,2 C 25,6 C 28,9 C 81 % 997,4 hPa 0,0 l/m 4,0 km/h (1 Bft) SW 217 2 min 0,000 mm 3,1 UV-I 504 W/m 16,8 C 20,2 C 8,0 km/h (2 Bft) 98,00 %
28.07.2019 10:48 20,2 C 25,6 C 29,4 C 80 % 997,4 hPa 0,0 l/m 1,5 km/h (1 Bft) SW 234 2 min 0,000 mm 3,2 UV-I 567 W/m 16,6 C 20,2 C 4,8 km/h (1 Bft) 90,24 %
28.07.2019 10:50 20,2 C 25,6 C 30,0 C 80 % 997,3 hPa 0,0 l/m 3,3 km/h (1 Bft) W-SW 255 2 min 0,000 mm 3,0 UV-I 461 W/m 16,6 C 20,2 C 4,8 km/h (1 Bft) 100,00 %
28.07.2019 10:52 20,3 C 25,6 C 30,0 C 80 % 997,4 hPa 0,0 l/m 5,4 km/h (1 Bft) SO 128 2 min 0,000 mm 2,8 UV-I 432 W/m 16,7 C 20,3 C 11,3 km/h (2 Bft) 100,00 %
28.07.2019 10:54 20,5 C 25,6 C 30,6 C 80 % 997,4 hPa 0,0 l/m 7,7 km/h (2 Bft) O-SO 123 2 min 0,000 mm 3,1 UV-I 516 W/m 16,9 C 20,0 C 14,5 km/h (3 Bft) 100,00 %
28.07.2019 10:56 20,6 C 26,1 C 31,1 C 79 % 997,5 hPa 0,0 l/m 5,3 km/h (1 Bft) O-SO 115 2 min 0,000 mm 3,2 UV-I 524 W/m 16,8 C 20,6 C 12,9 km/h (3 Bft) 100,00 %
28.07.2019 10:58 20,8 C 26,1 C 32,2 C 80 % 997,4 hPa 0,0 l/m 4,6 km/h (1 Bft) S-SO 161 2 min 0,000 mm 3,6 UV-I 659 W/m 17,2 C 20,8 C 8,0 km/h (2 Bft) 100,00 %
28.07.2019 11:00 20,8 C 26,1 C 31,7 C 78 % 997,5 hPa 0,0 l/m 5,7 km/h (1 Bft) S-SO 151 2 min 0,000 mm 3,3 UV-I 583 W/m 16,8 C 20,8 C 8,0 km/h (2 Bft) 100,00 %
28.07.2019 11:02 20,8 C 26,1 C 31,7 C 79 % 997,5 hPa 0,0 l/m 4,5 km/h (1 Bft) O-SO 115 2 min 0,203 mm 3,2 UV-I 448 W/m 17,0 C 20,8 C 11,3 km/h (2 Bft) 100,00 %
28.07.2019 11:04 21,0 C 26,1 C 32,8 C 78 % 997,5 hPa 0,0 l/m 6,8 km/h (2 Bft) O 87 2 min 0,000 mm 3,9 UV-I 564 W/m 17,0 C 20,9 C 12,9 km/h (3 Bft) 97,87 %
28.07.2019 11:06 21,2 C 26,1 C 33,9 C 77 % 997,5 hPa 0,0 l/m 6,4 km/h (2 Bft) S 177 2 min 0,000 mm 3,9 UV-I 698 W/m 17,0 C 21,2 C 11,3 km/h (2 Bft) 100,00 %
28.07.2019 11:08 21,1 C 26,1 C 33,9 C 77 % 997,6 hPa 0,0 l/m 8,2 km/h (2 Bft) S-SO 166 2 min 0,000 mm 4,0 UV-I 670 W/m 16,9 C 20,4 C 11,3 km/h (2 Bft) 97,37 %
28.07.2019 11:10 21,1 C 26,1 C 33,9 C 78 % 997,6 hPa 0,0 l/m 5,8 km/h (2 Bft) SW 230 2 min 0,000 mm 4,0 UV-I 689 W/m 17,1 C 21,1 C 9,7 km/h (2 Bft) 100,00 %
28.07.2019 11:12 21,1 C 26,1 C 33,9 C 77 % 997,6 hPa 0,0 l/m 4,7 km/h (1 Bft) SO 144 2 min 0,000 mm 4,0 UV-I 619 W/m 16,9 C 21,1 C 9,7 km/h (2 Bft) 97,37 %
28.07.2019 11:14 21,0 C 26,1 C 33,9 C 78 % 997,6 hPa 0,0 l/m 1,5 km/h (1 Bft) S 188 2 min 0,000 mm 3,8 UV-I 621 W/m 17,0 C 21,0 C 3,2 km/h (1 Bft) 100,00 %
28.07.2019 11:16 21,2 C 26,1 C 32,8 C 77 % 997,6 hPa 0,0 l/m 5,8 km/h (2 Bft) O-NO 70 2 min 0,000 mm 3,6 UV-I 522 W/m 17,0 C 21,2 C 8,0 km/h (2 Bft) 100,00 %
28.07.2019 11:18 21,4 C 26,1 C 33,3 C 78 % 997,6 hPa 0,0 l/m 4,2 km/h (1 Bft) S-SW 207 2 min 0,000 mm 3,9 UV-I 517 W/m 17,4 C 21,4 C 8,0 km/h (2 Bft) 100,00 %
28.07.2019 11:20 21,7 C 26,1 C 33,9 C 76 % 997,7 hPa 0,0 l/m 3,8 km/h (1 Bft) S-SW 208 2 min 0,000 mm 4,1 UV-I 692 W/m 17,3 C 21,7 C 6,4 km/h (2 Bft) 98,00 %
28.07.2019 11:22 21,6 C 26,1 C 33,9 C 77 % 997,6 hPa 0,0 l/m 3,2 km/h (1 Bft) S-SW 202 2 min 0,000 mm 3,9 UV-I 609 W/m 17,4 C 21,6 C 4,8 km/h (1 Bft) 100,00 %
28.07.2019 11:24 21,6 C 26,1 C 33,3 C 76 % 997,7 hPa 0,0 l/m 3,4 km/h (1 Bft) W-SW 242 2 min 0,000 mm 3,4 UV-I 471 W/m 17,2 C 21,6 C 4,8 km/h (1 Bft) 97,37 %
28.07.2019 11:26 21,6 C 26,1 C 32,8 C 76 % 997,7 hPa 0,0 l/m 7,7 km/h (2 Bft) S-SO 163 0 min 0,000 mm 2,9 UV-I 401 W/m 17,2 C 21,1 C 16,1 km/h (3 Bft) 97,87 %
28.07.2019 11:28 21,6 C 26,1 C 31,1 C 76 % 997,7 hPa 0,0 l/m 10,8 km/h (2 Bft) O-SO 123 0 min 0,000 mm 2,5 UV-I 340 W/m 17,2 C 20,2 C 16,1 km/h (3 Bft) 100,00 %
28.07.2019 11:30 21,6 C 26,1 C 30,0 C 75 % 997,7 hPa 0,0 l/m 6,7 km/h (2 Bft) O 90 0 min 0,000 mm 2,3 UV-I 323 W/m 17,0 C 21,5 C 12,9 km/h (3 Bft) 100,00 %
28.07.2019 11:32 21,4 C 26,1 C 29,4 C 75 % 997,7 hPa 0,0 l/m 2,3 km/h (1 Bft) S-SW 192 0 min 0,000 mm 2,2 UV-I 290 W/m 16,8 C 21,4 C 4,8 km/h (1 Bft) 100,00 %
28.07.2019 11:34 21,3 C 26,1 C 28,9 C 76 % 997,7 hPa 0,0 l/m 2,6 km/h (1 Bft) S-SW 202 0 min 0,000 mm 2,2 UV-I 294 W/m 16,9 C 21,3 C 4,8 km/h (1 Bft) 97,22 %
28.07.2019 11:36 21,2 C 26,1 C 28,3 C 77 % 997,7 hPa 0,0 l/m 2,5 km/h (1 Bft) W 269 0 min 0,000 mm 2,3 UV-I 311 W/m 17,0 C 21,2 C 4,8 km/h (1 Bft) 100,00 %
28.07.2019 11:38 21,3 C 26,1 C 28,3 C 77 % 997,7 hPa 0,0 l/m 2,6 km/h (1 Bft) NW 306 0 min 0,000 mm 2,3 UV-I 319 W/m 17,1 C 21,3 C 4,8 km/h (1 Bft) 100,00 %
28.07.2019 11:40 21,1 C 26,1 C 27,2 C 76 % 997,6 hPa 0,0 l/m 3,5 km/h (1 Bft) NO 42 0 min 0,000 mm 2,3 UV-I 307 W/m 16,7 C 21,1 C 6,4 km/h (2 Bft) 100,00 %
28.07.2019 11:42 21,1 C 26,1 C 27,2 C 78 % 997,6 hPa 0,0 l/m 3,7 km/h (1 Bft) NO 44 0 min 0,000 mm 2,3 UV-I 317 W/m 17,1 C 21,1 C 6,4 km/h (2 Bft) 100,00 %
28.07.2019 11:44 21,2 C 26,1 C 27,2 C 78 % 997,6 hPa 0,0 l/m 2,5 km/h (1 Bft) NO 39 0 min 0,000 mm 2,4 UV-I 328 W/m 17,2 C 21,2 C 6,4 km/h (2 Bft) 97,87 %
28.07.2019 11:46 21,4 C 26,1 C 27,2 C 78 % 997,6 hPa 0,0 l/m 5,2 km/h (1 Bft) NO 38 0 min 0,000 mm 2,3 UV-I 321 W/m 17,4 C 21,4 C 8,0 km/h (2 Bft) 100,00 %
28.07.2019 11:48 21,4 C 26,1 C 27,2 C 76 % 997,6 hPa 0,0 l/m 2,9 km/h (1 Bft) NO 38 0 min 0,000 mm 2,2 UV-I 303 W/m 17,0 C 21,4 C 4,8 km/h (1 Bft) 98,11 %
28.07.2019 11:50 21,3 C 26,1 C 27,2 C 76 % 997,6 hPa 0,0 l/m 2,9 km/h (1 Bft) NO 38 0 min 0,000 mm 2,0 UV-I 285 W/m 16,9 C 21,3 C 4,8 km/h (1 Bft) 100,00 %
28.07.2019 11:52 21,3 C 26,1 C 27,2 C 76 % 997,6 hPa 0,0 l/m 2,6 km/h (1 Bft) NO 38 0 min 0,000 mm 1,9 UV-I 271 W/m 16,9 C 21,3 C 6,4 km/h (2 Bft) 100,00 %
28.07.2019 11:54 21,4 C 26,1 C 26,7 C 76 % 997,6 hPa 0,0 l/m 4,0 km/h (1 Bft) O 94 0 min 0,000 mm 1,8 UV-I 261 W/m 17,0 C 21,4 C 4,8 km/h (1 Bft) 98,00 %
28.07.2019 11:56 21,4 C 26,1 C 26,7 C 77 % 997,5 hPa 0,0 l/m 4,4 km/h (1 Bft) N 11 0 min 0,000 mm 1,8 UV-I 258 W/m 17,2 C 21,4 C 6,4 km/h (2 Bft) 98,00 %
28.07.2019 11:59 21,3 C 26,1 C 26,7 C 76 % 997,4 hPa 0,0 l/m 4,1 km/h (1 Bft) N 9 0 min 0,000 mm 1,9 UV-I 280 W/m 16,9 C 21,3 C 6,4 km/h (2 Bft) 98,39 %
28.07.2019 12:00 21,3 C 26,1 C 26,7 C 76 % 997,4 hPa 0,0 l/m 3,5 km/h (1 Bft) N 355 0 min 0,279 mm 2,0 UV-I 287 W/m 16,9 C 21,3 C 4,8 km/h (1 Bft) 92,31 %
28.07.2019 12:02 21,3 C 26,1 C 26,7 C 77 % 997,4 hPa 0,0 l/m 4,3 km/h (1 Bft) N 355 0 min 0,000 mm 2,0 UV-I 285 W/m 17,1 C 21,3 C 6,4 km/h (2 Bft) 95,74 %
28.07.2019 12:04 21,3 C 26,1 C 26,7 C 76 % 997,4 hPa 0,0 l/m 2,7 km/h (1 Bft) N 5 0 min 0,000 mm 2,0 UV-I 271 W/m 16,9 C 21,3 C 4,8 km/h (1 Bft) 95,74 %
28.07.2019 12:06 21,3 C 26,1 C 26,7 C 77 % 997,4 hPa 0,0 l/m 2,0 km/h (1 Bft) N 5 0 min 0,000 mm 1,8 UV-I 251 W/m 17,1 C 21,3 C 3,2 km/h (1 Bft) 96,00 %
28.07.2019 12:08 21,3 C 26,1 C 26,1 C 76 % 997,5 hPa 0,0 l/m 1,0 km/h (0 Bft) N 5 0 min 0,000 mm 1,6 UV-I 225 W/m 16,9 C 21,3 C 3,2 km/h (1 Bft) 95,24 %
28.07.2019 12:10 21,2 C 26,1 C 26,1 C 77 % 997,6 hPa 0,0 l/m 1,7 km/h (1 Bft) N 5 0 min 0,000 mm 1,4 UV-I 201 W/m 17,0 C 21,2 C 3,2 km/h (1 Bft) 94,00 %
28.07.2019 12:12 21,2 C 26,1 C 25,6 C 77 % 997,6 hPa 0,0 l/m 1,2 km/h (1 Bft) SO 133 0 min 0,000 mm 1,2 UV-I 187 W/m 17,0 C 21,2 C 3,2 km/h (1 Bft) 97,14 %
28.07.2019 12:14 21,3 C 26,1 C 25,6 C 77 % 997,6 hPa 0,0 l/m 2,3 km/h (1 Bft) SO 126 0 min 0,000 mm 1,3 UV-I 190 W/m 17,1 C 21,3 C 3,2 km/h (1 Bft) 94,34 %
28.07.2019 12:16 21,3 C 26,1 C 25,0 C 77 % 997,6 hPa 0,0 l/m 2,7 km/h (1 Bft) O-SO 123 0 min 0,000 mm 1,3 UV-I 189 W/m 17,1 C 21,3 C 4,8 km/h (1 Bft) 96,00 %
28.07.2019 12:18 21,3 C 26,1 C 25,0 C 77 % 997,6 hPa 0,0 l/m 1,7 km/h (1 Bft) O-SO 114 0 min 0,000 mm 1,3 UV-I 181 W/m 17,1 C 21,3 C 3,2 km/h (1 Bft) 96,00 %
28.07.2019 12:20 21,3 C 26,1 C 25,0 C 77 % 997,7 hPa 0,0 l/m 2,2 km/h (1 Bft) O-SO 114 0 min 0,000 mm 1,3 UV-I 176 W/m 17,1 C 21,3 C 3,2 km/h (1 Bft) 94,74 %
28.07.2019 12:22 21,3 C 26,1 C 25,0 C 77 % 997,8 hPa 0,0 l/m 1,1 km/h (1 Bft) O-SO 114 0 min 0,000 mm 1,2 UV-I 164 W/m 17,1 C 21,3 C 3,2 km/h (1 Bft) 96,61 %
28.07.2019 12:24 21,2 C 26,1 C 24,4 C 77 % 997,8 hPa 0,0 l/m 0,9 km/h (0 Bft) O-SO 115 0 min 0,000 mm 1,1 UV-I 157 W/m 17,0 C 21,2 C 1,6 km/h (1 Bft) 97,37 %
28.07.2019 12:26 21,2 C 26,1 C 24,4 C 77 % 997,8 hPa 0,0 l/m 1,8 km/h (1 Bft) S-SW 211 0 min 0,000 mm 1,2 UV-I 161 W/m 17,0 C 21,2 C 4,8 km/h (1 Bft) 98,11 %
28.07.2019 12:29 21,2 C 26,1 C 24,4 C 77 % 997,8 hPa 0,0 l/m 3,2 km/h (1 Bft) SW 226 0 min 0,000 mm 1,1 UV-I 151 W/m 17,0 C 21,2 C 6,4 km/h (2 Bft) 95,59 %
28.07.2019 12:30 21,2 C 26,1 C 24,4 C 77 % 997,8 hPa 0,0 l/m 2,8 km/h (1 Bft) SW 217 0 min 0,000 mm 0,9 UV-I 136 W/m 17,0 C 21,2 C 4,8 km/h (1 Bft) 94,12 %
28.07.2019 12:32 21,1 C 26,1 C 24,4 C 77 % 997,8 hPa 0,0 l/m 2,8 km/h (1 Bft) SW 217 0 min 0,000 mm 0,9 UV-I 129 W/m 16,9 C 21,1 C 4,8 km/h (1 Bft) 97,87 %
28.07.2019 12:34 21,0 C 26,1 C 23,9 C 77 % 997,8 hPa 0,0 l/m 2,9 km/h (1 Bft) SW 217 0 min 0,000 mm 0,8 UV-I 119 W/m 16,8 C 21,0 C 4,8 km/h (1 Bft) 100,00 %
28.07.2019 12:36 21,0 C 26,1 C 23,9 C 78 % 997,7 hPa 0,0 l/m 3,3 km/h (1 Bft) S-SW 209 0 min 0,000 mm 0,8 UV-I 114 W/m 17,0 C 21,0 C 6,4 km/h (2 Bft) 100,00 %
28.07.2019 12:38 21,1 C 26,1 C 23,9 C 78 % 997,7 hPa 0,0 l/m 3,3 km/h (1 Bft) S-SW 208 0 min 0,000 mm 0,7 UV-I 109 W/m 17,1 C 21,1 C 4,8 km/h (1 Bft) 100,00 %
28.07.2019 12:40 21,1 C 26,1 C 23,9 C 78 % 997,7 hPa 0,0 l/m 1,8 km/h (1 Bft) S-SW 208 0 min 0,000 mm 0,7 UV-I 107 W/m 17,1 C 21,1 C 3,2 km/h (1 Bft) 100,00 %
28.07.2019 12:42 21,1 C 26,1 C 23,9 C 78 % 997,7 hPa 0,0 l/m 1,4 km/h (1 Bft) S-SW 208 0 min 0,000 mm 0,8 UV-I 112 W/m 17,1 C 21,1 C 1,6 km/h (1 Bft) 100,00 %
28.07.2019 12:44 21,1 C 26,1 C 23,9 C 77 % 997,7 hPa 0,0 l/m 1,6 km/h (1 Bft) S-SW 208 0 min 0,000 mm 0,8 UV-I 119 W/m 16,9 C 21,1 C 3,2 km/h (1 Bft) 100,00 %
28.07.2019 12:46 21,2 C 26,1 C 23,9 C 78 % 997,7 hPa 0,0 l/m 2,1 km/h (1 Bft) S-SW 208 0 min 0,000 mm 0,9 UV-I 128 W/m 17,2 C 21,2 C 4,8 km/h (1 Bft) 100,00 %
28.07.2019 12:48 21,2 C 26,1 C 23,9 C 78 % 997,8 hPa 0,0 l/m 1,5 km/h (1 Bft) S-SW 208 0 min 0,000 mm 1,0 UV-I 137 W/m 17,2 C 21,2 C 3,2 km/h (1 Bft) 100,00 %
28.07.2019 12:50 21,2 C 26,1 C 23,9 C 77 % 997,8 hPa 0,0 l/m 2,5 km/h (1 Bft) S-SW 208 0 min 0,000 mm 1,0 UV-I 148 W/m 17,0 C 21,2 C 3,2 km/h (1 Bft) 100,00 %
28.07.2019 12:52 21,3 C 26,1 C 23,9 C 77 % 997,8 hPa 0,0 l/m 3,8 km/h (1 Bft) SW 227 0 min 0,000 mm 1,1 UV-I 154 W/m 17,1 C 21,3 C 4,8 km/h (1 Bft) 100,00 %
28.07.2019 12:54 21,2 C 26,1 C 23,9 C 77 % 997,8 hPa 0,0 l/m 3,0 km/h (1 Bft) SW 226 0 min 0,000 mm 1,1 UV-I 158 W/m 17,0 C 21,2 C 4,8 km/h (1 Bft) 100,00 %
28.07.2019 12:56 21,2 C 26,1 C 23,9 C 77 % 997,8 hPa 0,0 l/m 2,3 km/h (1 Bft) SW 226 0 min 0,000 mm 1,2 UV-I 166 W/m 17,0 C 21,2 C 3,2 km/h (1 Bft) 100,00 %
28.07.2019 12:58 21,2 C 26,1 C 24,4 C 78 % 997,8 hPa 0,0 l/m 4,4 km/h (1 Bft) SW 225 0 min 0,000 mm 1,3 UV-I 180 W/m 17,2 C 21,2 C 6,4 km/h (2 Bft) 100,00 %
28.07.2019 13:00 21,3 C 26,1 C 24,4 C 77 % 997,8 hPa 0,0 l/m 3,4 km/h (1 Bft) SW 225 0 min 0,102 mm 1,4 UV-I 201 W/m 17,1 C 21,3 C 6,4 km/h (2 Bft) 100,00 %
28.07.2019 13:02 21,3 C 26,1 C 25,0 C 77 % 997,7 hPa 0,0 l/m 3,3 km/h (1 Bft) SW 226 0 min 0,000 mm 1,5 UV-I 219 W/m 17,1 C 21,3 C 4,8 km/h (1 Bft) 100,00 %
28.07.2019 13:04 21,4 C 26,1 C 25,0 C 77 % 997,8 hPa 0,0 l/m 1,5 km/h (1 Bft) SW 226 0 min 0,000 mm 1,5 UV-I 218 W/m 17,2 C 21,4 C 3,2 km/h (1 Bft) 100,00 %
28.07.2019 13:06 21,4 C 26,1 C 25,6 C 76 % 997,8 hPa 0,0 l/m 1,8 km/h (1 Bft) SW 225 0 min 0,000 mm 1,5 UV-I 213 W/m 17,0 C 21,4 C 3,2 km/h (1 Bft) 100,00 %
28.07.2019 13:08 21,4 C 26,1 C 25,6 C 77 % 997,9 hPa 0,0 l/m 2,5 km/h (1 Bft) SW 225 0 min 0,000 mm 1,4 UV-I 206 W/m 17,2 C 21,4 C 4,8 km/h (1 Bft) 100,00 %
28.07.2019 13:10 21,5 C 26,1 C 25,6 C 76 % 997,9 hPa 0,0 l/m 3,9 km/h (1 Bft) S-SW 211 0 min 0,000 mm 1,4 UV-I 199 W/m 17,1 C 21,5 C 6,4 km/h (2 Bft) 97,87 %
28.07.2019 13:12 21,4 C 26,1 C 25,6 C 76 % 997,9 hPa 0,0 l/m 5,0 km/h (1 Bft) S 171 0 min 0,000 mm 1,3 UV-I 186 W/m 17,0 C 21,4 C 8,0 km/h (2 Bft) 100,00 %
28.07.2019 13:14 21,5 C 26,1 C 25,6 C 76 % 998,0 hPa 0,0 l/m 4,8 km/h (1 Bft) S 169 0 min 0,000 mm 1,3 UV-I 180 W/m 17,1 C 21,5 C 8,0 km/h (2 Bft) 100,00 %
28.07.2019 13:16 21,7 C 26,1 C 25,6 C 76 % 998,0 hPa 0,0 l/m 2,9 km/h (1 Bft) SO 146 0 min 0,000 mm 1,3 UV-I 191 W/m 17,3 C 21,7 C 8,0 km/h (2 Bft) 98,00 %
28.07.2019 13:18 21,7 C 26,1 C 25,6 C 77 % 998,0 hPa 0,0 l/m 2,3 km/h (1 Bft) SO 146 0 min 0,000 mm 1,4 UV-I 201 W/m 17,5 C 21,7 C 4,8 km/h (1 Bft) 100,00 %
28.07.2019 13:20 21,7 C 26,1 C 25,6 C 75 % 998,0 hPa 0,0 l/m 3,9 km/h (1 Bft) W-SW 242 0 min 0,000 mm 1,4 UV-I 208 W/m 17,1 C 21,7 C 6,4 km/h (2 Bft) 100,00 %
28.07.2019 13:22 21,8 C 26,1 C 25,6 C 77 % 998,0 hPa 0,0 l/m 5,1 km/h (1 Bft) SW 229 0 min 0,000 mm 1,4 UV-I 212 W/m 17,6 C 21,8 C 6,4 km/h (2 Bft) 100,00 %
28.07.2019 13:24 21,8 C 26,1 C 25,6 C 75 % 998,0 hPa 0,0 l/m 5,0 km/h (1 Bft) W-SW 238 0 min 0,000 mm 1,4 UV-I 214 W/m 17,2 C 21,8 C 9,7 km/h (2 Bft) 94,44 %
28.07.2019 13:26 21,7 C 26,1 C 25,0 C 75 % 998,0 hPa 0,0 l/m 4,6 km/h (1 Bft) W-SW 238 0 min 0,000 mm 1,5 UV-I 220 W/m 17,1 C 21,7 C 6,4 km/h (2 Bft) 100,00 %
28.07.2019 13:28 21,7 C 26,1 C 25,6 C 76 % 998,0 hPa 0,0 l/m 4,8 km/h (1 Bft) W 265 0 min 0,000 mm 1,5 UV-I 221 W/m 17,3 C 21,7 C 6,4 km/h (2 Bft) 98,00 %
28.07.2019 13:30 21,6 C 26,1 C 25,0 C 75 % 997,9 hPa 0,0 l/m 3,4 km/h (1 Bft) W 265 0 min 0,000 mm 1,5 UV-I 220 W/m 17,0 C 21,6 C 4,8 km/h (1 Bft) 96,00 %
28.07.2019 13:32 21,5 C 26,1 C 25,6 C 76 % 998,0 hPa 0,0 l/m 4,1 km/h (1 Bft) S-SW 212 0 min 0,000 mm 1,5 UV-I 225 W/m 17,1 C 21,5 C 6,4 km/h (2 Bft) 94,74 %
28.07.2019 13:34 21,5 C 26,1 C 25,6 C 76 % 998,0 hPa 0,0 l/m 3,7 km/h (1 Bft) S-SW 213 0 min 0,000 mm 1,5 UV-I 234 W/m 17,1 C 21,5 C 6,4 km/h (2 Bft) 96,00 %
28.07.2019 13:36 21,5 C 26,1 C 26,1 C 76 % 997,9 hPa 0,0 l/m 3,7 km/h (1 Bft) S-SW 198 0 min 0,000 mm 1,6 UV-I 252 W/m 17,1 C 21,5 C 6,4 km/h (2 Bft) 92,45 %
28.07.2019 13:38 21,6 C 26,1 C 26,1 C 76 % 997,9 hPa 0,0 l/m 2,7 km/h (1 Bft) S-SW 203 0 min 0,000 mm 1,8 UV-I 281 W/m 17,2 C 21,6 C 4,8 km/h (1 Bft) 95,74 %
28.07.2019 13:40 21,8 C 26,1 C 26,7 C 76 % 997,9 hPa 0,0 l/m 6,0 km/h (2 Bft) SW 229 0 min 0,000 mm 2,1 UV-I 311 W/m 17,4 C 21,8 C 8,0 km/h (2 Bft) 92,68 %
28.07.2019 13:42 21,8 C 26,1 C 27,2 C 75 % 997,9 hPa 0,0 l/m 6,4 km/h (2 Bft) SW 232 0 min 0,000 mm 2,2 UV-I 332 W/m 17,2 C 21,8 C 9,7 km/h (2 Bft) 95,45 %
28.07.2019 13:44 21,9 C 26,1 C 27,8 C 75 % 997,9 hPa 0,0 l/m 5,8 km/h (2 Bft) S-SW 212 0 min 0,000 mm 2,2 UV-I 342 W/m 17,3 C 21,9 C 8,0 km/h (2 Bft) 94,34 %
28.07.2019 13:46 21,9 C 26,1 C 27,8 C 75 % 997,9 hPa 0,0 l/m 5,8 km/h (2 Bft) SW 236 0 min 0,000 mm 2,3 UV-I 346 W/m 17,3 C 21,9 C 9,7 km/h (2 Bft) 97,87 %
28.07.2019 13:48 22,1 C 26,1 C 28,3 C 75 % 998,0 hPa 0,0 l/m 7,8 km/h (2 Bft) SW 234 0 min 0,000 mm 2,4 UV-I 361 W/m 17,5 C 21,6 C 9,7 km/h (2 Bft) 95,74 %
28.07.2019 13:50 22,0 C 26,1 C 28,3 C 75 % 998,0 hPa 0,0 l/m 4,6 km/h (1 Bft) S-SW 197 0 min 0,000 mm 2,5 UV-I 389 W/m 17,4 C 22,0 C 8,0 km/h (2 Bft) 95,45 %
28.07.2019 13:52 22,1 C 26,1 C 29,4 C 76 % 997,9 hPa 0,0 l/m 4,1 km/h (1 Bft) W-SW 245 0 min 0,000 mm 2,8 UV-I 445 W/m 17,7 C 22,1 C 4,8 km/h (1 Bft) 94,74 %
28.07.2019 13:54 22,3 C 26,1 C 30,0 C 74 % 997,9 hPa 0,0 l/m 3,0 km/h (1 Bft) SW 231 0 min 0,000 mm 2,8 UV-I 445 W/m 17,4 C 22,3 C 6,4 km/h (2 Bft) 96,00 %
28.07.2019 13:56 22,3 C 26,1 C 30,0 C 74 % 997,9 hPa 0,0 l/m 5,5 km/h (1 Bft) SW 232 0 min 0,000 mm 2,9 UV-I 449 W/m 17,4 C 22,3 C 6,4 km/h (2 Bft) 94,34 %
28.07.2019 13:58 22,3 C 26,1 C 30,0 C 74 % 998,0 hPa 0,0 l/m 4,2 km/h (1 Bft) SW 221 0 min 0,000 mm 2,7 UV-I 411 W/m 17,4 C 22,3 C 8,0 km/h (2 Bft) 92,00 %
28.07.2019 14:00 22,3 C 26,1 C 30,0 C 74 % 997,9 hPa 0,0 l/m 0,3 km/h (0 Bft) SW 221 0 min 0,000 mm 2,3 UV-I 359 W/m 17,4 C 22,3 C 1,6 km/h (1 Bft) 95,74 %
28.07.2019 14:02 22,3 C 26,1 C 29,4 C 73 % 997,9 hPa 0,0 l/m 1,9 km/h (1 Bft) SW 221 0 min 0,178 mm 2,2 UV-I 332 W/m 17,2 C 22,3 C 3,2 km/h (1 Bft) 94,44 %
28.07.2019 14:04 22,3 C 26,1 C 29,4 C 73 % 997,9 hPa 0,0 l/m 1,9 km/h (1 Bft) SW 221 0 min 0,000 mm 2,2 UV-I 335 W/m 17,2 C 22,3 C 4,8 km/h (1 Bft) 96,23 %
28.07.2019 14:06 22,3 C 26,1 C 29,4 C 75 % 998,0 hPa 0,0 l/m 2,9 km/h (1 Bft) W 267 0 min 0,000 mm 2,3 UV-I 359 W/m 17,6 C 22,3 C 4,8 km/h (1 Bft) 94,34 %
28.07.2019 14:08 22,3 C 26,1 C 29,4 C 74 % 997,9 hPa 0,0 l/m 1,9 km/h (1 Bft) W 267 0 min 0,000 mm 2,4 UV-I 379 W/m 17,4 C 22,3 C 3,2 km/h (1 Bft) 91,49 %
28.07.2019 14:10 22,3 C 26,1 C 28,9 C 74 % 998,0 hPa 0,0 l/m 3,1 km/h (1 Bft) S-SW 208 0 min 0,000 mm 2,4 UV-I 367 W/m 17,4 C 22,3 C 4,8 km/h (1 Bft) 92,11 %
28.07.2019 14:12 22,3 C 26,1 C 28,9 C 74 % 998,0 hPa 0,0 l/m 4,2 km/h (1 Bft) W-SW 237 0 min 0,000 mm 2,5 UV-I 386 W/m 17,4 C 22,3 C 6,4 km/h (2 Bft) 92,11 %
28.07.2019 14:14 22,3 C 26,1 C 29,4 C 74 % 998,0 hPa 0,0 l/m 0,8 km/h (0 Bft) W-SW 237 0 min 0,000 mm 2,7 UV-I 415 W/m 17,4 C 22,3 C 3,2 km/h (1 Bft) 95,16 %
28.07.2019 14:16 22,5 C 26,1 C 30,0 C 74 % 998,1 hPa 0,0 l/m 1,2 km/h (1 Bft) W-SW 237 0 min 0,000 mm 2,7 UV-I 413 W/m 17,6 C 22,5 C 4,8 km/h (1 Bft) 94,00 %
28.07.2019 14:18 22,6 C 26,1 C 30,0 C 74 % 998,1 hPa 0,0 l/m 4,3 km/h (1 Bft) S-SW 194 0 min 0,000 mm 2,6 UV-I 399 W/m 17,7 C 22,6 C 6,4 km/h (2 Bft) 94,74 %
28.07.2019 14:20 22,6 C 26,1 C 30,0 C 73 % 998,1 hPa 0,0 l/m 5,1 km/h (1 Bft) SW 215 0 min 0,000 mm 2,5 UV-I 392 W/m 17,5 C 22,6 C 6,4 km/h (2 Bft) 94,34 %
28.07.2019 14:22 22,6 C 26,1 C 30,0 C 73 % 998,0 hPa 0,0 l/m 3,6 km/h (1 Bft) W-SW 244 0 min 0,000 mm 2,6 UV-I 392 W/m 17,5 C 22,6 C 4,8 km/h (1 Bft) 95,83 %
28.07.2019 14:24 22,4 C 26,1 C 30,0 C 73 % 998,0 hPa 0,0 l/m 2,4 km/h (1 Bft) W-SW 245 0 min 0,000 mm 2,6 UV-I 398 W/m 17,3 C 22,4 C 4,8 km/h (1 Bft) 94,03 %
28.07.2019 14:26 22,5 C 26,1 C 30,0 C 74 % 998,0 hPa 0,0 l/m 2,9 km/h (1 Bft) W-SW 244 0 min 0,000 mm 2,7 UV-I 406 W/m 17,6 C 22,5 C 4,8 km/h (1 Bft) 96,00 %
28.07.2019 14:28 22,7 C 26,1 C 30,0 C 74 % 998,0 hPa 0,0 l/m 3,7 km/h (1 Bft) W-SW 245 0 min 0,000 mm 2,8 UV-I 418 W/m 17,8 C 22,7 C 4,8 km/h (1 Bft) 92,59 %
28.07.2019 14:30 22,9 C 26,1 C 30,6 C 74 % 998,0 hPa 0,0 l/m 3,6 km/h (1 Bft) W-SW 246 0 min 0,000 mm 2,8 UV-I 452 W/m 18,0 C 22,9 C 4,8 km/h (1 Bft) 98,36 %
28.07.2019 14:32 23,1 C 26,1 C 31,1 C 73 % 998,0 hPa 0,0 l/m 3,2 km/h (1 Bft) SW 229 2 min 0,000 mm 2,9 UV-I 465 W/m 18,0 C 23,1 C 4,8 km/h (1 Bft) 98,00 %
28.07.2019 14:34 23,1 C 26,1 C 31,1 C 72 % 997,9 hPa 0,0 l/m 3,3 km/h (1 Bft) SW 222 2 min 0,000 mm 2,9 UV-I 476 W/m 17,8 C 23,1 C 6,4 km/h (2 Bft) 97,62 %
28.07.2019 14:36 22,9 C 26,1 C 31,7 C 72 % 997,9 hPa 0,0 l/m 1,3 km/h (1 Bft) SW 222 2 min 0,000 mm 2,9 UV-I 479 W/m 17,6 C 22,9 C 3,2 km/h (1 Bft) 96,00 %
28.07.2019 14:38 23,0 C 26,1 C 32,2 C 73 % 997,9 hPa 0,0 l/m 2,0 km/h (1 Bft) W-NW 294 2 min 0,000 mm 3,0 UV-I 514 W/m 17,9 C 23,0 C 4,8 km/h (1 Bft) 100,00 %
28.07.2019 14:40 23,1 C 26,1 C 32,8 C 71 % 997,9 hPa 0,0 l/m 4,1 km/h (1 Bft) W-NW 291 2 min 0,000 mm 3,2 UV-I 568 W/m 17,5 C 23,1 C 8,0 km/h (2 Bft) 100,00 %
28.07.2019 14:42 23,2 C 26,1 C 32,8 C 72 % 997,9 hPa 0,0 l/m 1,4 km/h (1 Bft) W-NW 293 2 min 0,000 mm 3,2 UV-I 560 W/m 17,9 C 23,2 C 3,2 km/h (1 Bft) 100,00 %
28.07.2019 14:44 23,2 C 26,1 C 33,3 C 71 % 998,0 hPa 0,0 l/m 2,9 km/h (1 Bft) N-NO 17 2 min 0,000 mm 3,1 UV-I 534 W/m 17,6 C 23,2 C 6,4 km/h (2 Bft) 100,00 %
28.07.2019 14:46 23,2 C 26,1 C 33,3 C 71 % 998,0 hPa 0,0 l/m 1,8 km/h (1 Bft) N-NO 19 2 min 0,000 mm 2,9 UV-I 495 W/m 17,6 C 23,2 C 4,8 km/h (1 Bft) 100,00 %
28.07.2019 14:48 23,3 C 26,1 C 33,3 C 73 % 998,0 hPa 0,0 l/m 2,0 km/h (1 Bft) N-NO 19 2 min 0,000 mm 2,8 UV-I 474 W/m 18,2 C 23,3 C 4,8 km/h (1 Bft) 100,00 %
28.07.2019 14:50 23,3 C 26,1 C 33,3 C 72 % 998,0 hPa 0,0 l/m 1,7 km/h (1 Bft) NW 313 2 min 0,000 mm 2,7 UV-I 465 W/m 18,0 C 23,3 C 6,4 km/h (2 Bft) 97,56 %
28.07.2019 14:52 23,2 C 26,1 C 32,2 C 70 % 998,1 hPa 0,0 l/m 2,2 km/h (1 Bft) NW 313 2 min 0,000 mm 2,7 UV-I 464 W/m 17,4 C 23,2 C 4,8 km/h (1 Bft) 100,00 %
28.07.2019 14:54 23,1 C 26,1 C 32,2 C 71 % 998,1 hPa 0,0 l/m 1,3 km/h (1 Bft) NW 317 2 min 0,000 mm 2,7 UV-I 451 W/m 17,5 C 23,1 C 3,2 km/h (1 Bft) 100,00 %
28.07.2019 14:56 23,1 C 26,1 C 31,7 C 72 % 998,0 hPa 0,0 l/m 3,4 km/h (1 Bft) NO 37 0 min 0,000 mm 2,7 UV-I 438 W/m 17,8 C 23,1 C 6,4 km/h (2 Bft) 100,00 %
28.07.2019 14:58 23,4 C 26,1 C 31,7 C 74 % 998,1 hPa 0,0 l/m 6,9 km/h (2 Bft) N 11 2 min 0,000 mm 2,7 UV-I 454 W/m 18,5 C 23,3 C 11,3 km/h (2 Bft) 100,00 %
28.07.2019 15:00 23,7 C 26,1 C 32,2 C 71 % 998,1 hPa 0,0 l/m 3,8 km/h (1 Bft) N 360 2 min 0,279 mm 3,0 UV-I 531 W/m 18,1 C 23,7 C 6,4 km/h (2 Bft) 100,00 %
28.07.2019 15:02 23,8 C 26,1 C 32,2 C 70 % 998,1 hPa 0,0 l/m 5,2 km/h (1 Bft) NW 313 2 min 0,000 mm 2,9 UV-I 512 W/m 18,0 C 23,8 C 6,4 km/h (2 Bft) 97,87 %
28.07.2019 15:04 23,7 C 26,1 C 31,7 C 71 % 998,1 hPa 0,0 l/m 4,6 km/h (1 Bft) N 355 2 min 0,000 mm 2,8 UV-I 457 W/m 18,1 C 23,7 C 6,4 km/h (2 Bft) 96,23 %
28.07.2019 15:06 23,8 C 26,1 C 31,1 C 70 % 998,1 hPa 0,0 l/m 5,3 km/h (1 Bft) N 9 0 min 0,000 mm 2,6 UV-I 417 W/m 18,0 C 23,8 C 11,3 km/h (2 Bft) 97,87 %
28.07.2019 15:08 23,7 C 26,1 C 30,6 C 70 % 998,0 hPa 0,0 l/m 6,8 km/h (2 Bft) N 11 0 min 0,000 mm 2,4 UV-I 385 W/m 17,9 C 23,6 C 9,7 km/h (2 Bft) 97,37 %
28.07.2019 15:10 23,6 C 26,1 C 30,0 C 69 % 998,0 hPa 0,0 l/m 3,1 km/h (1 Bft) N-NO 16 0 min 0,000 mm 2,3 UV-I 365 W/m 17,6 C 23,6 C 6,4 km/h (2 Bft) 96,00 %
28.07.2019 15:12 23,4 C 26,1 C 29,4 C 71 % 998,0 hPa 0,0 l/m 5,1 km/h (1 Bft) N 9 0 min 0,000 mm 2,2 UV-I 348 W/m 17,8 C 23,4 C 8,0 km/h (2 Bft) 94,00 %
28.07.2019 15:14 23,3 C 26,1 C 29,4 C 70 % 998,1 hPa 0,0 l/m 4,0 km/h (1 Bft) N 9 0 min 0,000 mm 2,1 UV-I 332 W/m 17,5 C 23,3 C 8,0 km/h (2 Bft) 100,00 %
28.07.2019 15:16 23,3 C 26,1 C 28,9 C 72 % 998,1 hPa 0,0 l/m 6,6 km/h (2 Bft) NO 49 0 min 0,000 mm 2,0 UV-I 323 W/m 18,0 C 23,2 C 8,0 km/h (2 Bft) 96,23 %
28.07.2019 15:18 23,3 C 26,1 C 28,9 C 71 % 998,1 hPa 0,0 l/m 3,1 km/h (1 Bft) O-NO 69 0 min 0,000 mm 2,0 UV-I 321 W/m 17,7 C 23,3 C 4,8 km/h (1 Bft) 97,96 %
28.07.2019 15:20 23,3 C 26,1 C 28,9 C 71 % 998,1 hPa 0,0 l/m 3,4 km/h (1 Bft) O-NO 65 0 min 0,000 mm 2,0 UV-I 320 W/m 17,7 C 23,3 C 6,4 km/h (2 Bft) 97,92 %
28.07.2019 15:22 23,3 C 26,1 C 28,9 C 72 % 998,1 hPa 0,0 l/m 3,5 km/h (1 Bft) O 79 0 min 0,000 mm 2,0 UV-I 316 W/m 18,0 C 23,3 C 6,4 km/h (2 Bft) 97,87 %
28.07.2019 15:24 23,2 C 26,1 C 28,9 C 72 % 998,0 hPa 0,0 l/m 4,2 km/h (1 Bft) O 85 0 min 0,000 mm 2,0 UV-I 318 W/m 17,9 C 23,2 C 6,4 km/h (2 Bft) 97,14 %
28.07.2019 15:26 23,2 C 26,1 C 28,9 C 71 % 998,0 hPa 0,0 l/m 3,4 km/h (1 Bft) O-NO 76 0 min 0,000 mm 2,0 UV-I 315 W/m 17,6 C 23,2 C 6,4 km/h (2 Bft) 98,21 %
28.07.2019 15:28 23,2 C 26,1 C 28,9 C 71 % 998,0 hPa 0,0 l/m 2,4 km/h (1 Bft) O-NO 76 0 min 0,000 mm 2,0 UV-I 315 W/m 17,6 C 23,2 C 3,2 km/h (1 Bft) 98,00 %
28.07.2019 15:30 23,2 C 26,1 C 28,9 C 71 % 998,1 hPa 0,0 l/m 1,6 km/h (1 Bft) O-NO 76 0 min 0,000 mm 2,0 UV-I 312 W/m 17,6 C 23,2 C 3,2 km/h (1 Bft) 100,00 %
28.07.2019 15:32 23,2 C 26,1 C 28,9 C 71 % 998,1 hPa 0,0 l/m 1,9 km/h (1 Bft) O-NO 78 0 min 0,000 mm 2,0 UV-I 308 W/m 17,6 C 23,2 C 3,2 km/h (1 Bft) 100,00 %
28.07.2019 15:34 23,3 C 26,1 C 29,4 C 71 % 998,1 hPa 0,0 l/m 2,7 km/h (1 Bft) O 79 0 min 0,000 mm 1,9 UV-I 307 W/m 17,7 C 23,3 C 4,8 km/h (1 Bft) 100,00 %
28.07.2019 15:36 23,2 C 26,1 C 28,9 C 71 % 998,1 hPa 0,0 l/m 1,3 km/h (1 Bft) O-NO 78 0 min 0,000 mm 2,0 UV-I 309 W/m 17,6 C 23,2 C 3,2 km/h (1 Bft) 100,00 %
28.07.2019 15:38 23,2 C 26,1 C 28,9 C 71 % 998,0 hPa 0,0 l/m 2,3 km/h (1 Bft) N-NW 345 0 min 0,000 mm 1,9 UV-I 302 W/m 17,6 C 23,2 C 4,8 km/h (1 Bft) 100,00 %
28.07.2019 15:40 23,2 C 26,1 C 28,3 C 72 % 998,0 hPa 0,0 l/m 2,8 km/h (1 Bft) N-NW 337 0 min 0,000 mm 1,8 UV-I 276 W/m 17,9 C 23,2 C 4,8 km/h (1 Bft) 97,87 %
28.07.2019 15:42 23,2 C 26,1 C 28,3 C 72 % 998,0 hPa 0,0 l/m 3,1 km/h (1 Bft) W-NW 294 0 min 0,000 mm 1,6 UV-I 253 W/m 17,9 C 23,2 C 4,8 km/h (1 Bft) 100,00 %
28.07.2019 15:44 23,2 C 26,1 C 28,3 C 71 % 998,0 hPa 0,0 l/m 1,9 km/h (1 Bft) W-NW 294 0 min 0,000 mm 1,5 UV-I 250 W/m 17,6 C 23,2 C 3,2 km/h (1 Bft) 95,74 %
28.07.2019 15:46 23,1 C 26,1 C 28,3 C 72 % 997,9 hPa 0,0 l/m 2,1 km/h (1 Bft) W-NW 296 0 min 0,000 mm 1,6 UV-I 268 W/m 17,8 C 23,1 C 3,2 km/h (1 Bft) 100,00 %
28.07.2019 15:48 23,2 C 26,1 C 28,3 C 72 % 997,9 hPa 0,0 l/m 1,3 km/h (1 Bft) W-NW 296 0 min 0,000 mm 1,8 UV-I 292 W/m 17,9 C 23,2 C 3,2 km/h (1 Bft) 95,74 %
28.07.2019 15:50 23,3 C 26,1 C 28,3 C 73 % 997,9 hPa 0,0 l/m 1,9 km/h (1 Bft) W-NW 296 0 min 0,000 mm 1,7 UV-I 297 W/m 18,2 C 23,3 C 3,2 km/h (1 Bft) 97,87 %
28.07.2019 15:52 23,3 C 26,1 C 27,2 C 71 % 998,0 hPa 0,0 l/m 2,6 km/h (1 Bft) W-NW 296 0 min 0,000 mm 1,5 UV-I 232 W/m 17,7 C 23,3 C 4,8 km/h (1 Bft) 97,87 %
28.07.2019 15:54 23,3 C 26,1 C 27,2 C 71 % 998,0 hPa 0,0 l/m 2,4 km/h (1 Bft) N 9 0 min 0,000 mm 1,1 UV-I 180 W/m 17,7 C 23,3 C 4,8 km/h (1 Bft) 96,00 %
28.07.2019 15:56 23,3 C 26,1 C 26,7 C 70 % 997,9 hPa 0,0 l/m 4,6 km/h (1 Bft) N-NO 12 0 min 0,000 mm 1,1 UV-I 175 W/m 17,5 C 23,3 C 6,4 km/h (2 Bft) 97,87 %
28.07.2019 15:58 23,2 C 26,1 C 26,1 C 71 % 997,9 hPa 0,0 l/m 5,6 km/h (1 Bft) N-NO 16 0 min 0,000 mm 1,1 UV-I 179 W/m 17,6 C 23,2 C 8,0 km/h (2 Bft) 97,92 %
28.07.2019 16:00 23,3 C 26,1 C 26,1 C 72 % 997,9 hPa 0,0 l/m 5,1 km/h (1 Bft) N 11 0 min 0,203 mm 1,1 UV-I 179 W/m 18,0 C 23,3 C 6,4 km/h (2 Bft) 97,87 %
28.07.2019 16:02 23,3 C 26,1 C 26,1 C 71 % 998,0 hPa 0,0 l/m 5,3 km/h (1 Bft) N-NO 14 0 min 0,000 mm 1,1 UV-I 176 W/m 17,7 C 23,3 C 6,4 km/h (2 Bft) 97,87 %
28.07.2019 16:04 23,3 C 26,1 C 26,1 C 71 % 998,0 hPa 0,0 l/m 4,8 km/h (1 Bft) N-NO 26 0 min 0,000 mm 1,1 UV-I 183 W/m 17,7 C 23,3 C 6,4 km/h (2 Bft) 97,56 %
28.07.2019 16:06 23,3 C 26,1 C 26,1 C 70 % 998,0 hPa 0,0 l/m 3,7 km/h (1 Bft) N-NO 31 0 min 0,000 mm 1,1 UV-I 185 W/m 17,5 C 23,3 C 4,8 km/h (1 Bft) 98,00 %
28.07.2019 16:08 23,2 C 26,1 C 26,1 C 70 % 998,0 hPa 0,0 l/m 3,5 km/h (1 Bft) N-NO 31 0 min 0,000 mm 1,1 UV-I 184 W/m 17,4 C 23,2 C 4,8 km/h (1 Bft) 97,56 %
28.07.2019 16:10 23,2 C 26,1 C 25,6 C 71 % 998,1 hPa 0,0 l/m 3,0 km/h (1 Bft) N-NO 30 0 min 0,000 mm 1,1 UV-I 190 W/m 17,6 C 23,2 C 4,8 km/h (1 Bft) 95,74 %
28.07.2019 16:12 23,1 C 26,1 C 26,1 C 71 % 998,1 hPa 0,0 l/m 3,3 km/h (1 Bft) NO 47 0 min 0,000 mm 1,2 UV-I 204 W/m 17,5 C 23,1 C 4,8 km/h (1 Bft) 97,87 %
28.07.2019 16:14 23,2 C 26,1 C 26,1 C 71 % 998,1 hPa 0,0 l/m 2,7 km/h (1 Bft) O-NO 57 0 min 0,000 mm 1,3 UV-I 211 W/m 17,6 C 23,2 C 6,4 km/h (2 Bft) 94,00 %
28.07.2019 16:16 23,2 C 26,1 C 26,1 C 72 % 998,0 hPa 0,0 l/m 4,8 km/h (1 Bft) O-NO 66 0 min 0,000 mm 1,2 UV-I 202 W/m 17,9 C 23,2 C 6,4 km/h (2 Bft) 97,87 %
28.07.2019 16:18 23,2 C 26,1 C 26,1 C 72 % 998,1 hPa 0,0 l/m 3,2 km/h (1 Bft) O 85 0 min 0,000 mm 1,2 UV-I 191 W/m 17,9 C 23,2 C 4,8 km/h (1 Bft) 97,87 %
28.07.2019 16:20 23,2 C 26,1 C 26,1 C 71 % 998,1 hPa 0,0 l/m 3,3 km/h (1 Bft) O 87 0 min 0,000 mm 1,1 UV-I 182 W/m 17,6 C 23,2 C 4,8 km/h (1 Bft) 100,00 %
28.07.2019 16:22 23,2 C 26,1 C 25,6 C 74 % 998,2 hPa 0,0 l/m 3,7 km/h (1 Bft) NO 49 0 min 0,000 mm 1,1 UV-I 174 W/m 18,3 C 23,2 C 4,8 km/h (1 Bft) 97,73 %
28.07.2019 16:24 23,2 C 26,1 C 25,0 C 75 % 998,2 hPa 0,0 l/m 4,2 km/h (1 Bft) O 81 0 min 0,000 mm 1,0 UV-I 167 W/m 18,5 C 23,2 C 6,4 km/h (2 Bft) 100,00 %
28.07.2019 16:26 23,1 C 26,1 C 25,0 C 74 % 998,2 hPa 0,0 l/m 3,7 km/h (1 Bft) O 81 0 min 0,000 mm 0,9 UV-I 152 W/m 18,2 C 23,1 C 4,8 km/h (1 Bft) 97,56 %
28.07.2019 16:28 22,9 C 26,1 C 24,4 C 74 % 998,3 hPa 0,0 l/m 2,0 km/h (1 Bft) O 81 0 min 0,000 mm 0,8 UV-I 139 W/m 18,0 C 22,9 C 3,2 km/h (1 Bft) 100,00 %
28.07.2019 16:30 22,8 C 26,1 C 23,9 C 74 % 998,2 hPa 0,0 l/m 1,9 km/h (1 Bft) O 84 0 min 0,000 mm 0,8 UV-I 130 W/m 17,9 C 22,8 C 4,8 km/h (1 Bft) 98,00 %
28.07.2019 16:32 22,8 C 26,1 C 23,9 C 76 % 998,3 hPa 0,0 l/m 2,9 km/h (1 Bft) O 84 0 min 0,000 mm 0,7 UV-I 122 W/m 18,3 C 22,8 C 4,8 km/h (1 Bft) 100,00 %
28.07.2019 16:34 22,7 C 26,1 C 22,8 C 76 % 998,3 hPa 0,0 l/m 2,7 km/h (1 Bft) O 84 0 min 0,000 mm 0,6 UV-I 106 W/m 18,2 C 22,7 C 4,8 km/h (1 Bft) 100,00 %
28.07.2019 16:36 22,6 C 26,1 C 22,8 C 78 % 998,3 hPa 0,0 l/m 4,0 km/h (1 Bft) O 86 0 min 0,000 mm 0,5 UV-I 94 W/m 18,6 C 22,6 C 4,8 km/h (1 Bft) 97,37 %
28.07.2019 16:38 22,6 C 26,1 C 22,2 C 78 % 998,3 hPa 0,0 l/m 2,8 km/h (1 Bft) O 86 0 min 0,000 mm 0,5 UV-I 87 W/m 18,6 C 22,6 C 4,8 km/h (1 Bft) 96,23 %
28.07.2019 16:40 22,6 C 26,1 C 22,2 C 77 % 998,3 hPa 0,0 l/m 0,9 km/h (0 Bft) O 86 0 min 0,000 mm 0,5 UV-I 84 W/m 18,4 C 22,6 C 3,2 km/h (1 Bft) 98,00 %
28.07.2019 16:42 22,5 C 26,1 C 22,2 C 77 % 998,3 hPa 0,0 l/m 0,8 km/h (0 Bft) O 86 0 min 0,000 mm 0,4 UV-I 82 W/m 18,3 C 22,5 C 1,6 km/h (1 Bft) 92,68 %
28.07.2019 16:44 22,5 C 26,1 C 22,2 C 79 % 998,3 hPa 0,0 l/m 1,1 km/h (1 Bft) O 86 0 min 0,000 mm 0,0 UV-I 79 W/m 18,7 C 22,5 C 3,2 km/h (1 Bft) 98,00 %
28.07.2019 16:46 22,5 C 26,1 C 22,2 C 80 % 998,2 hPa 0,0 l/m 0,6 km/h (0 Bft) O 86 0 min 0,000 mm 0,0 UV-I 78 W/m 18,9 C 22,5 C 1,6 km/h (1 Bft) 96,23 %
28.07.2019 16:48 22,4 C 26,1 C 22,2 C 81 % 998,3 hPa 0,0 l/m 0,0 km/h (0 Bft) O 86 0 min 0,000 mm 0,0 UV-I 77 W/m 19,0 C 22,4 C 0,0 km/h (0 Bft) 97,73 %
28.07.2019 16:50 22,4 C 26,1 C 22,2 C 81 % 998,3 hPa 0,0 l/m 0,0 km/h (0 Bft) O 86 0 min 0,000 mm 0,0 UV-I 77 W/m 19,0 C 22,4 C 0,0 km/h (0 Bft) 97,73 %
28.07.2019 16:52 22,4 C 26,1 C 22,2 C 78 % 998,2 hPa 0,0 l/m 0,0 km/h (0 Bft) O 86 0 min 0,000 mm 0,0 UV-I 78 W/m 18,4 C 22,4 C 0,0 km/h (0 Bft) 97,87 %
28.07.2019 16:54 22,4 C 26,1 C 22,2 C 78 % 998,2 hPa 0,0 l/m 0,0 km/h (0 Bft) O 88 0 min 0,000 mm 0,1 UV-I 87 W/m 18,4 C 22,4 C 0,0 km/h (0 Bft) 98,00 %
28.07.2019 16:56 22,4 C 26,1 C 22,2 C 78 % 998,2 hPa 0,0 l/m 0,0 km/h (0 Bft) O 88 0 min 0,000 mm 0,5 UV-I 108 W/m 18,4 C 22,4 C 0,0 km/h (0 Bft) 98,00 %
28.07.2019 16:58 22,4 C 26,1 C 22,8 C 79 % 998,2 hPa 0,0 l/m 0,7 km/h (0 Bft) SO 126 0 min 0,000 mm 0,7 UV-I 139 W/m 18,6 C 22,4 C 4,8 km/h (1 Bft) 97,14 %
28.07.2019 17:00 22,3 C 26,1 C 22,8 C 81 % 998,2 hPa 0,0 l/m 3,1 km/h (1 Bft) SO 142 0 min 0,000 mm 0,9 UV-I 176 W/m 18,9 C 22,3 C 4,8 km/h (1 Bft) 98,00 %
28.07.2019 17:02 22,3 C 26,1 C 23,3 C 82 % 998,2 hPa 0,0 l/m 3,0 km/h (1 Bft) S 172 0 min 0,102 mm 1,0 UV-I 213 W/m 19,1 C 22,3 C 6,4 km/h (2 Bft) 97,56 %
28.07.2019 17:04 22,2 C 26,1 C 23,3 C 81 % 998,2 hPa 0,0 l/m 2,9 km/h (1 Bft) S-SW 202 0 min 0,000 mm 1,0 UV-I 231 W/m 18,8 C 22,2 C 6,4 km/h (2 Bft) 96,43 %
28.07.2019 17:06 22,2 C 26,1 C 23,9 C 82 % 998,2 hPa 0,0 l/m 6,0 km/h (2 Bft) SW 223 0 min 0,000 mm 1,0 UV-I 233 W/m 19,0 C 22,2 C 9,7 km/h (2 Bft) 100,00 %
28.07.2019 17:08 22,1 C 26,1 C 23,9 C 82 % 998,3 hPa 0,0 l/m 6,9 km/h (2 Bft) S 172 0 min 0,000 mm 1,0 UV-I 231 W/m 18,9 C 21,9 C 9,7 km/h (2 Bft) 100,00 %
28.07.2019 17:10 22,0 C 26,1 C 23,9 C 80 % 998,3 hPa 0,0 l/m 6,5 km/h (2 Bft) S 186 0 min 0,000 mm 0,9 UV-I 221 W/m 18,4 C 22,0 C 9,7 km/h (2 Bft) 100,00 %
28.07.2019 17:12 22,1 C 26,1 C 24,4 C 82 % 998,3 hPa 0,0 l/m 4,7 km/h (1 Bft) S 180 0 min 0,000 mm 0,8 UV-I 204 W/m 18,9 C 22,1 C 6,4 km/h (2 Bft) 97,87 %
28.07.2019 17:14 22,1 C 26,1 C 24,4 C 82 % 998,4 hPa 0,0 l/m 3,7 km/h (1 Bft) S-SW 212 0 min 0,000 mm 0,7 UV-I 186 W/m 18,9 C 22,1 C 6,4 km/h (2 Bft) 98,00 %
28.07.2019 17:16 22,2 C 26,1 C 24,4 C 82 % 998,3 hPa 0,0 l/m 3,8 km/h (1 Bft) S 173 0 min 0,000 mm 0,7 UV-I 166 W/m 19,0 C 22,2 C 8,0 km/h (2 Bft) 100,00 %
28.07.2019 17:18 22,1 C 26,1 C 23,9 C 81 % 998,3 hPa 0,0 l/m 3,5 km/h (1 Bft) S 191 0 min 0,000 mm 0,7 UV-I 156 W/m 18,7 C 22,1 C 4,8 km/h (1 Bft) 100,00 %
28.07.2019 17:20 22,1 C 26,1 C 23,9 C 82 % 998,3 hPa 0,0 l/m 2,0 km/h (1 Bft) S 191 0 min 0,000 mm 0,7 UV-I 149 W/m 18,9 C 22,1 C 3,2 km/h (1 Bft) 100,00 %
28.07.2019 17:22 22,2 C 26,1 C 24,4 C 82 % 998,3 hPa 0,0 l/m 2,1 km/h (1 Bft) S 191 0 min 0,000 mm 0,7 UV-I 147 W/m 19,0 C 22,2 C 3,2 km/h (1 Bft) 100,00 %
28.07.2019 17:24 22,2 C 26,1 C 24,4 C 80 % 998,2 hPa 0,0 l/m 1,9 km/h (1 Bft) S 191 0 min 0,000 mm 0,7 UV-I 148 W/m 18,6 C 22,2 C 3,2 km/h (1 Bft) 100,00 %
28.07.2019 17:26 22,3 C 26,1 C 24,4 C 80 % 998,2 hPa 0,0 l/m 1,1 km/h (1 Bft) S 191 0 min 0,000 mm 0,7 UV-I 154 W/m 18,7 C 22,3 C 1,6 km/h (1 Bft) 100,00 %
28.07.2019 17:28 22,3 C 26,1 C 24,4 C 81 % 998,2 hPa 0,0 l/m 1,2 km/h (1 Bft) S 191 0 min 0,000 mm 0,7 UV-I 155 W/m 18,9 C 22,3 C 1,6 km/h (1 Bft) 100,00 %
28.07.2019 17:30 22,3 C 26,1 C 23,3 C 77 % 998,2 hPa 0,2 l/m 1,2 km/h (1 Bft) S 191 0 min 0,000 mm 0,8 UV-I 154 W/m 18,1 C 22,3 C 3,2 km/h (1 Bft) 100,00 %
28.07.2019 17:32 22,2 C 26,1 C 22,8 C 78 % 998,2 hPa 0,0 l/m 0,8 km/h (0 Bft) S 191 0 min 0,000 mm 0,8 UV-I 151 W/m 18,2 C 22,2 C 1,6 km/h (1 Bft) 97,73 %
28.07.2019 17:34 22,2 C 26,1 C 22,2 C 79 % 998,2 hPa 0,0 l/m 0,1 km/h (0 Bft) S 191 0 min 0,000 mm 0,7 UV-I 149 W/m 18,4 C 22,2 C 1,6 km/h (1 Bft) 96,23 %
28.07.2019 17:36 22,2 C 26,1 C 22,2 C 81 % 998,2 hPa 0,0 l/m 0,3 km/h (0 Bft) S 191 0 min 0,000 mm 0,7 UV-I 146 W/m 18,8 C 22,2 C 1,6 km/h (1 Bft) 98,11 %
28.07.2019 17:38 22,1 C 26,1 C 22,8 C 80 % 998,2 hPa 0,0 l/m 3,1 km/h (1 Bft) S 191 0 min 0,000 mm 0,7 UV-I 145 W/m 18,5 C 22,1 C 4,8 km/h (1 Bft) 97,87 %
28.07.2019 17:40 22,1 C 26,1 C 22,8 C 82 % 998,2 hPa 0,0 l/m 1,7 km/h (1 Bft) S 191 0 min 0,000 mm 0,7 UV-I 141 W/m 18,9 C 22,1 C 3,2 km/h (1 Bft) 94,29 %
28.07.2019 17:42 22,1 C 26,1 C 22,8 C 83 % 998,2 hPa 0,0 l/m 2,9 km/h (1 Bft) S-SW 202 0 min 0,000 mm 0,7 UV-I 139 W/m 19,1 C 22,1 C 4,8 km/h (1 Bft) 98,00 %
28.07.2019 17:44 22,2 C 26,1 C 22,8 C 83 % 998,2 hPa 0,0 l/m 4,6 km/h (1 Bft) SW 228 0 min 0,000 mm 0,7 UV-I 139 W/m 19,2 C 22,2 C 6,4 km/h (2 Bft) 95,74 %
28.07.2019 17:46 22,1 C 26,1 C 22,2 C 82 % 998,2 hPa 0,0 l/m 3,3 km/h (1 Bft) SW 228 0 min 0,000 mm 0,7 UV-I 140 W/m 18,9 C 22,1 C 4,8 km/h (1 Bft) 96,23 %
28.07.2019 17:48 22,1 C 26,1 C 22,8 C 83 % 998,2 hPa 0,0 l/m 3,6 km/h (1 Bft) SW 229 0 min 0,000 mm 0,7 UV-I 141 W/m 19,1 C 22,1 C 4,8 km/h (1 Bft) 95,24 %
28.07.2019 17:50 22,1 C 26,1 C 22,8 C 83 % 998,2 hPa 0,0 l/m 2,0 km/h (1 Bft) SW 230 0 min 0,000 mm 0,7 UV-I 135 W/m 19,1 C 22,1 C 4,8 km/h (1 Bft) 95,74 %
28.07.2019 17:52 22,0 C 26,1 C 22,8 C 83 % 998,2 hPa 0,0 l/m 3,3 km/h (1 Bft) SW 231 0 min 0,000 mm 0,6 UV-I 127 W/m 19,0 C 22,0 C 4,8 km/h (1 Bft) 96,00 %
28.07.2019 17:54 21,9 C 26,1 C 23,3 C 84 % 998,2 hPa 0,0 l/m 1,7 km/h (1 Bft) SW 231 0 min 0,000 mm 0,6 UV-I 120 W/m 19,1 C 21,9 C 3,2 km/h (1 Bft) 93,62 %
28.07.2019 17:56 21,9 C 26,1 C 22,8 C 83 % 998,2 hPa 0,0 l/m 2,2 km/h (1 Bft) SW 231 0 min 0,000 mm 0,6 UV-I 118 W/m 18,9 C 21,9 C 4,8 km/h (1 Bft) 95,74 %
28.07.2019 17:58 22,0 C 26,1 C 22,8 C 83 % 998,3 hPa 0,0 l/m 2,9 km/h (1 Bft) SW 230 0 min 0,000 mm 0,6 UV-I 123 W/m 19,0 C 22,0 C 4,8 km/h (1 Bft) 93,62 %
28.07.2019 18:00 22,1 C 26,1 C 23,3 C 83 % 998,3 hPa 0,0 l/m 2,3 km/h (1 Bft) SW 231 0 min 0,102 mm 0,6 UV-I 129 W/m 19,1 C 22,1 C 3,2 km/h (1 Bft) 95,45 %
28.07.2019 18:02 22,2 C 26,1 C 23,3 C 83 % 998,3 hPa 0,0 l/m 1,9 km/h (1 Bft) SW 231 0 min 0,000 mm 0,6 UV-I 134 W/m 19,2 C 22,2 C 3,2 km/h (1 Bft) 96,00 %
28.07.2019 18:04 22,2 C 26,1 C 23,3 C 83 % 998,3 hPa 0,0 l/m 1,2 km/h (1 Bft) SW 231 0 min 0,000 mm 0,7 UV-I 136 W/m 19,2 C 22,2 C 1,6 km/h (1 Bft) 93,62 %
28.07.2019 18:06 22,2 C 26,1 C 23,3 C 82 % 998,4 hPa 0,0 l/m 0,6 km/h (0 Bft) SW 231 0 min 0,000 mm 0,6 UV-I 128 W/m 19,0 C 22,2 C 1,6 km/h (1 Bft) 96,00 %
28.07.2019 18:08 22,2 C 26,1 C 23,3 C 82 % 998,4 hPa 0,0 l/m 0,2 km/h (0 Bft) SW 231 0 min 0,000 mm 0,6 UV-I 122 W/m 19,0 C 22,2 C 1,6 km/h (1 Bft) 94,74 %
28.07.2019 18:10 22,2 C 26,1 C 23,3 C 81 % 998,4 hPa 0,0 l/m 0,7 km/h (0 Bft) SW 231 0 min 0,000 mm 0,6 UV-I 114 W/m 18,8 C 22,2 C 1,6 km/h (1 Bft) 95,74 %
28.07.2019 18:12 22,3 C 26,1 C 23,9 C 80 % 998,4 hPa 0,0 l/m 0,3 km/h (0 Bft) SW 231 0 min 0,000 mm 0,6 UV-I 117 W/m 18,7 C 22,3 C 1,6 km/h (1 Bft) 96,43 %
28.07.2019 18:14 22,3 C 26,1 C 23,9 C 80 % 998,5 hPa 0,0 l/m 0,8 km/h (0 Bft) SW 231 0 min 0,000 mm 0,6 UV-I 124 W/m 18,7 C 22,3 C 1,6 km/h (1 Bft) 92,11 %
28.07.2019 18:16 22,4 C 26,1 C 23,9 C 81 % 998,4 hPa 0,0 l/m 2,1 km/h (1 Bft) SW 231 0 min 0,000 mm 0,6 UV-I 133 W/m 19,0 C 22,4 C 3,2 km/h (1 Bft) 92,00 %
28.07.2019 18:18 22,4 C 26,1 C 23,9 C 79 % 998,4 hPa 0,0 l/m 2,8 km/h (1 Bft) SW 235 0 min 0,000 mm 0,6 UV-I 139 W/m 18,6 C 22,4 C 4,8 km/h (1 Bft) 97,56 %
28.07.2019 18:20 22,3 C 26,1 C 23,9 C 80 % 998,4 hPa 0,0 l/m 1,7 km/h (1 Bft) SW 235 0 min 0,000 mm 0,6 UV-I 155 W/m 18,7 C 22,3 C 3,2 km/h (1 Bft) 94,00 %
28.07.2019 18:22 22,3 C 26,1 C 24,4 C 82 % 998,5 hPa 0,0 l/m 1,8 km/h (1 Bft) W-SW 249 0 min 0,000 mm 0,5 UV-I 162 W/m 19,1 C 22,3 C 3,2 km/h (1 Bft) 96,00 %
28.07.2019 18:24 22,3 C 26,1 C 25,0 C 82 % 998,5 hPa 0,0 l/m 0,8 km/h (0 Bft) W-NW 282 0 min 0,000 mm 0,5 UV-I 160 W/m 19,1 C 22,3 C 1,6 km/h (1 Bft) 95,24 %
28.07.2019 18:26 22,3 C 26,1 C 25,0 C 81 % 998,5 hPa 0,0 l/m 0,4 km/h (0 Bft) W-NW 282 0 min 0,000 mm 0,4 UV-I 170 W/m 18,9 C 22,3 C 1,6 km/h (1 Bft) 95,74 %
28.07.2019 18:28 22,3 C 26,1 C 25,0 C 83 % 998,5 hPa 0,0 l/m 0,7 km/h (0 Bft) W-NW 282 0 min 0,000 mm 0,0 UV-I 171 W/m 19,3 C 22,3 C 1,6 km/h (1 Bft) 96,23 %
28.07.2019 18:30 22,4 C 26,1 C 25,0 C 82 % 998,5 hPa 0,0 l/m 1,0 km/h (0 Bft) W-NW 282 0 min 0,000 mm 0,0 UV-I 149 W/m 19,2 C 22,4 C 3,2 km/h (1 Bft) 94,00 %
28.07.2019 18:32 22,4 C 26,1 C 25,0 C 82 % 998,5 hPa 0,0 l/m 1,2 km/h (1 Bft) W-NW 282 0 min 0,000 mm 0,0 UV-I 120 W/m 19,2 C 22,4 C 3,2 km/h (1 Bft) 93,62 %
28.07.2019 18:34 22,4 C 26,1 C 25,0 C 82 % 998,6 hPa 0,0 l/m 1,2 km/h (1 Bft) W-NW 282 0 min 0,000 mm 0,0 UV-I 102 W/m 19,2 C 22,4 C 1,6 km/h (1 Bft) 95,12 %
28.07.2019 18:36 22,4 C 26,1 C 24,4 C 81 % 998,6 hPa 0,0 l/m 1,6 km/h (1 Bft) W-NW 290 0 min 0,000 mm 0,0 UV-I 81 W/m 19,0 C 22,4 C 3,2 km/h (1 Bft) 95,74 %
28.07.2019 18:38 22,4 C 26,1 C 24,4 C 82 % 998,6 hPa 0,0 l/m 1,4 km/h (1 Bft) W-NW 290 0 min 0,000 mm 0,0 UV-I 70 W/m 19,2 C 22,4 C 1,6 km/h (1 Bft) 94,74 %
28.07.2019 18:40 22,3 C 26,1 C 23,9 C 81 % 998,6 hPa 0,0 l/m 1,4 km/h (1 Bft) W-NW 290 0 min 0,000 mm 0,0 UV-I 68 W/m 18,9 C 22,3 C 3,2 km/h (1 Bft) 98,18 %
28.07.2019 18:42 22,3 C 26,1 C 23,9 C 81 % 998,6 hPa 0,0 l/m 1,3 km/h (1 Bft) W-NW 291 0 min 0,000 mm 0,0 UV-I 70 W/m 18,9 C 22,3 C 3,2 km/h (1 Bft) 97,87 %
28.07.2019 18:44 22,3 C 26,1 C 23,9 C 81 % 998,6 hPa 0,0 l/m 0,9 km/h (0 Bft) W-NW 291 0 min 0,000 mm 0,0 UV-I 69 W/m 18,9 C 22,3 C 1,6 km/h (1 Bft) 100,00 %
28.07.2019 18:46 22,3 C 26,1 C 23,9 C 81 % 998,7 hPa 0,0 l/m 0,5 km/h (0 Bft) W-NW 291 0 min 0,000 mm 0,0 UV-I 70 W/m 18,9 C 22,3 C 1,6 km/h (1 Bft) 100,00 %
28.07.2019 18:48 22,3 C 26,1 C 23,3 C 82 % 998,7 hPa 0,0 l/m 2,0 km/h (1 Bft) W-NW 291 0 min 0,000 mm 0,0 UV-I 77 W/m 19,1 C 22,3 C 3,2 km/h (1 Bft) 95,74 %
28.07.2019 18:50 22,3 C 26,1 C 23,3 C 82 % 998,6 hPa 0,0 l/m 1,2 km/h (1 Bft) W-NW 291 0 min 0,000 mm 0,0 UV-I 76 W/m 19,1 C 22,3 C 3,2 km/h (1 Bft) 100,00 %
28.07.2019 18:52 22,2 C 26,1 C 23,3 C 82 % 998,7 hPa 0,0 l/m 1,2 km/h (1 Bft) W-NW 291 0 min 0,000 mm 0,0 UV-I 68 W/m 19,0 C 22,2 C 3,2 km/h (1 Bft) 100,00 %
28.07.2019 18:54 22,2 C 26,1 C 23,3 C 82 % 998,7 hPa 0,0 l/m 1,1 km/h (1 Bft) W-NW 291 0 min 0,000 mm 0,0 UV-I 59 W/m 19,0 C 22,2 C 3,2 km/h (1 Bft) 100,00 %
28.07.2019 18:56 22,2 C 26,1 C 23,3 C 83 % 998,7 hPa 0,0 l/m 1,4 km/h (1 Bft) W-NW 291 0 min 0,000 mm 0,0 UV-I 51 W/m 19,2 C 22,2 C 3,2 km/h (1 Bft) 100,00 %
28.07.2019 18:58 22,3 C 26,1 C 23,3 C 83 % 998,7 hPa 0,0 l/m 2,7 km/h (1 Bft) W-NW 292 0 min 0,000 mm 0,0 UV-I 45 W/m 19,3 C 22,3 C 3,2 km/h (1 Bft) 95,12 %
28.07.2019 19:00 22,3 C 26,1 C 23,3 C 82 % 998,7 hPa 0,0 l/m 2,8 km/h (1 Bft) W-NW 292 0 min 0,076 mm 0,0 UV-I 41 W/m 19,1 C 22,3 C 4,8 km/h (1 Bft) 100,00 %
28.07.2019 19:02 22,2 C 26,1 C 22,8 C 83 % 998,8 hPa 0,0 l/m 3,1 km/h (1 Bft) W-NW 296 0 min 0,000 mm 0,0 UV-I 40 W/m 19,2 C 22,2 C 4,8 km/h (1 Bft) 100,00 %
28.07.2019 19:04 22,2 C 26,1 C 22,8 C 82 % 998,8 hPa 0,0 l/m 3,1 km/h (1 Bft) W-NW 296 0 min 0,000 mm 0,0 UV-I 38 W/m 19,0 C 22,2 C 4,8 km/h (1 Bft) 100,00 %
28.07.2019 19:06 22,1 C 26,1 C 22,8 C 83 % 998,8 hPa 0,0 l/m 2,6 km/h (1 Bft) W-NW 296 0 min 0,000 mm 0,0 UV-I 36 W/m 19,1 C 22,1 C 4,8 km/h (1 Bft) 100,00 %
28.07.2019 19:08 22,1 C 26,1 C 22,8 C 83 % 998,8 hPa 0,0 l/m 2,3 km/h (1 Bft) W-NW 296 0 min 0,000 mm 0,0 UV-I 34 W/m 19,1 C 22,1 C 3,2 km/h (1 Bft) 100,00 %
28.07.2019 19:10 22,1 C 26,1 C 22,8 C 83 % 998,8 hPa 0,0 l/m 2,2 km/h (1 Bft) W-NW 296 0 min 0,000 mm 0,0 UV-I 33 W/m 19,1 C 22,1 C 3,2 km/h (1 Bft) 100,00 %
28.07.2019 19:12 22,0 C 26,1 C 22,8 C 83 % 998,8 hPa 0,0 l/m 2,0 km/h (1 Bft) W-NW 297 0 min 0,000 mm 0,0 UV-I 33 W/m 19,0 C 22,0 C 3,2 km/h (1 Bft) 100,00 %
28.07.2019 19:14 22,0 C 26,1 C 22,8 C 83 % 998,8 hPa 0,0 l/m 2,2 km/h (1 Bft) W-NW 297 0 min 0,000 mm 0,0 UV-I 34 W/m 19,0 C 22,0 C 3,2 km/h (1 Bft) 100,00 %
28.07.2019 19:16 22,0 C 26,1 C 22,8 C 83 % 998,9 hPa 0,0 l/m 2,2 km/h (1 Bft) W-NW 297 0 min 0,000 mm 0,0 UV-I 37 W/m 19,0 C 22,0 C 3,2 km/h (1 Bft) 100,00 %
28.07.2019 19:18 21,9 C 26,1 C 22,2 C 82 % 998,9 hPa 0,0 l/m 2,5 km/h (1 Bft) W-NW 297 0 min 0,000 mm 0,0 UV-I 39 W/m 18,7 C 21,9 C 3,2 km/h (1 Bft) 97,37 %
28.07.2019 19:20 21,9 C 26,1 C 22,2 C 83 % 999,0 hPa 0,0 l/m 2,0 km/h (1 Bft) W-NW 297 0 min 0,000 mm 0,0 UV-I 41 W/m 18,9 C 21,9 C 3,2 km/h (1 Bft) 100,00 %
28.07.2019 19:22 21,9 C 26,1 C 22,2 C 83 % 999,0 hPa 0,0 l/m 1,4 km/h (1 Bft) W-NW 298 0 min 0,000 mm 0,0 UV-I 46 W/m 18,9 C 21,9 C 3,2 km/h (1 Bft) 100,00 %
28.07.2019 19:24 21,9 C 26,1 C 22,2 C 84 % 998,9 hPa 0,0 l/m 1,6 km/h (1 Bft) W-NW 297 0 min 0,000 mm 0,0 UV-I 49 W/m 19,1 C 21,9 C 3,2 km/h (1 Bft) 100,00 %
28.07.2019 19:26 22,0 C 26,1 C 22,2 C 83 % 999,0 hPa 0,0 l/m 0,6 km/h (0 Bft) W-NW 297 0 min 0,000 mm 0,0 UV-I 47 W/m 19,0 C 22,0 C 1,6 km/h (1 Bft) 100,00 %
28.07.2019 19:28 22,0 C 26,1 C 22,2 C 83 % 998,9 hPa 0,0 l/m 1,6 km/h (1 Bft) W-NW 298 0 min 0,000 mm 0,0 UV-I 43 W/m 19,0 C 22,0 C 3,2 km/h (1 Bft) 100,00 %
28.07.2019 19:30 21,9 C 26,1 C 22,2 C 83 % 999,0 hPa 0,0 l/m 2,0 km/h (1 Bft) W 271 0 min 0,000 mm 0,0 UV-I 39 W/m 18,9 C 21,9 C 3,2 km/h (1 Bft) 100,00 %
28.07.2019 19:32 21,9 C 26,1 C 22,2 C 83 % 999,0 hPa 0,0 l/m 2,1 km/h (1 Bft) W-NW 288 0 min 0,000 mm 0,0 UV-I 35 W/m 18,9 C 21,9 C 4,8 km/h (1 Bft) 100,00 %
28.07.2019 19:34 21,9 C 26,1 C 22,2 C 83 % 999,0 hPa 0,0 l/m 2,1 km/h (1 Bft) W-NW 290 0 min 0,000 mm 0,0 UV-I 27 W/m 18,9 C 21,9 C 3,2 km/h (1 Bft) 100,00 %
28.07.2019 19:36 21,8 C 26,1 C 22,2 C 83 % 999,0 hPa 0,0 l/m 2,2 km/h (1 Bft) W-NW 291 0 min 0,000 mm 0,0 UV-I 20 W/m 18,8 C 21,8 C 3,2 km/h (1 Bft) 100,00 %
28.07.2019 19:38 21,8 C 26,1 C 22,2 C 83 % 999,0 hPa 0,0 l/m 3,0 km/h (1 Bft) W-NW 292 0 min 0,000 mm 0,0 UV-I 17 W/m 18,8 C 21,8 C 4,8 km/h (1 Bft) 100,00 %
28.07.2019 19:40 21,8 C 26,1 C 22,2 C 83 % 999,1 hPa 0,0 l/m 2,5 km/h (1 Bft) W-NW 292 0 min 0,000 mm 0,0 UV-I 14 W/m 18,8 C 21,8 C 3,2 km/h (1 Bft) 96,15 %
28.07.2019 19:42 21,8 C 26,1 C 22,2 C 83 % 999,1 hPa 0,0 l/m 1,0 km/h (0 Bft) W-NW 292 0 min 0,000 mm 0,0 UV-I 14 W/m 18,8 C 21,8 C 1,6 km/h (1 Bft) 97,62 %
28.07.2019 19:44 21,7 C 26,1 C 22,2 C 83 % 999,1 hPa 0,0 l/m 1,5 km/h (1 Bft) NW 311 0 min 0,000 mm 0,0 UV-I 15 W/m 18,7 C 21,7 C 4,8 km/h (1 Bft) 96,43 %
28.07.2019 19:46 21,7 C 26,1 C 21,7 C 84 % 999,1 hPa 0,0 l/m 2,3 km/h (1 Bft) NW 312 0 min 0,000 mm 0,0 UV-I 15 W/m 18,9 C 21,7 C 4,8 km/h (1 Bft) 95,74 %
28.07.2019 19:48 21,7 C 26,1 C 21,7 C 84 % 999,1 hPa 0,0 l/m 3,9 km/h (1 Bft) N-NO 22 0 min 0,000 mm 0,0 UV-I 16 W/m 18,9 C 21,7 C 4,8 km/h (1 Bft) 93,62 %
28.07.2019 19:50 21,7 C 26,1 C 21,7 C 84 % 999,1 hPa 0,0 l/m 3,8 km/h (1 Bft) N 5 0 min 0,000 mm 0,0 UV-I 14 W/m 18,9 C 21,7 C 4,8 km/h (1 Bft) 95,45 %
28.07.2019 19:52 21,6 C 26,1 C 21,7 C 84 % 999,1 hPa 0,0 l/m 4,5 km/h (1 Bft) N 349 0 min 0,000 mm 0,0 UV-I 15 W/m 18,8 C 21,6 C 6,4 km/h (2 Bft) 95,74 %
28.07.2019 19:54 21,6 C 26,1 C 21,7 C 84 % 999,1 hPa 0,0 l/m 3,5 km/h (1 Bft) N 355 0 min 0,000 mm 0,0 UV-I 18 W/m 18,8 C 21,6 C 4,8 km/h (1 Bft) 97,37 %
28.07.2019 19:56 21,7 C 26,1 C 21,7 C 84 % 999,2 hPa 0,0 l/m 2,1 km/h (1 Bft) N 355 0 min 0,000 mm 0,0 UV-I 19 W/m 18,9 C 21,7 C 3,2 km/h (1 Bft) 94,64 %
28.07.2019 19:58 21,7 C 26,1 C 21,7 C 84 % 999,2 hPa 0,0 l/m 2,7 km/h (1 Bft) N 5 0 min 0,000 mm 0,0 UV-I 17 W/m 18,9 C 21,7 C 4,8 km/h (1 Bft) 91,49 %
28.07.2019 20:00 21,7 C 26,1 C 21,1 C 85 % 999,3 hPa 0,2 l/m 1,8 km/h (1 Bft) N 5 0 min 0,000 mm 0,0 UV-I 13 W/m 19,1 C 21,7 C 3,2 km/h (1 Bft) 97,37 %
28.07.2019 20:02 21,6 C 26,1 C 21,1 C 86 % 999,3 hPa 0,2 l/m 2,1 km/h (1 Bft) N 9 0 min 0,025 mm 0,0 UV-I 11 W/m 19,2 C 21,6 C 3,2 km/h (1 Bft) 94,34 %
28.07.2019 20:04 21,4 C 26,1 C 21,1 C 87 % 999,3 hPa 0,2 l/m 2,3 km/h (1 Bft) N 9 0 min 0,000 mm 0,0 UV-I 9 W/m 19,1 C 21,4 C 3,2 km/h (1 Bft) 95,74 %
28.07.2019 20:06 21,3 C 26,1 C 21,1 C 87 % 999,3 hPa 0,2 l/m 2,0 km/h (1 Bft) N 9 0 min 0,000 mm 0,0 UV-I 9 W/m 19,0 C 21,3 C 3,2 km/h (1 Bft) 96,00 %
28.07.2019 20:08 21,2 C 26,1 C 21,1 C 89 % 999,3 hPa 0,0 l/m 2,0 km/h (1 Bft) N 9 0 min 0,000 mm 0,0 UV-I 8 W/m 19,3 C 21,2 C 3,2 km/h (1 Bft) 94,74 %
28.07.2019 20:10 21,1 C 26,1 C 21,1 C 89 % 999,3 hPa 0,2 l/m 1,9 km/h (1 Bft) N 9 0 min 0,000 mm 0,0 UV-I 7 W/m 19,2 C 21,1 C 3,2 km/h (1 Bft) 95,74 %
28.07.2019 20:12 20,9 C 26,1 C 21,1 C 90 % 999,4 hPa 0,2 l/m 0,6 km/h (0 Bft) N 9 0 min 0,000 mm 0,0 UV-I 7 W/m 19,2 C 20,9 C 1,6 km/h (1 Bft) 96,23 %
28.07.2019 20:14 20,9 C 26,1 C 21,1 C 92 % 999,3 hPa 0,0 l/m 0,1 km/h (0 Bft) N 9 0 min 0,000 mm 0,0 UV-I 7 W/m 19,5 C 20,9 C 1,6 km/h (1 Bft) 100,00 %
28.07.2019 20:16 20,8 C 26,1 C 21,1 C 92 % 999,4 hPa 0,0 l/m 1,1 km/h (1 Bft) N 9 0 min 0,000 mm 0,0 UV-I 7 W/m 19,4 C 20,8 C 1,6 km/h (1 Bft) 100,00 %
28.07.2019 20:18 20,8 C 26,1 C 21,1 C 92 % 999,4 hPa 0,0 l/m 2,0 km/h (1 Bft) N 9 0 min 0,000 mm 0,0 UV-I 5 W/m 19,4 C 20,8 C 3,2 km/h (1 Bft) 100,00 %
28.07.2019 20:20 20,8 C 26,1 C 20,6 C 92 % 999,5 hPa 0,0 l/m 1,8 km/h (1 Bft) N 9 0 min 0,000 mm 0,0 UV-I 5 W/m 19,4 C 20,8 C 3,2 km/h (1 Bft) 100,00 %
28.07.2019 20:22 20,8 C 26,1 C 20,6 C 92 % 999,5 hPa 0,0 l/m 2,7 km/h (1 Bft) NW 321 0 min 0,000 mm 0,0 UV-I 5 W/m 19,4 C 20,8 C 4,8 km/h (1 Bft) 98,21 %
28.07.2019 20:24 20,8 C 26,1 C 20,6 C 93 % 999,4 hPa 0,0 l/m 3,5 km/h (1 Bft) W-SW 255 0 min 0,000 mm 0,0 UV-I 5 W/m 19,6 C 20,8 C 6,4 km/h (2 Bft) 100,00 %
28.07.2019 20:26 20,8 C 26,1 C 20,6 C 93 % 999,5 hPa 0,0 l/m 5,1 km/h (1 Bft) SW 234 0 min 0,000 mm 0,0 UV-I 5 W/m 19,6 C 20,8 C 6,4 km/h (2 Bft) 97,73 %
28.07.2019 20:28 20,7 C 26,1 C 20,6 C 93 % 999,5 hPa 0,0 l/m 4,9 km/h (1 Bft) W-SW 247 0 min 0,000 mm 0,0 UV-I 5 W/m 19,5 C 20,7 C 6,4 km/h (2 Bft) 100,00 %
28.07.2019 20:30 20,6 C 26,1 C 20,6 C 93 % 999,5 hPa 0,0 l/m 5,6 km/h (1 Bft) W 260 0 min 0,000 mm 0,0 UV-I 4 W/m 19,4 C 20,6 C 6,4 km/h (2 Bft) 98,00 %
28.07.2019 20:32 20,5 C 26,1 C 20,6 C 93 % 999,5 hPa 0,0 l/m 5,0 km/h (1 Bft) W-SW 257 0 min 0,000 mm 0,0 UV-I 0 W/m 19,3 C 20,5 C 9,7 km/h (2 Bft) 95,65 %
28.07.2019 20:34 20,4 C 26,1 C 20,6 C 93 % 999,5 hPa 0,0 l/m 5,6 km/h (1 Bft) W 259 0 min 0,000 mm 0,0 UV-I 0 W/m 19,2 C 20,4 C 9,7 km/h (2 Bft) 100,00 %
28.07.2019 20:36 20,4 C 26,1 C 20,6 C 93 % 999,5 hPa 0,0 l/m 5,8 km/h (2 Bft) W-SW 244 0 min 0,000 mm 0,0 UV-I 0 W/m 19,2 C 20,4 C 9,7 km/h (2 Bft) 100,00 %
28.07.2019 20:39 20,3 C 26,1 C 20,0 C 93 % 999,5 hPa 0,0 l/m 6,0 km/h (2 Bft) W-SW 257 0 min 0,000 mm 0,0 UV-I 0 W/m 19,1 C 20,3 C 9,7 km/h (2 Bft) 100,00 %
28.07.2019 20:40 20,3 C 26,1 C 20,6 C 93 % 999,5 hPa 0,2 l/m 4,4 km/h (1 Bft) W-SW 258 0 min 0,000 mm 0,0 UV-I 0 W/m 19,1 C 20,3 C 6,4 km/h (2 Bft) 100,00 %
28.07.2019 20:42 20,3 C 26,1 C 20,6 C 93 % 999,6 hPa 0,0 l/m 3,7 km/h (1 Bft) W-SW 258 0 min 0,000 mm 0,0 UV-I 0 W/m 19,1 C 20,3 C 4,8 km/h (1 Bft) 100,00 %
28.07.2019 20:44 20,3 C 26,1 C 20,6 C 93 % 999,6 hPa 0,0 l/m 3,1 km/h (1 Bft) W-SW 254 0 min 0,000 mm 0,0 UV-I 0 W/m 19,1 C 20,3 C 4,8 km/h (1 Bft) 98,11 %
28.07.2019 20:46 20,3 C 26,1 C 20,6 C 93 % 999,6 hPa 0,0 l/m 5,1 km/h (1 Bft) W 269 0 min 0,000 mm 0,0 UV-I 0 W/m 19,1 C 20,3 C 8,0 km/h (2 Bft) 100,00 %
28.07.2019 20:48 20,3 C 26,1 C 20,0 C 93 % 999,7 hPa 0,0 l/m 3,8 km/h (1 Bft) W-SW 248 0 min 0,000 mm 0,0 UV-I 0 W/m 19,1 C 20,3 C 4,8 km/h (1 Bft) 100,00 %
28.07.2019 20:50 20,3 C 26,1 C 20,6 C 93 % 999,7 hPa 0,0 l/m 4,8 km/h (1 Bft) SW 223 0 min 0,000 mm 0,0 UV-I 0 W/m 19,1 C 20,3 C 8,0 km/h (2 Bft) 100,00 %
28.07.2019 20:52 20,2 C 26,1 C 20,6 C 93 % 999,7 hPa 0,0 l/m 5,4 km/h (1 Bft) W-SW 237 0 min 0,000 mm 0,0 UV-I 0 W/m 19,0 C 20,2 C 8,0 km/h (2 Bft) 100,00 %
28.07.2019 20:54 20,2 C 26,1 C 20,6 C 93 % 999,7 hPa 0,0 l/m 5,6 km/h (1 Bft) W-SW 247 0 min 0,000 mm 0,0 UV-I 0 W/m 19,0 C 20,2 C 8,0 km/h (2 Bft) 100,00 %
28.07.2019 20:56 20,1 C 26,1 C 20,0 C 93 % 999,7 hPa 0,0 l/m 5,3 km/h (1 Bft) W-SW 244 0 min 0,000 mm 0,0 UV-I 0 W/m 18,9 C 20,1 C 8,0 km/h (2 Bft) 97,44 %
28.07.2019 20:58 20,1 C 26,1 C 20,0 C 93 % 999,8 hPa 0,0 l/m 6,5 km/h (2 Bft) SW 236 0 min 0,000 mm 0,0 UV-I 0 W/m 18,9 C 20,1 C 11,3 km/h (2 Bft) 100,00 %
28.07.2019 21:00 20,1 C 26,1 C 20,0 C 93 % 999,8 hPa 0,0 l/m 5,3 km/h (1 Bft) W-SW 245 0 min 0,000 mm 0,0 UV-I 0 W/m 18,9 C 20,1 C 8,0 km/h (2 Bft) 97,87 %
28.07.2019 21:02 20,1 C 26,1 C 20,0 C 93 % 999,8 hPa 0,0 l/m 6,4 km/h (2 Bft) SW 236 0 min 0,000 mm 0,0 UV-I 0 W/m 18,9 C 20,1 C 9,7 km/h (2 Bft) 100,00 %
28.07.2019 21:04 20,1 C 26,1 C 20,0 C 93 % 999,8 hPa 0,0 l/m 5,5 km/h (1 Bft) W-SW 240 0 min 0,000 mm 0,0 UV-I 0 W/m 18,9 C 20,1 C 8,0 km/h (2 Bft) 97,87 %
28.07.2019 21:06 20,0 C 26,1 C 20,0 C 93 % 999,9 hPa 0,0 l/m 6,4 km/h (2 Bft) S-SW 206 0 min 0,000 mm 0,0 UV-I 0 W/m 18,8 C 20,0 C 11,3 km/h (2 Bft) 100,00 %
28.07.2019 21:08 19,9 C 26,1 C 20,0 C 93 % 999,9 hPa 0,0 l/m 10,0 km/h (2 Bft) SW 236 0 min 0,000 mm 0,0 UV-I 0 W/m 18,7 C 18,5 C 12,9 km/h (3 Bft) 100,00 %
28.07.2019 21:10 19,9 C 26,1 C 20,0 C 93 % 999,9 hPa 0,0 l/m 8,7 km/h (2 Bft) SW 221 0 min 0,000 mm 0,0 UV-I 0 W/m 18,7 C 19,0 C 14,5 km/h (3 Bft) 100,00 %
28.07.2019 21:12 19,8 C 26,1 C 20,0 C 94 % 1000,0 hPa 0,0 l/m 10,2 km/h (2 Bft) SW 222 0 min 0,000 mm 0,0 UV-I 0 W/m 18,8 C 18,4 C 14,5 km/h (3 Bft) 100,00 %
28.07.2019 21:14 19,8 C 26,1 C 20,0 C 94 % 1000,1 hPa 0,0 l/m 8,4 km/h (2 Bft) W-SW 246 0 min 0,000 mm 0,0 UV-I 0 W/m 18,8 C 19,0 C 14,5 km/h (3 Bft) 100,00 %
28.07.2019 21:16 19,8 C 26,1 C 20,0 C 94 % 1000,2 hPa 0,0 l/m 8,8 km/h (2 Bft) W-SW 254 0 min 0,000 mm 0,0 UV-I 0 W/m 18,8 C 18,8 C 14,5 km/h (3 Bft) 100,00 %
28.07.2019 21:18 19,7 C 25,6 C 20,0 C 94 % 1000,2 hPa 0,0 l/m 6,5 km/h (2 Bft) S-SW 207 0 min 0,000 mm 0,0 UV-I 0 W/m 18,7 C 19,7 C 11,3 km/h (2 Bft) 100,00 %
28.07.2019 21:20 19,7 C 26,1 C 20,0 C 94 % 1000,2 hPa 0,0 l/m 7,5 km/h (2 Bft) S-SW 200 0 min 0,000 mm 0,0 UV-I 0 W/m 18,7 C 19,2 C 12,9 km/h (3 Bft) 94,00 %
28.07.2019 21:22 19,7 C 25,6 C 20,0 C 94 % 1000,2 hPa 0,0 l/m 8,7 km/h (2 Bft) W-SW 244 0 min 0,000 mm 0,0 UV-I 0 W/m 18,7 C 18,8 C 14,5 km/h (3 Bft) 97,56 %
28.07.2019 21:24 19,6 C 25,6 C 20,0 C 94 % 1000,2 hPa 0,0 l/m 10,6 km/h (2 Bft) SW 220 0 min 0,000 mm 0,0 UV-I 0 W/m 18,6 C 18,0 C 14,5 km/h (3 Bft) 97,87 %
28.07.2019 21:26 19,6 C 25,6 C 19,4 C 94 % 1000,2 hPa 0,2 l/m 10,4 km/h (2 Bft) W-SW 238 0 min 0,000 mm 0,0 UV-I 0 W/m 18,6 C 18,1 C 17,7 km/h (3 Bft) 98,21 %
28.07.2019 21:28 19,6 C 25,6 C 19,4 C 94 % 1000,2 hPa 0,0 l/m 10,0 km/h (2 Bft) SW 223 0 min 0,000 mm 0,0 UV-I 0 W/m 18,6 C 18,2 C 14,5 km/h (3 Bft) 89,36 %
28.07.2019 21:30 19,6 C 25,6 C 19,4 C 94 % 1000,3 hPa 0,0 l/m 8,9 km/h (2 Bft) SW 235 0 min 0,000 mm 0,0 UV-I 0 W/m 18,6 C 18,6 C 16,1 km/h (3 Bft) 96,00 %
28.07.2019 21:32 19,5 C 25,6 C 19,4 C 94 % 1000,3 hPa 0,0 l/m 8,4 km/h (2 Bft) W 266 0 min 0,000 mm 0,0 UV-I 0 W/m 18,5 C 18,7 C 11,3 km/h (2 Bft) 91,67 %
28.07.2019 21:34 19,5 C 25,6 C 19,4 C 94 % 1000,4 hPa 0,0 l/m 10,0 km/h (2 Bft) W-SW 255 0 min 0,000 mm 0,0 UV-I 0 W/m 18,5 C 18,1 C 14,5 km/h (3 Bft) 96,36 %
28.07.2019 21:36 19,5 C 25,6 C 19,4 C 94 % 1000,4 hPa 0,0 l/m 6,7 km/h (2 Bft) W 263 0 min 0,000 mm 0,0 UV-I 0 W/m 18,5 C 19,4 C 12,9 km/h (3 Bft) 95,24 %
28.07.2019 21:38 19,4 C 25,6 C 19,4 C 94 % 1000,5 hPa 0,0 l/m 4,1 km/h (1 Bft) W-SW 257 0 min 0,000 mm 0,0 UV-I 0 W/m 18,4 C 19,4 C 11,3 km/h (2 Bft) 94,34 %
28.07.2019 21:40 19,4 C 25,6 C 19,4 C 94 % 1000,5 hPa 0,0 l/m 7,0 km/h (2 Bft) W-SW 242 0 min 0,000 mm 0,0 UV-I 0 W/m 18,4 C 19,1 C 9,7 km/h (2 Bft) 90,24 %
28.07.2019 21:42 19,4 C 25,6 C 19,4 C 94 % 1000,5 hPa 0,0 l/m 5,5 km/h (1 Bft) SW 235 0 min 0,000 mm 0,0 UV-I 0 W/m 18,4 C 19,4 C 8,0 km/h (2 Bft) 92,00 %
28.07.2019 21:44 19,4 C 25,6 C 19,4 C 94 % 1000,6 hPa 0,0 l/m 6,0 km/h (2 Bft) S 186 0 min 0,000 mm 0,0 UV-I 0 W/m 18,4 C 19,4 C 8,0 km/h (2 Bft) 95,12 %
28.07.2019 21:46 19,4 C 25,6 C 19,4 C 94 % 1000,6 hPa 0,0 l/m 3,7 km/h (1 Bft) SW 223 0 min 0,000 mm 0,0 UV-I 0 W/m 18,4 C 19,4 C 6,4 km/h (2 Bft) 94,00 %
28.07.2019 21:48 19,4 C 25,6 C 19,4 C 94 % 1000,6 hPa 0,0 l/m 3,5 km/h (1 Bft) W-SW 240 0 min 0,000 mm 0,0 UV-I 0 W/m 18,4 C 19,4 C 9,7 km/h (2 Bft) 93,62 %
28.07.2019 21:50 19,4 C 25,6 C 19,4 C 95 % 1000,6 hPa 0,0 l/m 5,6 km/h (1 Bft) SW 235 0 min 0,000 mm 0,0 UV-I 0 W/m 18,6 C 19,4 C 8,0 km/h (2 Bft) 94,34 %
28.07.2019 21:52 19,4 C 25,6 C 19,4 C 95 % 1000,6 hPa 0,0 l/m 8,6 km/h (2 Bft) W-SW 240 0 min 0,000 mm 0,0 UV-I 0 W/m 18,6 C 18,5 C 12,9 km/h (3 Bft) 94,74 %
28.07.2019 21:54 19,4 C 25,6 C 19,4 C 95 % 1000,6 hPa 0,0 l/m 7,5 km/h (2 Bft) SW 221 0 min 0,000 mm 0,0 UV-I 0 W/m 18,6 C 18,9 C 11,3 km/h (2 Bft) 96,00 %
28.07.2019 21:56 19,3 C 25,6 C 19,4 C 95 % 1000,6 hPa 0,0 l/m 5,6 km/h (1 Bft) SW 218 0 min 0,000 mm 0,0 UV-I 0 W/m 18,5 C 19,3 C 8,0 km/h (2 Bft) 96,00 %
28.07.2019 21:59 19,3 C 25,6 C 19,4 C 95 % 1000,6 hPa 0,0 l/m 5,0 km/h (1 Bft) W-SW 239 0 min 0,000 mm 0,0 UV-I 0 W/m 18,5 C 19,3 C 8,0 km/h (2 Bft) 94,37 %
28.07.2019 22:00 19,3 C 25,6 C 19,4 C 95 % 1000,6 hPa 0,0 l/m 6,0 km/h (2 Bft) W-SW 238 0 min 0,000 mm 0,0 UV-I 0 W/m 18,5 C 19,3 C 8,0 km/h (2 Bft) 100,00 %
28.07.2019 22:02 19,4 C 25,6 C 19,4 C 95 % 1000,5 hPa 0,0 l/m 7,8 km/h (2 Bft) W-SW 243 0 min 0,000 mm 0,0 UV-I 0 W/m 18,6 C 18,8 C 11,3 km/h (2 Bft) 94,00 %
28.07.2019 22:04 19,3 C 25,6 C 19,4 C 95 % 1000,5 hPa 0,0 l/m 7,0 km/h (2 Bft) SW 225 0 min 0,000 mm 0,0 UV-I 0 W/m 18,5 C 19,0 C 11,3 km/h (2 Bft) 96,23 %
28.07.2019 22:06 19,3 C 25,6 C 19,4 C 95 % 1000,5 hPa 0,0 l/m 7,6 km/h (2 Bft) W-SW 251 0 min 0,000 mm 0,0 UV-I 0 W/m 18,5 C 18,8 C 11,3 km/h (2 Bft) 94,74 %
28.07.2019 22:08 19,3 C 25,6 C 19,4 C 95 % 1000,6 hPa 0,0 l/m 6,5 km/h (2 Bft) SW 215 0 min 0,000 mm 0,0 UV-I 0 W/m 18,5 C 19,3 C 11,3 km/h (2 Bft) 98,04 %
28.07.2019 22:10 19,3 C 25,6 C 19,4 C 95 % 1000,6 hPa 0,0 l/m 8,1 km/h (2 Bft) S-SW 213 0 min 0,000 mm 0,0 UV-I 0 W/m 18,5 C 18,6 C 14,5 km/h (3 Bft) 95,12 %
28.07.2019 22:12 19,3 C 25,6 C 19,4 C 95 % 1000,6 hPa 0,0 l/m 8,6 km/h (2 Bft) SW 229 0 min 0,000 mm 0,0 UV-I 0 W/m 18,5 C 18,4 C 12,9 km/h (3 Bft) 98,11 %
28.07.2019 22:14 19,3 C 25,6 C 19,4 C 95 % 1000,7 hPa 0,0 l/m 8,1 km/h (2 Bft) S-SW 192 0 min 0,000 mm 0,0 UV-I 0 W/m 18,5 C 18,6 C 11,3 km/h (2 Bft) 96,00 %
28.07.2019 22:16 19,3 C 25,6 C 19,4 C 95 % 1000,7 hPa 0,0 l/m 8,3 km/h (2 Bft) S-SW 199 0 min 0,000 mm 0,0 UV-I 0 W/m 18,5 C 18,5 C 11,3 km/h (2 Bft) 98,00 %
28.07.2019 22:18 19,3 C 25,6 C 19,4 C 95 % 1000,7 hPa 0,0 l/m 7,0 km/h (2 Bft) SW 225 0 min 0,000 mm 0,0 UV-I 0 W/m 18,5 C 19,0 C 12,9 km/h (3 Bft) 94,74 %
28.07.2019 22:20 19,3 C 25,6 C 19,4 C 95 % 1000,7 hPa 0,0 l/m 8,1 km/h (2 Bft) SW 235 0 min 0,000 mm 0,0 UV-I 0 W/m 18,5 C 18,6 C 12,9 km/h (3 Bft) 95,12 %
28.07.2019 22:22 19,3 C 25,6 C 19,4 C 95 % 1000,7 hPa 0,0 l/m 10,4 km/h (2 Bft) W-SW 240 0 min 0,000 mm 0,0 UV-I 0 W/m 18,5 C 17,7 C 16,1 km/h (3 Bft) 98,21 %
28.07.2019 22:24 19,2 C 25,6 C 19,4 C 95 % 1000,7 hPa 0,0 l/m 10,0 km/h (2 Bft) SW 215 0 min 0,000 mm 0,0 UV-I 0 W/m 18,4 C 17,8 C 16,1 km/h (3 Bft) 95,12 %
28.07.2019 22:26 19,3 C 25,6 C 19,4 C 95 % 1000,7 hPa 0,0 l/m 10,6 km/h (2 Bft) SW 235 0 min 0,000 mm 0,0 UV-I 0 W/m 18,5 C 17,7 C 17,7 km/h (3 Bft) 96,00 %
28.07.2019 22:28 19,2 C 25,6 C 19,4 C 95 % 1000,7 hPa 0,0 l/m 10,1 km/h (2 Bft) SW 236 0 min 0,000 mm 0,0 UV-I 0 W/m 18,4 C 17,7 C 14,5 km/h (3 Bft) 98,00 %
28.07.2019 22:30 19,2 C 25,6 C 19,4 C 95 % 1000,6 hPa 0,0 l/m 9,1 km/h (2 Bft) SW 219 0 min 0,000 mm 0,0 UV-I 0 W/m 18,4 C 18,1 C 14,5 km/h (3 Bft) 97,87 %
28.07.2019 22:32 19,3 C 25,6 C 19,4 C 95 % 1000,6 hPa 0,0 l/m 9,6 km/h (2 Bft) SW 221 0 min 0,000 mm 0,0 UV-I 0 W/m 18,5 C 18,0 C 12,9 km/h (3 Bft) 95,74 %
28.07.2019 22:34 19,3 C 25,6 C 19,4 C 95 % 1000,6 hPa 0,0 l/m 8,4 km/h (2 Bft) W-SW 246 0 min 0,000 mm 0,0 UV-I 0 W/m 18,5 C 18,5 C 11,3 km/h (2 Bft) 95,74 %
28.07.2019 22:36 19,3 C 25,6 C 19,4 C 95 % 1000,6 hPa 0,0 l/m 7,1 km/h (2 Bft) W-SW 247 0 min 0,000 mm 0,0 UV-I 0 W/m 18,5 C 19,0 C 11,3 km/h (2 Bft) 100,00 %
28.07.2019 22:38 19,3 C 25,6 C 19,4 C 95 % 1000,7 hPa 0,0 l/m 8,6 km/h (2 Bft) SW 233 0 min 0,000 mm 0,0 UV-I 0 W/m 18,5 C 18,4 C 14,5 km/h (3 Bft) 100,00 %
28.07.2019 22:40 19,3 C 25,6 C 19,4 C 95 % 1000,7 hPa 0,0 l/m 7,1 km/h (2 Bft) SW 220 0 min 0,000 mm 0,0 UV-I 0 W/m 18,5 C 19,0 C 9,7 km/h (2 Bft) 100,00 %
28.07.2019 22:42 19,2 C 25,6 C 19,4 C 95 % 1000,8 hPa 0,0 l/m 8,7 km/h (2 Bft) SW 234 0 min 0,000 mm 0,0 UV-I 0 W/m 18,4 C 18,2 C 12,9 km/h (3 Bft) 100,00 %
28.07.2019 22:44 19,2 C 25,6 C 19,4 C 95 % 1000,8 hPa 0,0 l/m 9,2 km/h (2 Bft) SW 236 0 min 0,000 mm 0,0 UV-I 0 W/m 18,4 C 18,0 C 14,5 km/h (3 Bft) 100,00 %
28.07.2019 22:46 19,2 C 25,6 C 19,4 C 95 % 1000,8 hPa 0,0 l/m 8,2 km/h (2 Bft) W-SW 237 0 min 0,000 mm 0,0 UV-I 0 W/m 18,4 C 18,4 C 11,3 km/h (2 Bft) 100,00 %
28.07.2019 22:48 19,2 C 25,6 C 19,4 C 95 % 1000,8 hPa 0,0 l/m 9,5 km/h (2 Bft) SW 232 0 min 0,000 mm 0,0 UV-I 0 W/m 18,4 C 17,9 C 14,5 km/h (3 Bft) 97,22 %
28.07.2019 22:50 19,2 C 25,6 C 19,4 C 95 % 1000,8 hPa 0,0 l/m 9,5 km/h (2 Bft) W-SW 254 0 min 0,000 mm 0,0 UV-I 0 W/m 18,4 C 17,9 C 12,9 km/h (3 Bft) 98,11 %
28.07.2019 22:52 19,2 C 25,6 C 19,4 C 95 % 1000,8 hPa 0,0 l/m 8,4 km/h (2 Bft) W 271 0 min 0,000 mm 0,0 UV-I 0 W/m 18,4 C 18,4 C 14,5 km/h (3 Bft) 98,00 %
28.07.2019 22:54 19,2 C 25,6 C 19,4 C 95 % 1000,9 hPa 0,0 l/m 8,3 km/h (2 Bft) W-SW 240 0 min 0,000 mm 0,0 UV-I 0 W/m 18,4 C 18,4 C 12,9 km/h (3 Bft) 97,37 %
28.07.2019 22:56 19,2 C 25,6 C 19,4 C 95 % 1000,9 hPa 0,0 l/m 7,7 km/h (2 Bft) W 259 0 min 0,000 mm 0,0 UV-I 0 W/m 18,4 C 18,6 C 12,9 km/h (3 Bft) 95,45 %
28.07.2019 22:58 19,2 C 25,6 C 18,9 C 95 % 1000,9 hPa 0,0 l/m 6,6 km/h (2 Bft) SW 231 0 min 0,000 mm 0,0 UV-I 0 W/m 18,4 C 19,1 C 11,3 km/h (2 Bft) 96,43 %
28.07.2019 23:00 19,2 C 25,6 C 18,9 C 95 % 1000,9 hPa 0,0 l/m 5,5 km/h (1 Bft) S-SW 210 0 min 0,000 mm 0,0 UV-I 0 W/m 18,4 C 19,2 C 9,7 km/h (2 Bft) 98,00 %
28.07.2019 23:02 19,2 C 25,6 C 19,4 C 95 % 1001,0 hPa 0,0 l/m 5,7 km/h (1 Bft) S-SO 155 0 min 0,000 mm 0,0 UV-I 0 W/m 18,4 C 19,2 C 9,7 km/h (2 Bft) 97,37 %
28.07.2019 23:04 19,2 C 25,6 C 19,4 C 95 % 1001,1 hPa 0,0 l/m 8,0 km/h (2 Bft) S-SO 147 0 min 0,000 mm 0,0 UV-I 0 W/m 18,4 C 18,5 C 12,9 km/h (3 Bft) 95,74 %
28.07.2019 23:06 19,2 C 25,6 C 19,4 C 95 % 1001,2 hPa 0,0 l/m 9,5 km/h (2 Bft) S-SO 159 0 min 0,000 mm 0,0 UV-I 0 W/m 18,4 C 17,9 C 16,1 km/h (3 Bft) 98,00 %
28.07.2019 23:08 19,2 C 25,6 C 19,4 C 95 % 1001,3 hPa 0,0 l/m 10,4 km/h (2 Bft) S 181 0 min 0,000 mm 0,0 UV-I 0 W/m 18,4 C 17,6 C 16,1 km/h (3 Bft) 97,73 %
28.07.2019 23:10 19,2 C 25,6 C 19,4 C 95 % 1001,3 hPa 0,0 l/m 9,8 km/h (2 Bft) S-SW 201 0 min 0,000 mm 0,0 UV-I 0 W/m 18,4 C 17,8 C 14,5 km/h (3 Bft) 92,45 %
28.07.2019 23:12 19,1 C 25,6 C 19,4 C 95 % 1001,2 hPa 0,0 l/m 6,6 km/h (2 Bft) S-SW 198 0 min 0,000 mm 0,0 UV-I 0 W/m 18,3 C 19,0 C 9,7 km/h (2 Bft) 98,00 %
28.07.2019 23:14 19,2 C 25,6 C 19,4 C 95 % 1001,1 hPa 0,0 l/m 7,1 km/h (2 Bft) S 182 0 min 0,000 mm 0,0 UV-I 0 W/m 18,4 C 18,9 C 9,7 km/h (2 Bft) 100,00 %
28.07.2019 23:16 19,2 C 25,6 C 19,4 C 95 % 1001,2 hPa 0,0 l/m 8,7 km/h (2 Bft) S-SW 195 0 min 0,000 mm 0,0 UV-I 0 W/m 18,4 C 18,2 C 12,9 km/h (3 Bft) 100,00 %
28.07.2019 23:18 19,2 C 25,6 C 19,4 C 95 % 1001,2 hPa 0,0 l/m 7,0 km/h (2 Bft) S-SO 167 0 min 0,000 mm 0,0 UV-I 0 W/m 18,4 C 18,9 C 9,7 km/h (2 Bft) 100,00 %
28.07.2019 23:20 19,2 C 25,6 C 18,9 C 95 % 1001,3 hPa 0,0 l/m 7,5 km/h (2 Bft) S-SW 198 0 min 0,000 mm 0,0 UV-I 0 W/m 18,4 C 18,7 C 11,3 km/h (2 Bft) 100,00 %
28.07.2019 23:22 19,2 C 25,6 C 18,9 C 95 % 1001,3 hPa 0,0 l/m 7,2 km/h (2 Bft) S-SW 199 0 min 0,000 mm 0,0 UV-I 0 W/m 18,4 C 18,9 C 11,3 km/h (2 Bft) 100,00 %
28.07.2019 23:24 19,1 C 25,6 C 18,9 C 95 % 1001,3 hPa 0,0 l/m 6,5 km/h (2 Bft) W-SW 237 0 min 0,000 mm 0,0 UV-I 0 W/m 18,3 C 19,1 C 9,7 km/h (2 Bft) 100,00 %
28.07.2019 23:26 19,1 C 25,6 C 18,9 C 95 % 1001,3 hPa 0,0 l/m 7,9 km/h (2 Bft) W-SW 244 0 min 0,000 mm 0,0 UV-I 0 W/m 18,3 C 18,4 C 12,9 km/h (3 Bft) 100,00 %
28.07.2019 23:28 19,1 C 25,6 C 18,9 C 94 % 1001,3 hPa 0,0 l/m 6,4 km/h (2 Bft) S-SW 213 0 min 0,000 mm 0,0 UV-I 0 W/m 18,1 C 19,1 C 11,3 km/h (2 Bft) 100,00 %
28.07.2019 23:30 19,1 C 25,6 C 18,9 C 94 % 1001,3 hPa 0,0 l/m 6,8 km/h (2 Bft) SW 228 0 min 0,000 mm 0,0 UV-I 0 W/m 18,1 C 18,9 C 11,3 km/h (2 Bft) 100,00 %
28.07.2019 23:32 19,1 C 25,6 C 18,9 C 94 % 1001,4 hPa 0,0 l/m 5,8 km/h (2 Bft) S 175 0 min 0,000 mm 0,0 UV-I 0 W/m 18,1 C 19,1 C 11,3 km/h (2 Bft) 97,37 %
28.07.2019 23:34 19,1 C 25,6 C 18,9 C 94 % 1001,4 hPa 0,0 l/m 6,4 km/h (2 Bft) S 188 0 min 0,000 mm 0,0 UV-I 0 W/m 18,1 C 19,1 C 9,7 km/h (2 Bft) 98,21 %
28.07.2019 23:36 19,1 C 25,6 C 18,9 C 94 % 1001,5 hPa 0,0 l/m 4,0 km/h (1 Bft) S-SW 193 0 min 0,000 mm 0,0 UV-I 0 W/m 18,1 C 19,1 C 6,4 km/h (2 Bft) 98,11 %
28.07.2019 23:38 19,1 C 25,6 C 18,9 C 94 % 1001,5 hPa 0,0 l/m 3,5 km/h (1 Bft) SW 221 0 min 0,000 mm 0,0 UV-I 0 W/m 18,1 C 19,1 C 6,4 km/h (2 Bft) 95,74 %
28.07.2019 23:40 19,1 C 25,6 C 18,9 C 94 % 1001,4 hPa 0,0 l/m 5,7 km/h (1 Bft) SW 234 0 min 0,000 mm 0,0 UV-I 0 W/m 18,1 C 19,1 C 8,0 km/h (2 Bft) 98,00 %
28.07.2019 23:42 19,1 C 25,6 C 18,3 C 94 % 1001,4 hPa 0,0 l/m 6,8 km/h (2 Bft) W-SW 240 0 min 0,000 mm 0,0 UV-I 0 W/m 18,1 C 18,9 C 9,7 km/h (2 Bft) 95,74 %
28.07.2019 23:44 19,1 C 25,6 C 18,3 C 94 % 1001,5 hPa 0,0 l/m 6,7 km/h (2 Bft) SW 232 0 min 0,000 mm 0,0 UV-I 0 W/m 18,1 C 19,0 C 11,3 km/h (2 Bft) 100,00 %
28.07.2019 23:46 19,1 C 25,6 C 18,3 C 94 % 1001,5 hPa 0,0 l/m 5,9 km/h (2 Bft) SW 222 0 min 0,000 mm 0,0 UV-I 0 W/m 18,1 C 19,1 C 8,0 km/h (2 Bft) 95,74 %
28.07.2019 23:48 19,1 C 25,6 C 18,3 C 94 % 1001,5 hPa 0,0 l/m 5,4 km/h (1 Bft) SW 228 0 min 0,000 mm 0,0 UV-I 0 W/m 18,1 C 19,1 C 8,0 km/h (2 Bft) 96,00 %
28.07.2019 23:50 19,1 C 25,6 C 18,3 C 94 % 1001,5 hPa 0,0 l/m 5,7 km/h (1 Bft) W-SW 238 0 min 0,000 mm 0,0 UV-I 0 W/m 18,1 C 19,1 C 9,7 km/h (2 Bft) 97,56 %
28.07.2019 23:52 19,1 C 25,6 C 18,3 C 94 % 1001,5 hPa 0,0 l/m 6,4 km/h (2 Bft) W-SW 246 0 min 0,000 mm 0,0 UV-I 0 W/m 18,1 C 19,1 C 8,0 km/h (2 Bft) 94,87 %
28.07.2019 23:54 19,0 C 25,6 C 18,3 C 94 % 1001,5 hPa 0,0 l/m 6,0 km/h (2 Bft) W-SW 238 0 min 0,000 mm 0,0 UV-I 0 W/m 18,0 C 19,0 C 8,0 km/h (2 Bft) 96,36 %
28.07.2019 23:56 19,0 C 25,6 C 18,3 C 94 % 1001,5 hPa 0,0 l/m 5,0 km/h (1 Bft) SW 236 0 min 0,000 mm 0,0 UV-I 0 W/m 18,0 C 19,0 C 6,4 km/h (2 Bft) 97,87 %
28.07.2019 23:58 18,9 C 25,6 C 18,3 C 94 % 1001,5 hPa 0,0 l/m 4,6 km/h (1 Bft) W-SW 238 0 min 0,000 mm 0,0 UV-I 0 W/m 17,9 C 18,9 C 6,4 km/h (2 Bft) 98,00 %
_ Min-Zeit 01:38 07:52 01:20 15:10 05:40 - 16:48 - - - - - - 01:34 08:16 16:48 00:02
Minimum _ 16,5 C 25,6 C 15,6 C 69 % 996,9 hPa - 0,0 km/h (0 Bft) - - - - - - 15,6 C 15,2 C 0,0 km/h (0 Bft) 13,33 %
_ Max-Zeit 15:02 00:00 11:06 01:46 23:36 17:30 08:06 - - 09:18 12:00 11:20 11:06 20:24 15:02 02:38 00:24
Maximum _ 23,8 C 26,7 C 33,9 C 95 % 1001,5 hPa 0,2 l/m 13,1 km/h
O (3 Bft)
- - 2 min 0,279 mm 4,1 UV-I 698 W/m 19,6 C 23,8 C 19,3 km/h
NO (3 Bft)
100,00 %
Durchschnitt _ 19,8 C 26,0 C 22,1 C 86 % 998,2 hPa #1,8 l/m 4,8 km/h (1 Bft) O - #1:24 h #1,854 mm 1,6 UV-I 194 W/m 17,3 C 19,6 C 7,8 km/h (2 Bft) 97,36 %